ftp/pub/palmer/observations_modified/2019/November/AR191117_BASE.txt

Download

Sample DateTime	Unit Id	WS Avg 2min	WD Avg 2min	WGS 10min	WGD 10min	Air Temp	Rel Humidity	Dew Point	Pyranometer	Quantum	Air Pressure	Snow Level	Rainfall	PW Current	Visibility	CBase 1	CBase 2	CBase 3	Vert Vis
2019/11/17  00:00:00  BASE  2.43432  45   3.35748  58   -1.7  100   -1.7  23    0     973.3    NA       0.0000   9999     1640  0     0    
2019/11/17  00:01:00  BASE  2.19912  52   3.35748  58   -1.7  100   -1.7  23    0     973.3    NA       0.0000   9999     1640  0     0    
2019/11/17  00:02:00  BASE  1.87572  63   3.35748  58   -1.7  100   -1.7  22    0     973.3    NA       0.0000   9999     1640  0     0    
2019/11/17  00:03:00  BASE  1.76988  84   3.35748  58   -1.7  100   -1.7  22    0     973.3    NA       0.0000   9999     1740  0     0    
2019/11/17  00:04:00  BASE  1.6758   111  3.35748  58   -1.7  100   -1.7  21    0     973.3    NA       0.0000   9999     1640  0     0    
2019/11/17  00:05:00  BASE  1.38768  132  3.35748  58   -1.6  100   -1.6  21    0     973.2    NA       0.0000   9999     1640  0     0    
2019/11/17  00:06:00  BASE  1.323    145  3.26928  58   -1.6  100   -1.6  20    0     973.2    NA       0.0000   9999     1640  4430  0    
2019/11/17  00:07:00  BASE  1.42884  156  3.2046   45   -1.5  100   -1.5  20    0     973.2    NA       0.0000   9999     1670  4430  0    
2019/11/17  00:08:00  BASE  1.27596  171  2.75184  39   -1.5  100   -1.5  19    0     973.2    NA       0.0000   9999     1740  4460  0    
2019/11/17  00:09:00  BASE  1.15248  183  2.48136  52   -1.5  100   -1.5  19    0     973.2    NA       0.0000   9999     4460  0     0    
2019/11/17  00:10:00  BASE  1.03488  169  2.45196  55   -1.4  100   -1.4  18    0     973.2    NA       0.0000   9999     4400  0     0    
2019/11/17  00:11:00  BASE  0.82908  157  1.93452  100  -1.5  100   -1.5  18    0     973.2    NA       0.0000   9999     4400  0     0    
2019/11/17  00:12:00  BASE  0.87612  148  1.93452  100  -1.5  100   -1.5  18    0     973.2    NA       0.0000   9999     4300  0     0    
2019/11/17  00:13:00  BASE  1.85808  117  3.41628  94   -1.4  100   -1.4  18    0     973.2    NA       0.0000   9999     4330  0     0    
2019/11/17  00:14:00  BASE  3.2046   99   3.75144  98   -1.2  100   -1.2  17    0     973.2    NA       0.0000   9999     4400  0     0    
2019/11/17  00:15:00  BASE  3.65148  96   3.81024  98   -1.0  100   -1.0  17    0     973.2    NA       0.0000   9999     4400  0     0    
2019/11/17  00:16:00  BASE  3.71616  97   3.86904  99   -0.8  100   -0.8  17    0     973.2    NA       0.0000   9999     1840  4360  0    
2019/11/17  00:17:00  BASE  3.74556  98   3.86904  99   -0.6  100   -0.6  17    0     973.2    NA       0.0000   9999     1840  4360  0    
2019/11/17  00:18:00  BASE  3.73968  97   3.86904  99   -0.4  100   -0.4  16    0     973.2    NA       0.0000   9999     1800  4400  0    
2019/11/17  00:19:00  BASE  3.72204  98   3.86904  99   -0.3  100   -0.3  16    0     973.2    NA       0.0000   9999     1800  4400  0    
2019/11/17  00:20:01  BASE  3.60444  101  3.86904  99   -0.3  100   -0.3  16    0     973.2    NA       0.0000   9999     1800  4360  0    
2019/11/17  00:21:00  BASE  3.33396  111  3.86904  99   -0.2  100   -0.2  15    0     973.2    NA       0.0000   9999     1800  4330  0    
2019/11/17  00:22:00  BASE  2.66952  128  3.86904  99   -0.2  100   -0.2  15    0     973.2    NA       0.0000   9999     1800  4330  4950 
2019/11/17  00:23:00  BASE  2.5872   151  3.86904  99   -0.3  100   -0.3  14    0     973.2    NA       0.0000   9999     4330  4890  0    
2019/11/17  00:24:00  BASE  3.32808  170  3.86904  170  -0.6  100   -0.6  14    0     973.2    NA       0.0000   9999     4360  0     0    
2019/11/17  00:25:00  BASE  3.6456   174  4.08072  172  -0.9  100   -0.9  14    0     973.2    NA       0.0000   9999     4330  0     0    
2019/11/17  00:26:00  BASE  3.58092  174  4.08072  172  -1.2  100   -1.2  13    0     973.3    NA       0.0000   9999     4360  0     0    
2019/11/17  00:27:00  BASE  3.33396  176  4.08072  172  -1.6  100   -1.6  13    0     973.3    NA       0.0000   9999     1770  4590  0    
2019/11/17  00:28:00  BASE  3.3222   178  4.29828  172  -1.8  100   -1.8  13    0     973.3    NA       0.0000   9999     4490  0     0    
2019/11/17  00:29:00  BASE  3.28692  180  4.29828  172  -1.9  100   -1.9  13    0     973.3    NA       0.0000   9999     4330  4950  0    
2019/11/17  00:30:00  BASE  3.16344  178  4.29828  172  -1.9  100   -1.9  12    0     973.3    NA       0.0000   9999     1740  4400  5050 
2019/11/17  00:31:00  BASE  3.23988  177  4.29828  172  -1.9  100   -1.9  12    0     973.3    NA       0.0000   9999     1770  4430  4860 
2019/11/17  00:32:00  BASE  3.31632  181  4.29828  172  -1.9  100   -1.9  12    0     973.3    NA       0.0000   9999     1840  4860  0    
2019/11/17  00:33:00  BASE  3.19284  188  4.29828  172  -1.9  100   -1.9  12    0     973.3    NA       0.0000   9999     1800  4820  0    
2019/11/17  00:34:00  BASE  3.09288  194  4.29828  172  -1.9  100   -1.9  11    0     973.3    NA       0.0000   9999     1840  4860  0    
2019/11/17  00:35:00  BASE  3.234    197  4.29828  172  -1.9  100   -1.9  11    0     973.3    NA       0.0000   9999     4890  0     0    
2019/11/17  00:36:00  BASE  3.37512  196  4.29828  172  -1.9  100   -1.9  11    0     973.3    NA       0.0000   9999     4820  0     0    
2019/11/17  00:37:00  BASE  3.23988  198  4.29828  172  -1.9  100   -1.9  11    0     973.3    NA       0.0000   9999     1840  4820  0    
2019/11/17  00:38:00  BASE  3.26928  200  4.02192  193  -1.9  100   -1.9  10    0     973.3    NA       0.0000   9999     1800  4920  0    
2019/11/17  00:39:00  BASE  3.48096  193  4.02192  193  -1.9  100   -1.9  10    0     973.3    NA       0.0000   9999     4890  0     0    
2019/11/17  00:40:00  BASE  3.4104   186  4.02192  193  -1.9  100   -1.9  10    0     973.3    NA       0.0000   9999     4860  0     0    
2019/11/17  00:41:00  BASE  3.15168  185  4.02192  193  -1.9  100   -1.9  10    0     973.3    NA       0.0000   9999     4330  4860  0    
2019/11/17  00:42:00  BASE  2.95176  187  4.02192  193  -1.8  100   -1.8  10    0     973.3    NA       0.0000   9999     1840  4330  4790 
2019/11/17  00:43:00  BASE  2.646    189  4.02192  193  -1.8  100   -1.8  9     0     973.3    NA       0.0000   9999     1970  4860  0    
2019/11/17  00:44:00  BASE  2.24616  182  4.02192  193  -1.7  100   -1.7  9     0     973.3    NA       0.0000   9999     4820  0     0    
2019/11/17  00:45:00  BASE  1.75224  153  4.02192  193  -1.6  100   -1.6  9     0     973.3    NA       0.0000   9999     4820  0     0    
2019/11/17  00:46:00  BASE  0.72912  164  4.02192  193  -1.4  100   -1.4  9     0     973.2    NA       0.0000   9999     4820  0     0    
2019/11/17  00:47:00  BASE  0.11172  181  4.02192  193  -1.2  100   -1.2  9     0     973.2    NA       0.0000   9999     4820  0     0    
2019/11/17  00:48:00  BASE  0.33516  161  3.75144  190  -1.0  100   -1.0  8     0     973.2    NA       0.0000   9999     4760  0     0    
2019/11/17  00:49:00  BASE  1.06428  128  3.75144  190  -0.8  100   -0.8  8     0     973.2    NA       0.0000   9999     4760  0     0    
2019/11/17  00:50:00  BASE  1.43472  82   3.35748  181  -0.6  100   -0.6  8     0     973.2    NA       0.0000   9999     4790  0     0    
2019/11/17  00:51:00  BASE  1.22892  77   3.29868  188  -0.5  100   -0.5  8     0     973.2    NA       0.0000   9999     4760  0     0    
2019/11/17  00:52:00  BASE  1.08192  51   3.0576   182  -0.3  100   -0.3  7     0     973.2    NA       0.0000   9999     4630  0     0    
2019/11/17  00:53:00  BASE  1.1466   40   2.84592  164  -0.2  100   -0.2  7     0     973.2    NA       0.0000   9999     4590  0     0    
2019/11/17  00:54:00  BASE  1.17012  74   2.0874   102  -0.1  100   -0.1  7     0     973.2    NA       0.0000   9999     4660  0     0    
2019/11/17  00:55:00  BASE  0.81144  72   2.0874   102  -0.1  100   -0.1  7     0     973.2    NA       0.0000   9999     4660  0     0    
2019/11/17  00:56:00  BASE  1.42296  75   3.53976  103  -0.1  100   -0.1  7     0     973.2    NA       0.0000   9999     4170  0     0    
2019/11/17  00:57:00  BASE  2.88708  99   3.93372  90   -0.0  100   -0.0  7     0     973.2    NA       0.0000   9999     4690  0     0    
2019/11/17  00:58:00  BASE  3.66912  109  4.2042   103  -0.0  100   -0.0  6     0     973.1    NA       0.0000   9999     4630  0     0    
2019/11/17  00:59:00  BASE  4.05132  112  4.80984  115  0.0   100   0.0   6     0     973.0    NA       0.0000   9999     4630  0     0    
2019/11/17  01:00:00  BASE  4.03956  115  4.80984  115  0.0   100   0.0   6     0     973.0    NA       0.0000   9999     4590  0     0    
2019/11/17  01:01:00  BASE  4.13952  118  5.35668  125  -0.0  100   -0.0  6     0     973.0    NA       0.0000   9999     4590  0     0    
2019/11/17  01:02:00  BASE  4.31592  122  5.35668  125  -0.0  100   -0.0  5     0     973.0    NA       0.0000   9999     4560  0     0    
2019/11/17  01:03:00  BASE  3.78672  121  5.35668  125  -0.0  100   -0.0  5     0     973.0    NA       0.0000   9999     4560  5180  0    
2019/11/17  01:04:00  BASE  3.51036  122  5.35668  125  -0.0  100   -0.0  5     0     973.0    NA       0.0000   9999     2330  4530  0    
2019/11/17  01:05:00  BASE  4.12188  123  5.35668  125  -0.0  100   -0.0  5     0     973.0    NA       0.0000   9999     2300  4490  0    
2019/11/17  01:06:00  BASE  4.54524  124  5.35668  125  -0.0  100   -0.0  4     0     973.0    NA       0.0000   9999     2300  4460  0    
2019/11/17  01:07:00  BASE  4.03956  126  5.35668  125  -0.1  100   -0.1  4     0     973.0    NA       0.0000   9999     2330  0     0    
2019/11/17  01:08:00  BASE  3.63972  125  5.35668  125  -0.1  100   -0.1  4     0     973.1    NA       0.0000   9999     2330  0     0    
2019/11/17  01:09:00  BASE  3.76908  122  5.35668  125  -0.1  100   -0.1  4     0     973.1    NA       0.0000   9999     2300  0     0    
2019/11/17  01:10:00  BASE  4.04544  121  5.35668  125  -0.1  100   -0.1  4     0     973.1    NA       0.0000   9999     2330  0     0    
2019/11/17  01:11:00  BASE  4.16892  125  5.10972  124  0.0   100   0.0   3     0     973.1    NA       0.0000   9999     2400  0     0    
2019/11/17  01:12:00  BASE  3.48096  124  5.10972  124  0.0   100   0.0   3     0     973.2    NA       0.0000   9999     2360  0     0    
2019/11/17  01:13:00  BASE  2.52252  103  5.10972  124  0.0   100   0.0   3     0     973.3    NA       0.0000   9999     2300  0     0    
2019/11/17  01:14:00  BASE  1.9404   67   5.10972  124  -0.0  100   -0.0  3     0     973.3    NA       0.0000   9999     1970  2360  0    
2019/11/17  01:15:00  BASE  1.27008  30   5.08032  119  -0.1  100   -0.1  3     0     973.3    NA       0.0000   9999     1900  2360  0    
2019/11/17  01:16:00  BASE  0.68208  23   5.08032  119  -0.2  100   -0.2  3     0     973.3    NA       0.0000   9999     1900  0     0    
2019/11/17  01:17:00  BASE  1.4112   19   5.08032  119  -0.3  100   -0.3  3     0     973.3    NA       0.0000   9999     1940  0     0    
2019/11/17  01:18:00  BASE  2.43432  9    5.08032  119  -0.5  100   -0.5  3     0     973.3    NA       0.0000   9999     2070  0     0    
2019/11/17  01:19:00  BASE  2.40492  9    5.08032  119  -0.6  100   -0.6  3     0     973.3    NA       0.0000   9999     2130  0     0    
2019/11/17  01:20:00  BASE  2.18148  9    4.44528  134  -0.6  100   -0.6  3     0     973.3    NA       0.0000   9999     2000  0     0    
2019/11/17  01:21:00  BASE  2.03448  9    3.72204  123  -0.7  100   -0.7  3     0     973.3    NA       0.0000   9999     2400  0     0    
2019/11/17  01:22:00  BASE  1.6464   4    3.1752   112  -0.8  100   -0.8  2     0     973.3    NA       0.0000   9999     2360  0     0    
2019/11/17  01:23:00  BASE  1.18188  348  2.90472  1    -0.7  100   -0.7  2     0     973.3    NA       0.0000   9999     2330  0     0    
2019/11/17  01:24:00  BASE  0.66444  338  2.90472  1    -0.7  100   -0.7  2     0     973.3    NA       0.0000   9999     2300  0     0    
2019/11/17  01:25:00  BASE  0.15876  330  2.90472  1    -0.7  100   -0.7  2     0     973.3    NA       0.0000   9999     2300  0     0    
2019/11/17  01:26:00  BASE  0.12936  311  2.90472  1    -0.6  100   -0.6  2     0     973.3    NA       0.0000   9999     2330  0     0    
2019/11/17  01:27:00  BASE  0.59976  218  2.90472  1    -0.7  100   -0.7  2     0     973.3    NA       0.0000   9999     2330  0     0    
2019/11/17  01:28:00  BASE  1.19952  192  2.48136  6    -0.7  100   -0.7  2     0     973.3    NA       0.0000   9999     2300  0     0    
2019/11/17  01:29:00  BASE  1.65228  185  2.42256  4    -0.8  100   -0.8  2     0     973.3    NA       0.0000   9999     2300  0     0    
2019/11/17  01:30:00  BASE  1.25832  177  2.38728  183  -0.9  100   -0.9  2     0     973.3    NA       0.0000   9999     2260  0     0    
2019/11/17  01:31:00  BASE  0.82908  186  2.38728  183  -0.9  100   -0.9  2     0     973.3    NA       0.0000   9999     2230  0     0    
2019/11/17  01:32:00  BASE  0.75264  180  2.38728  183  -0.9  100   -0.9  2     0     973.3    NA       0.0000   9999     2230  0     0    
2019/11/17  01:33:00  BASE  0.41748  117  2.38728  183  -0.9  100   -0.9  2     0     973.3    NA       0.0000   9999     2200  0     0    
2019/11/17  01:34:00  BASE  0.57624  75   2.38728  183  -0.8  100   -0.8  2     0     973.3    NA       0.0000   9999     2200  0     0    
2019/11/17  01:35:00  BASE  0.90552  37   2.38728  183  -0.7  100   -0.7  1     0     973.3    NA       0.0000   9999     2200  0     0    
2019/11/17  01:36:00  BASE  1.176    354  2.38728  183  -0.7  100   -0.7  1     0     973.3    NA       0.0000   9999     2230  0     0    
2019/11/17  01:37:00  BASE  1.2054   338  2.38728  183  -0.7  100   -0.7  1     0     973.3    NA       0.0000   9999     2360  0     0    
2019/11/17  01:38:00  BASE  1.14072  316  2.38728  183  -0.7  100   -0.7  1     0     973.3    NA       0.0000   9999     2490  4790  0    
2019/11/17  01:39:00  BASE  1.2936   294  1.69344  329  -0.8  100   -0.8  1     0     973.3    NA       0.0000   9999     2560  0     0    
2019/11/17  01:40:00  BASE  1.48176  311  1.78752  341  -0.9  100   -0.9  1     0     973.3    NA       0.0000   9999     2560  4820  0    
2019/11/17  01:41:00  BASE  1.5582   332  1.78752  341  -0.9  100   -0.9  1     0     973.3    NA       0.0000   9999     2620  4760  0    
2019/11/17  01:42:00  BASE  1.54644  325  1.87572  320  -0.9  100   -0.9  1     0     973.3    NA       0.0000   9999     2620  4690  0    
2019/11/17  01:43:00  BASE  1.64052  318  1.87572  320  -1.0  100   -1.0  1     0     973.3    NA       0.0000   9999     2620  4690  0    
2019/11/17  01:44:00  BASE  1.75812  316  2.1168   308  -1.0  100   -1.0  1     0     973.3    NA       0.0000   9999     2620  4720  0    
2019/11/17  01:45:00  BASE  2.0874   317  2.63424  323  -1.1  100   -1.1  1     0     973.3    NA       0.0000   9999     2620  4720  0    
2019/11/17  01:46:00  BASE  2.31084  320  2.63424  323  -1.1  100   -1.1  1     0     973.4    NA       0.0000   9999     2660  4760  8010 
2019/11/17  01:47:00  BASE  2.53428  313  2.99292  316  -1.2  100   -1.2  1     0     973.4    NA       0.0000   9999     2660  4720  0    
2019/11/17  01:48:00  BASE  2.85768  304  3.087    302  -1.3  100   -1.3  1     0     973.4    NA       0.0000   9999     4720  7970  0    
2019/11/17  01:49:00  BASE  2.97528  298  3.26928  294  -1.3  100   -1.3  1     0     973.4    NA       0.0000   9999     4720  8070  0    
2019/11/17  01:50:00  BASE  3.19284  296  3.51036  299  -1.3  100   -1.3  1     0     973.4    NA       0.0000   9999     4720  0     0    
2019/11/17  01:51:00  BASE  3.3222   296  3.53976  295  -1.4  100   -1.4  1     0     973.4    NA       0.0000   9999     4690  8010  0    
2019/11/17  01:52:00  BASE  3.48096  295  3.86904  299  -1.4  100   -1.4  1     0     973.4    NA       0.0000   9999     4820  8010  0    
2019/11/17  01:53:00  BASE  3.78084  297  4.116    297  -1.5  100   -1.5  1     0     973.4    NA       0.0000   9999     4820  0     0    
2019/11/17  01:54:00  BASE  4.03956  298  4.50996  301  -1.5  100   -1.5  1     0     973.4    NA       0.0000   9999     4790  0     0    
2019/11/17  01:55:00  BASE  4.3218   298  4.78044  296  -1.5  100   -1.5  1     0     973.4    NA       0.0000   9999     4790  0     0    
2019/11/17  01:56:00  BASE  4.65108  297  5.02152  294  -1.5  100   -1.5  1     0     973.4    NA       0.0000   9999     4790  8070  0    
2019/11/17  01:57:00  BASE  4.63932  295  5.02152  294  -1.5  100   -1.5  1     0     973.4    NA       0.0000   9999     4790  8040  0    
2019/11/17  01:58:00  BASE  4.22772  291  5.02152  294  -1.5  100   -1.5  1     0     973.5    NA       0.0000   9999     4790  8070  0    
2019/11/17  01:59:00  BASE  3.58092  289  5.02152  294  -1.6  100   -1.6  0     0     973.5    NA       0.0000   9999     4760  0     0    
2019/11/17  02:00:00  BASE  3.00468  286  5.02152  294  -1.6  100   -1.6  0     0     973.6    NA       0.0000   9999     4760  8040  0    
2019/11/17  02:01:00  BASE  2.78124  282  5.02152  294  -1.6  100   -1.6  0     0     973.6    NA       0.0000   9999     4790  8040  0    
2019/11/17  02:02:00  BASE  2.87532  287  5.02152  294  -1.6  100   -1.6  0     0     973.6    NA       0.0000   9999     4760  0     0    
2019/11/17  02:03:00  BASE  2.65776  288  5.02152  294  -1.6  100   -1.6  0     0     973.6    NA       0.0000   9999     4720  0     0    
2019/11/17  02:04:00  BASE  2.12268  289  5.02152  294  -1.6  100   -1.6  0     0     973.6    NA       0.0000   9999     4720  0     0    
2019/11/17  02:05:00  BASE  1.90512  293  5.02152  294  -1.6  100   -1.6  0     0     973.6    NA       0.0000   9999     4660  7970  0    
2019/11/17  02:06:00  BASE  1.49352  285  4.78044  297  -1.6  100   -1.6  0     0     973.6    NA       0.0000   9999     5740  7970  0    
2019/11/17  02:07:00  BASE  1.2642   265  4.68636  288  -1.6  100   -1.6  0     0     973.6    NA       0.0000   9999     7940  0     0    
2019/11/17  02:08:00  BASE  1.21716  249  3.51036  291  -1.6  100   -1.6  0     0     973.6    NA       0.0000   9999     7940  0     0    
2019/11/17  02:09:00  BASE  1.07604  238  3.29868  298  -1.6  100   -1.6  0     0     973.6    NA       0.0000   9999     7940  0     0    
2019/11/17  02:10:00  BASE  0.98196  233  3.29868  298  -1.6  100   -1.6  0     0     973.6    NA       0.0000   9999     4660  7940  0    
2019/11/17  02:11:00  BASE  0.52332  235  3.29868  298  -1.7  100   -1.7  0     0     973.6    NA       0.0000   9999     2920  4660  0    
2019/11/17  02:12:00  BASE  0.0882   230  2.75184  295  -1.7  100   -1.7  0     0     973.6    NA       0.0000   9999     2920  4660  0    
2019/11/17  02:13:00  BASE  0.15876  233  2.21088  295  -1.8  100   -1.8  0     0     973.6    NA       0.0000   9999     4660  0     0    
2019/11/17  02:14:00  BASE  0.18816  253  2.21088  295  -1.8  100   -1.8  0     0     973.6    NA       0.0000   9999     4630  8040  0    
2019/11/17  02:15:00  BASE  0.17052  297  1.57584  258  -1.8  100   -1.8  0     0     973.6    NA       0.0000   9999     4590  8010  0    
2019/11/17  02:16:00  BASE  0.14112  310  1.57584  258  -1.8  100   -1.8  0     0     973.6    NA       0.0000   9999     4590  7970  0    
2019/11/17  02:17:00  BASE  0        164  1.21128  230  -1.8  100   -1.8  0     0     973.6    NA       0.0000   9999     4660  7970  0    
2019/11/17  02:18:00  BASE  0        97   1.21128  230  -1.7  100   -1.7  0     0     973.6    NA       0.0000   9999     4630  7970  0    
2019/11/17  02:19:00  BASE  0        70   0.9702   329  -1.7  100   -1.7  0     0     973.6    NA       0.0000   9999     4590  7940  0    
2019/11/17  02:20:00  BASE  0.08232  12   0.9702   329  -1.7  100   -1.7  0     0     973.6    NA       0.0000   9999     7940  0     0    
2019/11/17  02:21:00  BASE  0.80556  333  2.058    340  -1.7  100   -1.7  0     0     973.6    NA       0.0000   9999     7910  0     0    
2019/11/17  02:22:00  BASE  1.48176  336  2.058    340  -1.7  100   -1.7  0     0     973.6    NA       0.0000   9999     7910  0     0    
2019/11/17  02:23:00  BASE  1.66404  330  2.058    340  -1.8  100   -1.8  0     0     973.7    NA       0.0000   9999     7940  0     0    
2019/11/17  02:24:00  BASE  1.94628  329  2.29908  331  -1.9  100   -1.9  0     0     973.7    NA       0.0000   9999     7940  0     0    
2019/11/17  02:25:00  BASE  2.16384  329  2.42256  324  -1.9  100   -1.9  0     0     973.6    NA       0.0000   9999     7910  0     0    
2019/11/17  02:26:00  BASE  2.25204  327  2.42256  324  -2.0  100   -2.0  0     0     973.6    NA       0.0000   9999     7870  0     0    
2019/11/17  02:27:00  BASE  2.22264  326  2.42256  324  -2.0  100   -2.0  0     0     973.7    NA       0.0000   9999     7910  0     0    
2019/11/17  02:28:00  BASE  2.26968  324  2.56956  322  -2.0  100   -2.0  0     0     973.7    NA       0.0000   9999     7870  0     0    
2019/11/17  02:29:00  BASE  2.49312  323  2.75184  322  -2.0  100   -2.0  0     0     973.7    NA       0.0000   9999     7870  0     0    
2019/11/17  02:30:00  BASE  2.6754   322  2.84592  325  -2.0  100   -2.0  0     0     973.6    NA       0.0000   9999     7940  0     0    
2019/11/17  02:31:00  BASE  2.646    324  2.84592  325  -2.0  100   -2.0  0     0     973.6    NA       0.0000   9999     7940  0     0    
2019/11/17  02:32:00  BASE  2.57544  325  2.84592  325  -2.0  100   -2.0  0     0     973.6    NA       0.0000   9999     7940  0     0    
2019/11/17  02:33:00  BASE  2.65188  328  2.84592  333  -2.0  100   -2.0  0     0     973.6    NA       0.0000   9999     7970  0     0    
2019/11/17  02:34:00  BASE  2.646    330  2.84592  333  -2.0  100   -2.0  0     0     973.6    NA       0.0000   9999     7940  0     0    
2019/11/17  02:35:00  BASE  2.57544  330  3.02232  332  -2.0  100   -2.0  0     0     973.6    NA       0.0000   9999     7940  0     0    
2019/11/17  02:36:00  BASE  2.65188  332  3.02232  338  -2.0  100   -2.0  0     0     973.6    NA       0.0000   9999     7870  0     0    
2019/11/17  02:37:00  BASE  2.5578   333  3.02232  338  -2.0  100   -2.0  0     0     973.6    NA       0.0000   9999     7910  0     0    
2019/11/17  02:38:00  BASE  2.3814   328  3.02232  338  -2.0  100   -2.1  0     0     973.6    NA       0.0000   9999     7870  0     0    
2019/11/17  02:39:00  BASE  2.36376  327  3.02232  338  -2.0  100   -2.1  0     0     973.6    NA       0.0000   9999     7810  0     0    
2019/11/17  02:40:00  BASE  2.37552  328  3.02232  338  -2.0  100   -2.1  0     0     973.6    NA       0.0000   9999     7810  0     0    
2019/11/17  02:41:00  BASE  2.33436  328  3.02232  338  -2.0  100   -2.0  0     0     973.6    NA       0.0000   9999     7840  0     0    
2019/11/17  02:42:00  BASE  2.21088  329  3.02232  338  -2.0  100   -2.0  0     0     973.6    NA       0.0000   9999     7810  0     0    
2019/11/17  02:43:00  BASE  1.9992   329  3.02232  338  -2.0  100   -2.0  0     0     973.6    NA       0.0000   9999     7840  0     0    
2019/11/17  02:44:00  BASE  1.82868  327  3.02232  338  -2.0  100   -2.0  0     0     973.6    NA       0.0000   9999     7870  0     0    
2019/11/17  02:45:00  BASE  1.71696  324  3.02232  338  -2.0  100   -2.0  0     0     973.5    NA       0.0000   9999     7870  0     0    
2019/11/17  02:46:00  BASE  1.64052  322  2.56956  322  -2.0  100   -2.0  0     0     973.5    NA       0.0000   9999     7870  0     0    
2019/11/17  02:47:00  BASE  1.65816  323  2.56956  322  -2.0  100   -2.0  0     0     973.5    NA       0.0000   9999     7870  0     0    
2019/11/17  02:48:00  BASE  1.68756  324  2.51076  330  -2.1  100   -2.1  0     0     973.5    NA       0.0000   9999     7910  0     0    
2019/11/17  02:49:00  BASE  1.74636  322  2.51076  330  -2.1  100   -2.1  0     0     973.6    NA       0.0000   9999     7910  0     0    
2019/11/17  02:50:00  BASE  1.86984  317  2.42256  324  -2.1  100   -2.1  0     0     973.5    NA       0.0000   9999     7910  0     0    
2019/11/17  02:51:00  BASE  1.86396  313  2.29908  334  -2.1  100   -2.1  0     0     973.5    NA       0.0000   9999     7910  0     0    
2019/11/17  02:52:00  BASE  1.68756  315  2.058    312  -2.2  100   -2.2  0     0     973.5    NA       0.0000   9999     7910  0     0    
2019/11/17  02:53:00  BASE  1.5876   322  2.058    312  -2.2  100   -2.2  0     0     973.5    NA       0.0000   9999     7910  0     0    
2019/11/17  02:54:00  BASE  1.51704  326  2.058    312  -2.2  100   -2.2  0     0     973.5    NA       0.0000   9999     7870  12930 0    
2019/11/17  02:55:00  BASE  1.41708  327  2.058    312  -2.2  100   -2.2  0     0     973.5    NA       0.0000   9999     7870  12890 0    
2019/11/17  02:56:00  BASE  1.34652  327  2.058    312  -2.2  100   -2.2  0     0     973.5    NA       0.0000   9999     7910  12860 0    
2019/11/17  02:57:00  BASE  1.39356  327  2.058    312  -2.2  100   -2.2  0     0     973.5    NA       0.0000   9999     7910  12890 0    
2019/11/17  02:58:00  BASE  1.49352  330  2.058    312  -2.2  100   -2.2  0     0     973.5    NA       0.0000   9999     7940  12890 0    
2019/11/17  02:59:00  BASE  1.62288  331  2.058    312  -2.2  100   -2.2  0     0     973.5    NA       0.0000   9999     7970  0     0    
2019/11/17  03:00:00  BASE  1.74048  322  1.87572  319  -2.2  100   -2.2  0     0     973.5    NA       0.0000   9999     7910  0     0    
2019/11/17  03:01:00  BASE  1.72872  316  1.90512  320  -2.2  100   -2.2  0     0     973.5    NA       0.0000   9999     7910  0     0    
2019/11/17  03:02:00  BASE  1.65228  318  1.90512  320  -2.2  100   -2.2  0     0     973.5    NA       0.0000   9999     7940  0     0    
2019/11/17  03:03:00  BASE  1.62876  322  1.90512  320  -2.2  100   -2.2  0     0     973.5    NA       0.0000   9999     7940  0     0    
2019/11/17  03:04:00  BASE  1.58172  324  1.90512  320  -2.2  100   -2.2  0     0     973.5    NA       0.0000   9999     2820  7970  12930
2019/11/17  03:05:00  BASE  1.51704  323  1.90512  320  -2.2  100   -2.2  0     0     973.5    NA       0.0000   9999     12800 0     0    
2019/11/17  03:06:00  BASE  1.59348  322  1.90512  320  -2.2  100   -2.2  0     0     973.5    NA       0.0000   9999     12860 0     0    
2019/11/17  03:07:00  BASE  1.68168  321  1.90512  320  -2.2  100   -2.2  0     0     973.5    NA       0.0000   9999     7970  12860 0    
2019/11/17  03:08:00  BASE  1.72284  322  1.93452  322  -2.2  100   -2.2  0     0     973.4    NA       0.0000   9999     7870  12960 0    
2019/11/17  03:09:00  BASE  1.66404  324  1.93452  322  -2.2  100   -2.2  0     0     973.4    NA       0.0000   9999     2890  7870  0    
2019/11/17  03:10:00  BASE  1.59348  323  1.93452  322  -2.2  100   -2.2  0     0     973.4    NA       0.0000   9999     2850  7870  0    
2019/11/17  03:11:00  BASE  1.65228  322  1.93452  324  -2.2  100   -2.2  0     0     973.4    NA       0.0000   9999     7910  12930 0    
2019/11/17  03:12:00  BASE  1.8522   323  2.1756   325  -2.2  100   -2.2  0     0     973.4    NA       0.0000   9999     7940  12830 0    
2019/11/17  03:13:00  BASE  1.95804  325  2.1756   325  -2.2  100   -2.2  0     0     973.4    NA       0.0000   9999     12800 0     0    
2019/11/17  03:14:00  BASE  2.02272  325  2.1756   325  -2.2  100   -2.2  0     0     973.3    NA       0.0000   9999     12760 0     0    
2019/11/17  03:15:00  BASE  2.0874   326  2.1756   328  -2.2  100   -2.2  0     0     973.4    NA       0.0000   9999     12860 0     0    
2019/11/17  03:16:00  BASE  2.16972  328  2.51076  329  -2.2  100   -2.2  0     0     973.4    NA       0.0000   9999     12730 0     0    
2019/11/17  03:17:00  BASE  2.24616  333  2.51076  329  -2.2  100   -2.2  0     0     973.4    NA       0.0000   9999     12800 0     0    
2019/11/17  03:18:00  BASE  2.2932   342  2.51076  329  -2.2  100   -2.2  0     0     973.4    NA       0.0000   9999     12760 0     0    
2019/11/17  03:19:00  BASE  2.058    354  2.51076  329  -2.2  100   -2.2  0     0     973.3    NA       0.0000   9999     2950  7910  12800
2019/11/17  03:20:00  BASE  1.8522   3    2.51076  329  -2.2  100   -2.2  0     0     973.3    NA       0.0000   9999     2950  12800 0    
2019/11/17  03:21:00  BASE  1.8522   3    2.51076  329  -2.2  100   -2.2  0     0     973.3    NA       0.0000   9999     2950  12800 0    
2019/11/17  03:22:00  BASE  1.62876  7    2.51076  329  -2.2  100   -2.2  0     0     973.3    NA       0.0000   9999     12700 0     0    
2019/11/17  03:23:00  BASE  1.68168  8    2.51076  329  -2.1  100   -2.1  0     0     973.3    NA       0.0000   9999     2990  12660 0    
2019/11/17  03:24:00  BASE  1.9992   5    2.51076  329  -2.1  100   -2.1  0     0     973.3    NA       0.0000   9999     2990  12600 0    
2019/11/17  03:25:00  BASE  2.16972  357  2.51076  329  -2.0  100   -2.0  0     0     973.3    NA       0.0000   9999     2990  12700 0    
2019/11/17  03:26:00  BASE  2.12856  353  2.48136  353  -2.0  100   -2.0  0     0     973.3    NA       0.0000   9999     2990  12730 0    
2019/11/17  03:27:00  BASE  1.8228   1    2.48136  353  -2.0  100   -2.0  0     0     973.3    NA       0.0000   9999     2990  12660 0    
2019/11/17  03:28:00  BASE  1.5582   4    2.48136  353  -2.0  100   -2.0  0     0     973.3    NA       0.0000   9999     3020  12630 0    
2019/11/17  03:29:00  BASE  1.53468  360  2.48136  353  -2.0  100   -2.0  0     0     973.3    NA       0.0000   9999     12630 0     0    
2019/11/17  03:30:00  BASE  1.68756  356  2.48136  353  -2.0  100   -2.0  0     0     973.3    NA       0.0000   9999     12530 0     0    
2019/11/17  03:31:00  BASE  1.75224  349  2.48136  353  -2.0  100   -2.0  0     0     973.3    NA       0.0000   9999     12530 0     0    
2019/11/17  03:32:00  BASE  1.77576  341  2.48136  353  -2.0  100   -2.0  0     0     973.3    NA       0.0000   9999     12660 0     0    
2019/11/17  03:33:00  BASE  1.65816  342  2.48136  353  -1.9  100   -1.9  0     0     973.3    NA       0.0000   9999     12660 0     0    
2019/11/17  03:34:00  BASE  1.3818   342  2.48136  353  -1.9  100   -1.9  0     0     973.3    NA       0.0000   9999     12630 0     0    
2019/11/17  03:35:00  BASE  1.13484  334  2.48136  353  -1.9  100   -1.9  0     0     973.3    NA       0.0000   9999     12700 0     0    
2019/11/17  03:36:00  BASE  0.92316  318  2.0286   343  -1.9  100   -1.9  0     0     973.3    NA       0.0000   9999     12700 0     0    
2019/11/17  03:37:00  BASE  0.7644   305  2.0286   343  -1.9  100   -1.9  0     0     973.3    NA       0.0000   9999     12600 0     0    
2019/11/17  03:38:00  BASE  0.71736  308  2.0286   343  -1.9  100   -1.9  0     0     973.3    NA       0.0000   9999     12600 0     0    
2019/11/17  03:39:00  BASE  0.81144  315  2.0286   343  -1.9  100   -1.9  0     0     973.3    NA       0.0000   9999     12700 0     0    
2019/11/17  03:40:00  BASE  0.86436  316  2.0286   343  -1.9  100   -1.9  0     0     973.3    NA       0.0000   9999     12660 0     0    
2019/11/17  03:41:00  BASE  0.7938   314  2.0286   343  -1.9  100   -1.9  0     0     973.3    NA       0.0000   9999     7840  12630 0    
2019/11/17  03:42:00  BASE  0.81144  316  1.69344  340  -1.9  100   -1.9  0     0     973.3    NA       0.0000   9999     7640  12630 0    
2019/11/17  03:43:00  BASE  0.90552  315  1.45236  341  -1.9  100   -1.9  0     0     973.3    NA       0.0000   9999     7640  0     0    
2019/11/17  03:44:00  BASE  0.8526   301  1.1466   331  -1.9  100   -1.9  0     0     973.3    NA       0.0000   9999     7710  0     0    
2019/11/17  03:45:00  BASE  0.84084  281  1.029    264  -1.9  100   -1.9  0     0     973.3    NA       0.0000   9999     7610  0     0    
2019/11/17  03:46:00  BASE  0.88788  266  1.1172   265  -2.0  100   -2.0  0     0     973.4    NA       0.0000   9999     7450  0     0    
2019/11/17  03:47:00  BASE  0.86436  260  1.21128  256  -2.0  100   -2.0  0     0     973.4    NA       0.0000   9999     7480  0     0    
2019/11/17  03:48:00  BASE  1.00548  260  1.29948  257  -2.1  100   -2.1  0     0     973.4    NA       0.0000   9999     7480  0     0    
2019/11/17  03:49:00  BASE  1.15836  265  1.35828  266  -2.1  100   -2.1  0     0     973.4    NA       0.0000   9999     6040  7480  0    
2019/11/17  03:50:00  BASE  1.11132  267  1.35828  266  -2.2  100   -2.2  0     0     973.5    NA       0.0000   9999     2070  7510  0    
2019/11/17  03:51:00  BASE  1.14072  260  1.45236  252  -2.2  100   -2.2  0     0     973.5    NA       0.0000   9999     7510  0     0    
2019/11/17  03:52:00  BASE  1.33476  251  1.75224  250  -2.2  100   -2.2  0     0     973.4    NA       0.0000   9999     7510  0     0    
2019/11/17  03:53:00  BASE  1.44648  241  1.75224  250  -2.2  100   -2.2  0     0     973.4    NA       0.0000   9999     7510  0     0    
2019/11/17  03:54:00  BASE  1.45824  237  1.75224  250  -2.2  100   -2.2  0     0     973.4    NA       0.0000   9999     7510  0     0    
2019/11/17  03:55:00  BASE  1.37004  235  1.75224  250  -2.3  100   -2.3  0     0     973.4    NA       0.0000   9999     3250  7480  0    
2019/11/17  03:56:00  BASE  1.1172   232  1.75224  250  -2.3  100   -2.3  0     0     973.4    NA       0.0000   9999     7550  0     0    
2019/11/17  03:57:00  BASE  0.89964  235  1.75224  250  -2.4  100   -2.4  0     0     973.4    NA       0.0000   9999     7580  0     0    
2019/11/17  03:58:00  BASE  0.79968  239  1.75224  250  -2.5  100   -2.5  0     0     973.4    NA       0.0000   9999     7640  0     0    
2019/11/17  03:59:00  BASE  0.82908  250  1.75224  250  -2.5  100   -2.5  0     0     973.4    NA       0.0000   9999     7550  0     0    
2019/11/17  04:00:00  BASE  0.95844  259  1.75224  250  -2.5  100   -2.5  0     0     973.4    NA       0.0000   9999     7550  0     0    
2019/11/17  04:01:00  BASE  0.94668  265  1.75224  250  -2.5  100   -2.5  0     0     973.4    NA       0.0000   9999     7610  0     0    
2019/11/17  04:02:00  BASE  0.7056   269  1.63464  237  -2.4  100   -2.4  0     0     973.4    NA       0.0000   9999     7640  0     0    
2019/11/17  04:03:00  BASE  0.61152  271  1.63464  237  -2.4  100   -2.4  0     0     973.4    NA       0.0000   9999     7640  0     0    
2019/11/17  04:04:00  BASE  0.75264  279  1.35828  231  -2.4  100   -2.4  0     0     973.4    NA       0.0000   9999     6230  7680  0    
2019/11/17  04:05:00  BASE  0.51156  280  1.24068  269  -2.3  100   -2.3  0     0     973.4    NA       0.0000   9999     2030  6230  7710 
2019/11/17  04:06:00  BASE  0.3234   276  1.24068  269  -2.3  100   -2.3  0     0     973.4    NA       0.0000   9999     6400  7640  0    
2019/11/17  04:07:00  BASE  0.53508  276  1.24068  269  -2.3  100   -2.3  0     0     973.4    NA       0.0000   9999     3410  7610  0    
2019/11/17  04:08:00  BASE  0.68796  279  1.24068  269  -2.3  100   -2.3  0     0     973.4    NA       0.0000   9999     7610  0     0    
2019/11/17  04:09:00  BASE  0.77616  297  1.24068  269  -2.3  100   -2.3  0     0     973.4    NA       0.0000   9999     7580  0     0    
2019/11/17  04:10:00  BASE  0.95844  308  1.21128  304  -2.3  100   -2.3  0     0     973.4    NA       0.0000   9999     3450  7580  0    
2019/11/17  04:11:00  BASE  1.27596  306  1.57584  304  -2.2  100   -2.2  0     0     973.4    NA       0.0000   9999     7610  0     0    
2019/11/17  04:12:00  BASE  1.4406   307  1.57584  305  -2.2  100   -2.2  0     0     973.4    NA       0.0000   9999     7550  12700 0    
2019/11/17  04:13:00  BASE  1.32888  314  1.57584  305  -2.2  100   -2.2  0     0     973.4    NA       0.0000   9999     7550  12700 0    
2019/11/17  04:14:00  BASE  1.19952  326  1.57584  305  -2.2  100   -2.2  0     0     973.4    NA       0.0000   9999     7580  0     0    
2019/11/17  04:15:00  BASE  1.18188  337  1.57584  305  -2.2  100   -2.2  0     0     973.4    NA       0.0000   9999     7480  0     0    
2019/11/17  04:16:00  BASE  1.22892  339  1.57584  305  -2.3  100   -2.3  0     0     973.4    NA       0.0000   9999     3510  7480  0    
2019/11/17  04:17:00  BASE  1.19364  336  1.57584  305  -2.3  100   -2.3  0     0     973.4    NA       0.0000   9999     3510  0     0    
2019/11/17  04:18:00  BASE  0.9702   330  1.57584  305  -2.3  100   -2.3  0     0     973.4    NA       0.0000   9999     3510  5810  7610 
2019/11/17  04:19:00  BASE  0.95256  321  1.57584  305  -2.3  100   -2.3  0     0     973.4    NA       0.0000   9999     3510  5770  7610 
2019/11/17  04:20:00  BASE  1.19364  311  1.57584  305  -2.3  100   -2.3  0     0     973.4    NA       0.0000   9999     5770  7640  0    
2019/11/17  04:21:00  BASE  1.42296  308  1.63464  309  -2.3  100   -2.3  0     0     973.4    NA       0.0000   9999     3610  5740  0    
2019/11/17  04:22:00  BASE  1.54644  309  1.66404  310  -2.3  100   -2.3  0     0     973.4    NA       0.0000   9999     3610  5710  0    
2019/11/17  04:23:00  BASE  1.48764  305  1.66404  310  -2.3  100   -2.3  0     0     973.4    NA       0.0000   9999     3640  5710  7640 
2019/11/17  04:24:00  BASE  1.37592  297  1.66404  310  -2.3  100   -2.3  0     0     973.4    NA       0.0000   9999     5740  7610  0    
2019/11/17  04:25:00  BASE  1.39944  295  1.66404  310  -2.3  100   -2.3  0     0     973.4    NA       0.0000   9999     3670  5740  7680 
2019/11/17  04:26:00  BASE  1.57584  298  1.93452  300  -2.3  100   -2.3  0     0     973.4    NA       0.0000   9999     3670  5770  0    
2019/11/17  04:27:00  BASE  1.75812  299  1.93452  300  -2.3  100   -2.3  0     0     973.4    NA       0.0000   9999     3710  0     0    
2019/11/17  04:28:00  BASE  1.59348  302  1.93452  300  -2.3  100   -2.3  0     0     973.4    NA       0.0000   9999     3710  0     0    
2019/11/17  04:29:00  BASE  1.47     308  1.93452  300  -2.3  100   -2.3  0     0     973.4    NA       0.0000   9999     3740  0     0    
2019/11/17  04:30:00  BASE  1.5582   316  1.93452  300  -2.3  100   -2.3  0     0     973.4    NA       0.0000   9999     3740  5710  0    
2019/11/17  04:31:00  BASE  1.47     331  1.93452  300  -2.3  100   -2.3  0     0     973.4    NA       0.0000   9999     3840  5810  0    
2019/11/17  04:32:00  BASE  1.39944  352  1.93452  300  -2.3  100   -2.3  0     0     973.4    NA       0.0000   9999     6170  7610  0    
2019/11/17  04:33:00  BASE  1.43472  7    1.93452  300  -2.2  100   -2.2  0     0     973.4    NA       0.0000   9999     5970  7550  0    
2019/11/17  04:34:00  BASE  1.4112   9    1.93452  300  -2.2  100   -2.2  0     0     973.4    NA       0.0000   9999     7510  13260 0    
2019/11/17  04:35:00  BASE  1.323    3    1.93452  300  -2.2  100   -2.2  0     0     973.4    NA       0.0000   9999     3900  7640  13220
2019/11/17  04:36:00  BASE  1.24656  352  1.90512  298  -2.2  100   -2.2  0     0     973.4    NA       0.0000   9999     3900  0     0    
2019/11/17  04:37:00  BASE  1.176    350  1.63464  316  -2.3  100   -2.3  0     0     973.4    NA       0.0000   9999     3900  0     0    
2019/11/17  04:38:00  BASE  1.11132  3    1.63464  316  -2.3  100   -2.3  0     0     973.4    NA       0.0000   9999     3840  7710  0    
2019/11/17  04:39:00  BASE  0.98196  12   1.63464  316  -2.3  100   -2.3  0     0     973.4    NA       0.0000   9999     3870  7710  0    
2019/11/17  04:40:00  BASE  0.43512  2    1.54056  9    -2.2  100   -2.2  0     0     973.4    NA       0.0000   9999     3870  7680  0    
2019/11/17  04:41:00  BASE  0        337  1.54056  9    -2.2  100   -2.2  0     0     973.4    NA       0.0000   9999     3900  7380  13220
2019/11/17  04:42:00  BASE  0        321  1.54056  9    -2.2  100   -2.2  0     0     973.4    NA       0.0000   9999     4000  7320  13160
2019/11/17  04:43:00  BASE  0        328  1.42296  11   -2.1  100   -2.1  0     0     973.4    NA       0.0000   9999     3970  5770  7250 
2019/11/17  04:44:00  BASE  0        342  1.29948  348  -2.0  100   -2.0  0     0     973.4    NA       0.0000   9999     4000  5740  0    
2019/11/17  04:45:00  BASE  0        347  1.29948  348  -1.8  100   -1.8  0     0     973.4    NA       0.0000   9999     4000  7220  0    
2019/11/17  04:46:00  BASE  0.0294   345  1.1466   17   -1.7  100   -1.7  0     0     973.4    NA       0.0000   9999     6000  7220  0    
2019/11/17  04:47:00  BASE  0.18816  348  1.1466   17   -1.6  100   -1.6  0     0     973.4    NA       0.0000   9999     5740  0     0    
2019/11/17  04:48:00  BASE  0.16464  350  1.029    12   -1.5  100   -1.5  0     0     973.4    NA       0.0000   9999     4100  5710  6100 
2019/11/17  04:49:00  BASE  0.08232  346  0.69384  354  -1.5  100   -1.5  0     0     973.4    NA       0.0000   9999     5710  0     0    
2019/11/17  04:50:00  BASE  0.25284  358  0.75852  25   -1.6  100   -1.6  0     0     973.4    NA       0.0000   9999     5740  7280  0    
2019/11/17  04:51:00  BASE  0.63504  21   1.0878   39   -1.6  100   -1.6  0     0     973.4    NA       0.0000   9999     5840  0     0    
2019/11/17  04:52:00  BASE  1.05252  36   1.29948  45   -1.6  100   -1.6  0     0     973.4    NA       0.0000   9999     7250  0     0    
2019/11/17  04:53:00  BASE  0.77616  36   1.29948  45   -1.6  100   -1.6  0     0     973.4    NA       0.0000   9999     5970  0     0    
2019/11/17  04:54:00  BASE  0.18816  1    1.29948  45   -1.7  100   -1.7  0     0     973.4    NA       0.0000   9999     5770  0     0    
2019/11/17  04:55:00  BASE  0.19992  319  1.29948  45   -1.7  100   -1.7  0     0     973.4    NA       0.0000   9999     5810  0     0    
2019/11/17  04:56:00  BASE  0.25872  313  1.29948  45   -1.7  100   -1.7  0     0     973.4    NA       0.0000   9999     6230  0     0    
2019/11/17  04:57:00  BASE  0.0588   328  1.29948  45   -1.7  100   -1.7  0     0     973.4    NA       0.0000   9999     6430  0     0    
2019/11/17  04:58:00  BASE  0        329  1.29948  45   -1.6  100   -1.6  0     0     973.3    NA       0.0000   9999     6460  0     0    
2019/11/17  04:59:00  BASE  0        287  1.29948  45   -1.5  100   -1.5  0     0     973.3    NA       0.0000   9999     6000  0     0    
2019/11/17  05:00:00  BASE  0.29988  211  1.29948  45   -1.5  100   -1.5  0     0     973.3    NA       0.0000   9999     5840  6790  0    
2019/11/17  05:01:00  BASE  0.53508  191  1.29948  45   -1.5  100   -1.5  0     0     973.3    NA       0.0000   9999     5740  0     0    
2019/11/17  05:02:00  BASE  0.2352   175  0.87612  37   -1.4  100   -1.4  0     0     973.3    NA       0.0000   9999     5680  0     0    
2019/11/17  05:03:00  BASE  0.25872  149  0.84672  298  -1.4  100   -1.4  0     0     973.4    NA       0.0000   9999     6170  0     0    
2019/11/17  05:04:00  BASE  0.44688  134  0.84672  298  -1.4  100   -1.4  0     0     973.4    NA       0.0000   9999     5940  6630  0    
2019/11/17  05:05:00  BASE  0.49392  124  0.75852  118  -1.4  100   -1.4  0     0     973.4    NA       0.0000   9999     6760  0     0    
2019/11/17  05:06:00  BASE  0.56448  110  0.81732  97   -1.4  100   -1.4  0     0     973.4    NA       0.0000   9999     6690  0     0    
2019/11/17  05:07:00  BASE  0.63504  83   0.81732  46   -1.4  100   -1.4  0     0     973.4    NA       0.0000   9999     6760  7250  0    
2019/11/17  05:08:00  BASE  0.81144  51   0.9996   36   -1.4  100   -1.4  0     0     973.4    NA       0.0000   9999     6140  6590  0    
2019/11/17  05:09:00  BASE  0.72324  32   0.9996   36   -1.4  100   -1.4  0     0     973.4    NA       0.0000   9999     6100  6730  0    
2019/11/17  05:10:00  BASE  0.28812  26   0.9996   36   -1.3  100   -1.3  0     0     973.3    NA       0.0000   9999     6630  0     0    
2019/11/17  05:11:00  BASE  0        54   0.9996   36   -1.3  100   -1.3  0     0     973.3    NA       0.0000   9999     6460  0     0    
2019/11/17  05:12:00  BASE  0        120  0.9996   36   -1.2  100   -1.2  0     0     973.4    NA       0.0000   9999     5870  6690  0    
2019/11/17  05:13:00  BASE  0        175  0.9996   36   -1.2  100   -1.2  0     0     973.4    NA       0.0000   9999     5870  0     0    
2019/11/17  05:14:00  BASE  0.16464  241  0.9996   36   -1.1  100   -1.1  0     0     973.4    NA       0.0000   9999     5740  0     0    
2019/11/17  05:15:00  BASE  0.27636  267  0.9996   36   -1.0  100   -1.0  0     0     973.4    NA       0.0000   9999     5770  6430  0    
2019/11/17  05:16:00  BASE  0.441    310  1.1172   8    -1.0  100   -1.0  0     0     973.4    NA       0.0000   9999     5710  6400  0    
2019/11/17  05:17:00  BASE  0.85848  357  1.1172   8    -1.0  100   -1.0  0     0     973.5    NA       0.0000   9999     5510  0     0    
2019/11/17  05:18:00  BASE  0.95256  4    1.1172   8    -1.0  100   -1.0  0     0     973.5    NA       0.0000   9999     5540  6300  0    
2019/11/17  05:19:00  BASE  0.5292   0    1.1172   8    -1.1  100   -1.1  0     0     973.5    NA       0.0000   9999     5580  6070  0    
2019/11/17  05:20:00  BASE  0.10584  335  1.1172   8    -1.1  100   -1.1  0     0     973.4    NA       0.0000   9999     5510  0     0    
2019/11/17  05:21:00  BASE  0        288  1.1172   8    -1.2  100   -1.2  0     0     973.4    NA       0.0000   9999     5640  6370  0    
2019/11/17  05:22:00  BASE  0        302  1.1172   8    -1.1  100   -1.1  0     0     973.4    NA       0.0000   9999     5380  6890  0    
2019/11/17  05:23:00  BASE  0.441    20   1.1172   34   -1.1  100   -1.1  0     0     973.4    NA       0.0000   9999     5410  0     0    
2019/11/17  05:24:00  BASE  1.029    34   1.29948  34   -1.0  100   -1.0  0     0     973.4    NA       0.0000   9999     5250  0     0    
2019/11/17  05:25:00  BASE  1.13484  37   1.45236  42   -1.0  100   -1.0  0     0     973.4    NA       0.0000   9999     5120  0     0    
2019/11/17  05:26:00  BASE  1.27008  38   1.54056  38   -1.1  100   -1.1  0     0     973.4    NA       0.0000   9999     5150  7250  0    
2019/11/17  05:27:00  BASE  1.39944  37   1.54056  34   -1.2  100   -1.2  0     0     973.4    NA       0.0000   9999     5250  13320 0    
2019/11/17  05:28:00  BASE  1.28772  33   1.54056  34   -1.3  100   -1.3  0     0     973.4    NA       0.0000   9999     13290 0     0    
2019/11/17  05:29:00  BASE  1.01724  29   1.54056  34   -1.4  100   -1.4  0     0     973.3    NA       0.0000   9999     7350  13450 0    
2019/11/17  05:30:00  BASE  0.50568  26   1.54056  34   -1.4  100   -1.4  0     0     973.3    NA       0.0000   9999     7320  13420 0    
2019/11/17  05:31:00  BASE  0.11172  28   1.54056  34   -1.3  100   -1.3  0     0     973.3    NA       0.0000   9999     7350  13450 0    
2019/11/17  05:32:00  BASE  0.16464  38   1.54056  34   -1.1  100   -1.1  0     0     973.3    NA       0.0000   9999     7350  13320 0    
2019/11/17  05:33:00  BASE  0.7644   44   1.63464  46   -1.0  100   -1.0  0     0     973.3    NA       0.0000   9999     7320  13290 0    
2019/11/17  05:34:00  BASE  1.57584  42   2.1756   41   -0.9  100   -0.9  0     0     973.3    NA       0.0000   9999     13320 0     0    
2019/11/17  05:35:00  BASE  2.058    43   2.26968  43   -0.8  100   -0.8  0     0     973.4    NA       0.0000   9999     790   5250  0    
2019/11/17  05:36:00  BASE  1.83456  47   2.26968  43   -0.8  100   -0.8  0     0     973.3    NA       0.0000   9999     4990  12340 13320
2019/11/17  05:37:00  BASE  0.82908  59   2.26968  43   -0.9  100   -0.9  0     0     973.3    NA       0.0000   9999     4560  0     0    
2019/11/17  05:38:00  BASE  0.07644  83   2.26968  43   -0.9  100   -0.9  0     0     973.2    NA       0.0000   9999     4590  13520 0    
2019/11/17  05:39:00  BASE  0.22344  84   2.26968  43   -0.8  100   -0.8  0     0     973.3    NA       0.0000   9999     4560  0     0    
2019/11/17  05:40:00  BASE  0.9702   58   2.26968  43   -0.8  100   -0.8  0     0     973.3    NA       0.0000   9999     4560  0     0    
2019/11/17  05:41:00  BASE  1.81692  47   2.26968  43   -0.7  100   -0.7  0     0     973.3    NA       0.0000   9999     4630  0     0    
2019/11/17  05:42:00  BASE  2.16384  43   2.29908  40   -0.7  100   -0.7  0     0     973.3    NA       0.0000   9999     4630  0     0    
2019/11/17  05:43:00  BASE  1.95804  43   2.29908  40   -0.7  100   -0.7  0     0     973.3    NA       0.0000   9999     4760  0     0    
2019/11/17  05:44:00  BASE  1.58172  50   2.29908  40   -0.7  100   -0.7  0     0     973.3    NA       0.0000   9999     4690  0     0    
2019/11/17  05:45:00  BASE  1.31712  58   2.29908  40   -0.7  100   -0.7  0     0     973.3    NA       0.0000   9999     4920  5480  13580
2019/11/17  05:46:00  BASE  1.33476  66   2.29908  40   -0.7  100   -0.7  0     0     973.3    NA       0.0000   9999     5020  13520 0    
2019/11/17  05:47:00  BASE  1.59936  68   2.29908  40   -0.7  100   -0.7  0     0     973.3    NA       0.0000   9999     4890  13580 0    
2019/11/17  05:48:00  BASE  1.77576  62   2.29908  40   -0.6  100   -0.6  0     0     973.3    NA       0.0000   9999     4820  0     0    
2019/11/17  05:49:00  BASE  1.83456  57   2.29908  40   -0.6  100   -0.6  0     0     973.3    NA       0.0000   9999     4820  13480 0    
2019/11/17  05:50:00  BASE  1.8522   56   2.29908  40   -0.6  100   -0.6  0     0     973.3    NA       0.0000   9999     4820  13650 0    
2019/11/17  05:51:00  BASE  2.02272  62   2.69304  74   -0.6  100   -0.6  0     0     973.3    NA       0.0000   9999     4790  0     0    
2019/11/17  05:52:00  BASE  2.41668  68   2.81064  74   -0.6  100   -0.6  0     0     973.4    NA       0.0000   9999     4860  0     0    
2019/11/17  05:53:00  BASE  2.51076  67   2.81064  74   -0.6  100   -0.6  0     0     973.4    NA       0.0000   9999     4860  5510  13680
2019/11/17  05:54:00  BASE  2.22264  58   2.81064  74   -0.6  100   -0.6  0     0     973.4    NA       0.0000   9999     5090  13750 0    
2019/11/17  05:55:00  BASE  1.92864  50   2.81064  74   -0.6  100   -0.6  0     0     973.4    NA       0.0000   9999     5380  0     0    
2019/11/17  05:56:00  BASE  1.66404  48   2.81064  74   -0.6  100   -0.6  0     0     973.4    NA       0.0000   9999     4920  0     0    
2019/11/17  05:57:00  BASE  1.43472  52   2.81064  74   -0.5  100   -0.5  0     0     973.3    NA       0.0000   9999     13220 0     0    
2019/11/17  05:58:00  BASE  1.21128  55   2.81064  74   -0.5  100   -0.5  0     0     973.3    NA       0.0000   9999     13620 0     0    
2019/11/17  05:59:00  BASE  0.96432  61   2.81064  74   -0.5  100   -0.5  0     0     973.3    NA       0.0000   9999     13580 0     0    
2019/11/17  06:00:00  BASE  0.77616  75   2.81064  74   -0.4  100   -0.4  0     0     973.3    NA       0.0000   9999     13450 0     0    
2019/11/17  06:01:00  BASE  0.75264  84   2.81064  74   -0.3  100   -0.3  0     0     973.3    NA       0.0000   9999     11840 13190 0    
2019/11/17  06:02:00  BASE  0.82908  83   2.59896  67   -0.3  100   -0.3  0     0     973.3    NA       0.0000   9999     13650 0     0    
2019/11/17  06:03:00  BASE  0.81732  83   2.21088  58   -0.2  100   -0.2  0     0     973.3    NA       0.0000   9999     13710 0     0    
2019/11/17  06:04:00  BASE  0.58212  89   1.93452  48   -0.2  100   -0.2  0     0     973.3    NA       0.0000   9999     13650 0     0    
2019/11/17  06:05:00  BASE  0.19992  97   1.66404  47   -0.1  100   -0.1  1     0     973.3    NA       0.0000   9999     13750 0     0    
2019/11/17  06:06:00  BASE  0.31164  114  1.48176  54   -0.1  100   -0.1  1     0     973.3    NA       0.0000   9999     13780 0     0    
2019/11/17  06:07:00  BASE  0.31164  126  1.21128  56   -0.2  100   -0.2  1     0     973.3    NA       0.0000   9999     13680 0     0    
2019/11/17  06:08:00  BASE  0.0882   154  1.1466   88   -0.4  100   -0.4  1     0     973.3    NA       0.0000   9999     13910 0     0    
2019/11/17  06:09:00  BASE  0.0882   162  1.1466   88   -0.6  100   -0.6  1     0     973.3    NA       0.0000   9999     13780 0     0    
2019/11/17  06:10:00  BASE  0        118  1.1466   88   -0.8  100   -0.8  1     0     973.3    NA       0.0000   9999     14080 0     0    
2019/11/17  06:11:00  BASE  0.05292  64   1.1466   88   -1.0  100   -1.0  1     0     973.3    NA       0.0000   9999     14010 0     0    
2019/11/17  06:12:00  BASE  0.05292  317  1.1466   88   -1.2  100   -1.2  1     0     973.3    NA       0.0000   9999     14040 0     0    
2019/11/17  06:13:00  BASE  0.0294   303  1.029    169  -1.4  100   -1.4  1     0     973.4    NA       0.0000   9999     14140 0     0    
2019/11/17  06:14:00  BASE  0.14112  297  1.029    169  -1.4  100   -1.4  1     0     973.4    NA       0.0000   9999     14040 0     0    
2019/11/17  06:15:00  BASE  0.39984  308  1.029    169  -1.4  100   -1.4  1     0     973.4    NA       0.0000   9999     14110 0     0    
2019/11/17  06:16:00  BASE  0.58212  309  0.90552  317  -1.4  100   -1.4  1     0     973.4    NA       0.0000   9999     14140 0     0    
2019/11/17  06:17:00  BASE  0.68208  295  0.9702   283  -1.3  100   -1.3  1     0     973.4    NA       0.0000   9999     14170 0     0    
2019/11/17  06:18:00  BASE  1.10544  291  1.96392  304  -1.3  100   -1.3  1     0     973.4    NA       0.0000   9999     14140 0     0    
2019/11/17  06:19:00  BASE  1.61112  295  2.1462   308  -1.4  100   -1.4  1     0     973.4    NA       0.0000   9999     14040 0     0    
2019/11/17  06:20:00  BASE  1.66992  299  2.1462   308  -1.5  100   -1.5  1     0     973.4    NA       0.0000   9999     14040 0     0    
2019/11/17  06:21:00  BASE  1.8228   303  2.24028  305  -1.6  100   -1.6  1     0     973.4    NA       0.0000   9999     14140 0     0    
2019/11/17  06:22:00  BASE  2.12268  302  2.29908  297  -1.7  100   -1.7  1     0     973.4    NA       0.0000   9999     14110 0     0    
2019/11/17  06:23:00  BASE  2.27556  297  2.63424  301  -1.8  100   -1.8  1     0     973.4    NA       0.0000   9999     14010 0     0    
2019/11/17  06:24:00  BASE  2.21676  296  2.63424  301  -1.7  100   -1.7  2     0     973.5    NA       0.0000   9999     14040 0     0    
2019/11/17  06:25:00  BASE  1.8816   296  2.63424  301  -1.7  100   -1.7  2     0     973.4    NA       0.0000   9999     14010 0     0    
2019/11/17  06:26:00  BASE  1.6464   294  2.63424  301  -1.7  100   -1.7  2     0     973.5    NA       0.0000   9999     14110 0     0    
2019/11/17  06:27:00  BASE  1.55232  296  2.63424  301  -1.7  100   -1.7  2     0     973.5    NA       0.0000   9999     14040 0     0    
2019/11/17  06:28:00  BASE  1.617    303  2.63424  301  -1.7  100   -1.7  2     0     973.4    NA       0.0000   9999     14040 0     0    
2019/11/17  06:29:00  BASE  1.74636  307  2.63424  301  -1.7  100   -1.7  2     0     973.5    NA       0.0000   9999     14010 0     0    
2019/11/17  06:30:00  BASE  1.84044  312  2.63424  301  -1.6  100   -1.6  2     0     973.5    NA       0.0000   9999     13940 0     0    
2019/11/17  06:31:00  BASE  1.83456  315  2.63424  301  -1.7  100   -1.7  2     0     973.5    NA       0.0000   9999     13980 0     0    
2019/11/17  06:32:00  BASE  1.77576  318  2.63424  301  -1.7  100   -1.7  2     0     973.5    NA       0.0000   9999     13910 0     0    
2019/11/17  06:33:00  BASE  1.84632  320  2.26968  294  -1.8  100   -1.8  2     0     973.5    NA       0.0000   9999     13780 0     0    
2019/11/17  06:34:00  BASE  1.96392  319  2.29908  317  -1.9  100   -1.9  2     0     973.5    NA       0.0000   9999     12990 13880 0    
2019/11/17  06:35:00  BASE  2.09328  316  2.35788  310  -1.9  100   -1.9  2     0     973.5    NA       0.0000   9999     14010 0     0    
2019/11/17  06:36:00  BASE  2.07564  317  2.35788  310  -2.0  100   -2.0  3     0     973.5    NA       0.0000   9999     14110 0     0    
2019/11/17  06:37:00  BASE  1.99332  326  2.48136  335  -2.0  100   -2.0  3     0     973.5    NA       0.0000   9999     14010 0     0    
2019/11/17  06:38:00  BASE  1.97568  334  2.48136  335  -2.0  100   -2.0  3     0     973.5    NA       0.0000   9999     13850 0     0    
2019/11/17  06:39:00  BASE  1.9698   341  2.48136  335  -2.0  100   -2.0  3     0     973.5    NA       0.0000   9999     12430 13880 0    
2019/11/17  06:40:00  BASE  1.93452  355  2.48136  335  -2.0  100   -2.0  3     0     973.5    NA       0.0000   9999     12370 13650 0    
2019/11/17  06:41:00  BASE  1.83456  4    2.48136  335  -1.9  100   -1.9  3     0     973.5    NA       0.0000   9999     12340 13980 0    
2019/11/17  06:42:00  BASE  1.8816   6    2.54016  15   -1.8  100   -1.8  3     0     973.5    NA       0.0000   9999     12430 13880 0    
2019/11/17  06:43:00  BASE  2.0874   11   2.54016  15   -1.7  100   -1.7  3     0     973.5    NA       0.0000   9999     12210 13880 0    
2019/11/17  06:44:00  BASE  2.19324  9    2.54016  15   -1.6  100   -1.6  4     0     973.5    NA       0.0000   9999     6820  12240 13780
2019/11/17  06:45:00  BASE  2.27556  4    2.75184  360  -1.5  100   -1.5  4     0     973.5    NA       0.0000   9999     6760  13940 0    
2019/11/17  06:46:00  BASE  1.95804  16   2.75184  360  -1.4  100   -1.4  4     0     973.5    NA       0.0000   9999     6730  13910 0    
2019/11/17  06:47:00  BASE  1.56408  27   2.75184  360  -1.4  100   -1.4  4     0     973.5    NA       0.0000   9999     6730  13940 0    
2019/11/17  06:48:00  BASE  1.56996  23   2.75184  360  -1.3  100   -1.3  4     0     973.5    NA       0.0000   9999     6460  13980 0    
2019/11/17  06:49:00  BASE  1.48176  23   2.75184  360  -1.3  100   -1.3  4     0     973.5    NA       0.0000   9999     6460  0     0    
2019/11/17  06:50:00  BASE  1.28772  35   2.75184  360  -1.2  100   -1.2  4     0     973.5    NA       0.0000   9999     6430  14080 0    
2019/11/17  06:51:00  BASE  1.15836  45   2.75184  360  -1.1  100   -1.1  4     0     973.5    NA       0.0000   9999     6270  0     0    
2019/11/17  06:52:00  BASE  1.21716  47   2.75184  360  -1.1  100   -1.1  4     0     973.5    NA       0.0000   9999     6730  0     0    
2019/11/17  06:53:00  BASE  1.27008  45   2.75184  360  -1.0  100   -1.0  4     0     973.5    NA       0.0000   9999     6690  14310 0    
2019/11/17  06:54:00  BASE  1.15836  44   2.75184  360  -0.9  100   -0.9  5     0     973.5    NA       0.0000   9999     6430  0     0    
2019/11/17  06:55:00  BASE  1.13484  35   1.81692  23   -0.8  100   -0.8  5     0     973.5    NA       0.0000   9999     6400  0     0    
2019/11/17  06:56:00  BASE  1.25244  25   1.75224  11   -0.7  100   -0.7  5     0     973.5    NA       0.0000   9999     6370  0     0    
2019/11/17  06:57:00  BASE  1.3524   26   1.75224  11   -0.5  100   -0.5  5     0     973.5    NA       0.0000   9999     6370  0     0    
2019/11/17  06:58:00  BASE  1.45824  26   1.69344  23   -0.5  100   -0.5  5     0     973.5    NA       0.0000   9999     6330  0     0    
2019/11/17  06:59:00  BASE  1.50528  18   1.69344  23   -0.4  100   -0.4  6     0     973.5    NA       0.0000   9999     6330  0     0    
2019/11/17  07:00:00  BASE  1.3818   17   1.69344  23   -0.4  100   -0.4  6     0     973.4    NA       0.0000   9999     6530  0     0    
2019/11/17  07:01:00  BASE  1.22304  25   1.69344  23   -0.3  100   -0.3  6     0     973.4    NA       0.0000   9999     6370  0     0    
2019/11/17  07:02:00  BASE  1.22304  38   1.69344  23   -0.3  100   -0.3  6     0     973.4    NA       0.0000   9999     6370  0     0    
2019/11/17  07:03:00  BASE  1.42296  48   1.84632  60   -0.2  100   -0.2  6     0     973.4    NA       0.0000   9999     6370  0     0    
2019/11/17  07:04:00  BASE  1.69932  55   1.96392  49   -0.2  100   -0.2  6     0     973.4    NA       0.0000   9999     6400  0     0    
2019/11/17  07:05:00  BASE  1.74048  59   1.96392  49   -0.1  100   -0.1  6     0     973.4    NA       0.0000   9999     6230  0     0    
2019/11/17  07:06:00  BASE  1.58172  55   1.96392  49   -0.1  100   -0.1  6     0     973.4    NA       0.0000   9999     6430  0     0    
2019/11/17  07:07:00  BASE  1.51704  46   1.96392  49   -0.1  100   -0.1  6     0     973.4    NA       0.0000   9999     6460  0     0    
2019/11/17  07:08:00  BASE  1.65228  46   2.0874   61   -0.0  100   -0.0  6     0     973.4    NA       0.0000   9999     6430  0     0    
2019/11/17  07:09:00  BASE  1.93452  57   2.24028  68   0.0   100   0.0   6     0     973.4    NA       0.0000   9999     6270  0     0    
2019/11/17  07:10:00  BASE  1.97568  60   2.24028  68   0.1   100   0.1   6     0     973.4    NA       0.0000   9999     6070  6560  0    
2019/11/17  07:11:00  BASE  1.68168  53   2.24028  68   0.1   100   0.1   6     0     973.4    NA       0.0000   9999     6170  0     0    
2019/11/17  07:12:00  BASE  1.37592  44   2.24028  68   0.2   100   0.2   6     0     973.4    NA       0.0000   9999     6100  0     0    
2019/11/17  07:13:00  BASE  1.10544  38   2.24028  68   0.2   100   0.2   6     0     973.4    NA       0.0000   9999     5910  0     0    
2019/11/17  07:14:00  BASE  0.82908  53   2.24028  68   0.3   100   0.3   7     0     973.4    NA       0.0000   9999     5970  0     0    
2019/11/17  07:15:00  BASE  0.74676  80   2.24028  68   0.3   100   0.3   7     0     973.4    NA       0.0000   9999     6040  0     0    
2019/11/17  07:16:00  BASE  0.71148  107  2.24028  68   0.2   100   0.2   7     0     973.4    NA       0.0000   9999     5740  0     0    
2019/11/17  07:17:00  BASE  0.57624  105  2.24028  68   0.1   100   0.1   7     0     973.4    NA       0.0000   9999     5740  0     0    
2019/11/17  07:18:00  BASE  0.78204  82   2.24028  68   -0.1  100   -0.1  7     0     973.4    NA       0.0000   9999     5710  0     0    
2019/11/17  07:19:00  BASE  1.06428  65   2.0286   63   -0.2  100   -0.2  7     0     973.4    NA       0.0000   9999     5710  0     0    
2019/11/17  07:20:00  BASE  0.98196  51   1.60524  56   -0.3  100   -0.3  7     0     973.4    NA       0.0000   9999     5680  0     0    
2019/11/17  07:21:00  BASE  0.588    47   1.48176  51   -0.2  100   -0.2  7     0     973.4    NA       0.0000   9999     5680  0     0    
2019/11/17  07:22:00  BASE  0.294    67   1.24068  55   -0.1  100   -0.1  7     0     973.4    NA       0.0000   9999     5640  0     0    
2019/11/17  07:23:00  BASE  0.84672  185  1.66404  201  -0.3  100   -0.3  7     0     973.4    NA       0.0000   9999     5680  0     0    
2019/11/17  07:24:00  BASE  1.17012  196  1.66404  201  -0.6  100   -0.6  7     0     973.4    NA       0.0000   9999     5810  0     0    
2019/11/17  07:25:00  BASE  0.68208  180  1.66404  201  -0.9  100   -0.9  7     0     973.4    NA       0.0000   9999     5840  0     0    
2019/11/17  07:26:00  BASE  0.48804  174  1.66404  201  -1.2  100   -1.2  7     0     973.4    NA       0.0000   9999     5810  0     0    
2019/11/17  07:27:00  BASE  1.06428  186  1.87572  192  -1.5  100   -1.5  7     0     973.4    NA       0.0000   9999     5770  0     0    
2019/11/17  07:28:00  BASE  1.82868  191  2.35788  202  -1.6  100   -1.6  8     0     973.4    NA       0.0000   9999     5710  0     0    
2019/11/17  07:29:00  BASE  1.9698   201  2.35788  202  -1.6  100   -1.6  8     0     973.4    NA       0.0000   9999     5540  0     0    
2019/11/17  07:30:00  BASE  2.07564  211  2.54016  213  -1.7  100   -1.7  8     0     973.4    NA       0.0000   9999     5680  0     0    
2019/11/17  07:31:00  BASE  2.15796  211  2.54016  213  -1.8  100   -1.8  8     0     973.4    NA       0.0000   9999     5770  0     0    
2019/11/17  07:32:00  BASE  1.84632  208  2.54016  213  -1.8  100   -1.8  8     0     973.4    NA       0.0000   9999     5640  0     0    
2019/11/17  07:33:00  BASE  1.66992  199  2.54016  213  -1.9  100   -1.9  8     0     973.4    NA       0.0000   9999     5640  0     0    
2019/11/17  07:34:00  BASE  1.72872  187  2.54016  213  -1.9  100   -1.9  8     0     973.4    NA       0.0000   9999     5610  0     0    
2019/11/17  07:35:00  BASE  1.78164  184  2.54016  213  -1.9  100   -1.9  7     0     973.4    NA       0.0000   9999     5610  0     0    
2019/11/17  07:36:00  BASE  1.81692  188  2.54016  213  -1.9  100   -1.9  7     0     973.4    NA       0.0000   9999     5640  0     0    
2019/11/17  07:37:00  BASE  2.04036  191  2.54016  192  -1.9  100   -1.9  8     0     973.4    NA       0.0000   9999     5580  0     0    
2019/11/17  07:38:00  BASE  2.3814   192  2.66364  194  -1.9  100   -1.9  8     0     973.4    NA       0.0000   9999     5610  0     0    
2019/11/17  07:39:00  BASE  2.42256  187  2.66364  194  -1.9  100   -1.9  8     0     973.4    NA       0.0000   9999     5640  0     0    
2019/11/17  07:40:00  BASE  2.18736  174  2.66364  194  -1.9  100   -1.9  8     0     973.4    NA       0.0000   9999     5610  0     0    
2019/11/17  07:41:00  BASE  2.12856  162  2.66364  194  -1.9  100   -1.9  8     0     973.4    NA       0.0000   9999     5580  0     0    
2019/11/17  07:42:00  BASE  2.04036  154  2.66364  194  -2.0  100   -2.0  9     0     973.4    NA       0.0000   9999     5540  0     0    
2019/11/17  07:43:00  BASE  1.8228   160  2.66364  194  -2.0  100   -2.0  10    0     973.4    NA       0.0000   9999     5580  0     0    
2019/11/17  07:44:00  BASE  1.65816  172  2.66364  194  -2.0  100   -2.0  10    0     973.4    NA       0.0000   9999     5580  0     0    
2019/11/17  07:45:00  BASE  1.59348  177  2.66364  194  -2.0  100   -2.0  12    0     973.5    NA       0.0000   9999     5640  0     0    
2019/11/17  07:46:00  BASE  1.57584  180  2.66364  194  -1.9  100   -1.9  13    0     973.5    NA       0.0000   9999     5580  0     0    
2019/11/17  07:47:00  BASE  1.28184  192  2.66364  194  -1.9  100   -1.9  13    0     973.5    NA       0.0000   9999     5540  0     0    
2019/11/17  07:48:00  BASE  0.98784  210  2.48136  177  -1.9  100   -1.9  14    0     973.5    NA       0.0000   9999     5480  0     0    
2019/11/17  07:49:00  BASE  1.029    215  2.38728  154  -1.9  100   -1.9  15    0     973.5    NA       0.0000   9999     5580  0     0    
2019/11/17  07:50:00  BASE  1.38768  201  2.38728  154  -1.9  100   -1.9  16    0     973.5    NA       0.0000   9999     5450  0     0    
2019/11/17  07:51:00  BASE  1.84044  190  2.24028  191  -1.9  100   -1.9  17    0     973.5    NA       0.0000   9999     5480  0     0    
2019/11/17  07:52:00  BASE  1.91688  190  2.24028  191  -1.9  100   -1.9  18    0     973.5    NA       0.0000   9999     5410  0     0    
2019/11/17  07:53:00  BASE  1.60524  199  2.24028  191  -1.9  100   -1.9  20    0     973.5    NA       0.0000   9999     5940  0     0    
2019/11/17  07:54:00  BASE  1.19952  215  2.24028  191  -1.9  100   -1.9  20    0     973.5    NA       0.0000   9999     5840  0     0    
2019/11/17  07:55:00  BASE  0.88788  225  2.24028  191  -1.9  100   -1.9  21    0     973.6    NA       0.0000   9999     5540  0     0    
2019/11/17  07:56:00  BASE  0.88788  223  2.24028  191  -1.9  100   -1.9  21    0     973.5    NA       0.0000   9999     5410  0     0    
2019/11/17  07:57:00  BASE  1.10544  208  2.24028  191  -1.9  100   -1.9  21    0     973.5    NA       0.0000   9999     5350  0     0    
2019/11/17  07:58:00  BASE  1.31124  191  2.24028  191  -1.9  100   -1.9  21    0     973.5    NA       0.0000   9999     5220  0     0    
2019/11/17  07:59:00  BASE  1.56996  182  2.24028  191  -1.9  100   -1.9  21    0     973.5    NA       0.0000   9999     5250  0     0    
2019/11/17  08:00:00  BASE  1.77576  175  2.24028  191  -1.8  100   -1.8  21    0     973.5    NA       0.0000   9999     5090  0     0    
2019/11/17  08:01:00  BASE  1.62876  165  1.96392  194  -1.8  100   -1.8  22    0     973.5    NA       0.0000   9999     5250  0     0    
2019/11/17  08:02:00  BASE  1.1172   162  1.93452  170  -1.8  100   -1.8  23    0     973.5    NA       0.0000   9999     5220  0     0    
2019/11/17  08:03:00  BASE  0.43512  192  1.93452  170  -1.8  100   -1.8  23    0     973.5    NA       0.0000   9999     5450  5940  0    
2019/11/17  08:04:00  BASE  0.39396  243  1.93452  170  -1.8  100   -1.8  23    0     973.5    NA       0.0000   9999     5410  5970  0    
2019/11/17  08:05:00  BASE  0.52332  245  1.93452  170  -1.8  100   -1.8  24    0     973.5    NA       0.0000   9999     5480  0     0    
2019/11/17  08:06:00  BASE  0.39984  205  1.93452  170  -1.8  100   -1.8  24    0     973.5    NA       0.0000   9999     5480  0     0    
2019/11/17  08:07:00  BASE  0.51744  159  1.93452  170  -1.8  100   -1.8  25    0     973.5    NA       0.0000   9999     5450  0     0    
2019/11/17  08:08:00  BASE  0.78204  142  1.93452  170  -1.8  100   -1.8  26    0     973.5    NA       0.0000   9999     6070  0     0    
2019/11/17  08:09:00  BASE  1.16424  152  1.93452  170  -1.8  100   -1.8  27    0     973.5    NA       0.0000   9999     6170  0     0    
2019/11/17  08:10:00  BASE  1.39356  154  1.69344  156  -1.8  100   -1.8  28    0     973.5    NA       0.0000   9999     6140  0     0    
2019/11/17  08:11:00  BASE  1.2642   152  1.69344  156  -1.8  100   -1.8  28    0     973.5    NA       0.0000   9999     5580  0     0    
2019/11/17  08:12:00  BASE  0.62328  138  1.69344  156  -1.7  100   -1.7  29    0     973.5    NA       0.0000   9999     5540  0     0    
2019/11/17  08:13:00  BASE  0.11172  105  1.69344  156  -1.7  100   -1.7  29    0     973.5    NA       0.0000   9999     5940  0     0    
2019/11/17  08:14:00  BASE  0.48216  23   1.69344  156  -1.7  100   -1.7  30    0     973.5    NA       0.0000   9999     6000  0     0    
2019/11/17  08:15:00  BASE  1.25832  336  1.81692  340  -1.7  100   -1.7  31    0     973.5    NA       0.0000   9999     6200  0     0    
2019/11/17  08:16:00  BASE  1.32888  330  1.81692  340  -1.7  100   -1.7  31    0     973.5    NA       0.0000   9999     6230  0     0    
2019/11/17  08:17:00  BASE  0.9408   308  1.81692  340  -1.7  100   -1.7  31    0     973.5    NA       0.0000   9999     6200  0     0    
2019/11/17  08:18:00  BASE  0.55272  272  1.81692  340  -1.6  100   -1.6  31    0     973.5    NA       0.0000   9999     5150  6170  0    
2019/11/17  08:19:00  BASE  0.16464  203  1.81692  340  -1.6  100   -1.6  32    0     973.5    NA       0.0000   9999     4950  5940  0    
2019/11/17  08:20:00  BASE  0.25284  120  1.81692  340  -1.5  100   -1.5  32    0     973.5    NA       0.0000   9999     5050  5870  0    
2019/11/17  08:21:00  BASE  0.25284  76   1.81692  340  -1.5  100   -1.5  32    0     973.5    NA       0.0000   9999     5740  6200  0    
2019/11/17  08:22:00  BASE  0.08232  55   1.81692  340  -1.4  100   -1.4  33    0     973.5    NA       0.0000   9999     5810  0     0    
2019/11/17  08:23:00  BASE  0.08232  25   1.81692  340  -1.3  100   -1.3  33    0     973.5    NA       0.0000   9999     5740  0     0    
2019/11/17  08:24:00  BASE  0.1176   290  1.81692  340  -1.2  100   -1.2  34    0     973.5    NA       0.0000   9999     3540  6070  0    
2019/11/17  08:25:00  BASE  0.28224  262  1.35828  339  -1.2  100   -1.2  34    0     973.5    NA       0.0000   9999     3450  5970  0    
2019/11/17  08:26:00  BASE  0.21756  301  0.90552  275  -1.1  100   -1.1  35    0     973.5    NA       0.0000   9999     5640  0     0    
2019/11/17  08:27:00  BASE  0.8526   2    1.90512  36   -1.1  100   -1.1  34    0     973.6    NA       0.0000   9999     5580  0     0    
2019/11/17  08:28:00  BASE  1.51116  26   1.90512  36   -1.1  100   -1.1  34    0     973.6    NA       0.0000   9999     4860  5740  0    
2019/11/17  08:29:00  BASE  0.84672  34   1.90512  36   -1.2  100   -1.2  35    0     973.5    NA       0.0000   9999     4820  0     0    
2019/11/17  08:30:00  BASE  0.49392  326  1.90512  36   -1.3  100   -1.3  35    0     973.5    NA       0.0000   9999     4820  0     0    
2019/11/17  08:31:00  BASE  0.80556  248  1.90512  36   -1.3  100   -1.3  35    0     973.5    NA       0.0000   9999     4860  0     0    
2019/11/17  08:32:00  BASE  0.54096  246  1.90512  36   -1.3  100   -1.3  36    0     973.5    NA       0.0000   9999     4860  0     0    
2019/11/17  08:33:00  BASE  0.14112  279  1.90512  36   -1.2  100   -1.2  37    0     973.5    NA       0.0000   9999     4920  0     0    
2019/11/17  08:34:00  BASE  0.44688  4    1.90512  36   -1.2  100   -1.2  38    0     973.5    NA       0.0000   9999     6000  0     0    
2019/11/17  08:35:00  BASE  0.69384  20   1.90512  36   -1.2  100   -1.2  39    0     973.5    NA       0.0000   9999     5540  6040  0    
2019/11/17  08:36:00  BASE  0.66444  34   1.90512  36   -1.2  100   -1.2  41    0     973.5    NA       0.0000   9999     6070  0     0    
2019/11/17  08:37:00  BASE  0.65268  49   1.66404  20   -1.2  100   -1.2  42    0     973.5    NA       0.0000   9999     5090  6070  0    
2019/11/17  08:38:00  BASE  0.43512  60   1.029    68   -1.2  100   -1.2  44    0     973.5    NA       0.0000   9999     3380  4760  0    
2019/11/17  08:39:00  BASE  0.13524  73   1.029    68   -1.2  100   -1.2  45    0     973.4    NA       0.0000   9999     4790  0     0    
2019/11/17  08:40:00  BASE  0        151  1.029    68   -1.2  100   -1.2  46    0     973.4    NA       0.0000   9999     4890  5940  0    
2019/11/17  08:41:00  BASE  0        193  1.029    68   -1.1  100   -1.1  48    0     973.4    NA       0.0000   9999     5970  0     0    
2019/11/17  08:42:00  BASE  0        173  1.029    68   -1.1  100   -1.1  49    0     973.4    NA       0.0000   9999     6000  0     0    
2019/11/17  08:43:00  BASE  0.05292  120  1.029    68   -1.0  100   -1.0  52    0     973.4    NA       0.0000   9999     6000  0     0    
2019/11/17  08:44:00  BASE  0.46452  75   1.029    68   -0.9  100   -0.9  55    0     973.4    NA       0.0000   9999     5910  0     0    
2019/11/17  08:45:00  BASE  0.87024  66   1.0878   71   -0.9  100   -0.9  58    0     973.4    NA       0.0000   9999     6070  0     0    
2019/11/17  08:46:00  BASE  0.54096  67   1.0878   71   -0.9  100   -0.9  62    0     973.4    NA       0.0000   9999     6100  0     0    
2019/11/17  08:47:00  BASE  0.07644  72   1.0878   71   -0.9  100   -0.9  66    0     973.3    NA       0.0000   9999     6100  0     0    
2019/11/17  08:48:00  BASE  0        81   1.0878   71   -0.9  100   -0.9  69    0     973.3    NA       0.0000   9999     6040  0     0    
2019/11/17  08:49:00  BASE  0        249  1.0878   71   -0.8  100   -0.8  70    0     973.3    NA       0.0000   9999     6140  0     0    
2019/11/17  08:50:00  BASE  0        258  1.0878   71   -0.8  100   -0.8  68    0     973.3    NA       0.0000   9999     6070  0     0    
2019/11/17  08:51:00  BASE  0.12348  299  1.0878   71   -0.7  100   -0.7  68    0     973.4    NA       0.0000   9999     6040  0     0    
2019/11/17  08:52:00  BASE  0.58212  25   1.0878   71   -0.7  100   -0.7  70    0     973.4    NA       0.0000   9999     6000  0     0    
2019/11/17  08:53:00  BASE  0.9702   29   1.1172   15   -0.7  100   -0.7  72    0     973.4    NA       0.0000   9999     6040  0     0    
2019/11/17  08:54:00  BASE  1.12896  20   1.29948  17   -0.7  100   -0.7  74    0     973.4    NA       0.0000   9999     6000  0     0    
2019/11/17  08:55:00  BASE  1.19364  12   1.29948  17   -0.8  100   -0.8  76    0     973.4    NA       0.0000   9999     6040  0     0    
2019/11/17  08:56:00  BASE  0.9702   355  1.29948  17   -0.8  100   -0.8  78    0     973.4    NA       0.0000   9999     5970  0     0    
2019/11/17  08:57:00  BASE  0.62916  346  1.29948  17   -0.9  100   -0.9  80    0     973.4    NA       0.0000   9999     5940  0     0    
2019/11/17  08:58:00  BASE  0.39984  1    1.29948  17   -0.9  100   -0.9  81    0     973.4    NA       0.0000   9999     5870  0     0    
2019/11/17  08:59:00  BASE  0.22344  16   1.29948  17   -1.0  100   -1.0  83    0     973.4    NA       0.0000   9999     5870  0     0    
2019/11/17  09:00:00  BASE  0.05292  20   1.29948  17   -1.0  100   -1.0  86    0     973.4    NA       0.0000   9999     5050  5680  0    
2019/11/17  09:01:00  BASE  0        24   1.29948  17   -1.0  100   -1.0  88    0     973.4    NA       0.0000   9999     5180  0     0    
2019/11/17  09:02:00  BASE  0        24   1.29948  17   -1.0  100   -1.0  90    0     973.4    NA       0.0000   9999     4860  0     0    
2019/11/17  09:03:00  BASE  0        5    1.29948  17   -0.9  100   -0.9  91    0     973.4    NA       0.0000   9999     3310  4920  0    
2019/11/17  09:04:00  BASE  0        209  1.24068  12   -0.9  100   -0.9  93    0     973.4    NA       0.0000   9999     5510  0     0    
2019/11/17  09:05:00  BASE  0        180  0.90552  353  -0.9  100   -0.9  94    0     973.3    NA       0.0000   9999     5180  0     0    
2019/11/17  09:06:00  BASE  0        140  0.72324  337  -0.9  100   -0.9  94    0     973.3    NA       0.0000   9999     5050  0     0    
2019/11/17  09:07:00  BASE  0        118  0.69384  12   -0.9  100   -0.9  95    0     973.3    NA       0.0000   9999     5050  0     0    
2019/11/17  09:08:00  BASE  0        118  0.66444  21   -0.9  100   -0.9  96    0     973.3    NA       0.0000   9999     5150  5870  0    
2019/11/17  09:09:00  BASE  0        140  0        M    -0.9  100   -0.9  95    0     973.3    NA       0.0000   9999     3310  5180  0    
2019/11/17  09:10:00  BASE  0        150  0        M    -0.9  100   -0.9  91    0     973.3    NA       0.0000   9999     5180  0     0    
2019/11/17  09:11:00  BASE  0        131  0        M    -0.9  100   -0.9  86    0     973.3    NA       0.0000   9999     5180  0     0    
2019/11/17  09:12:00  BASE  0        105  0        M    -0.9  100   -0.9  81    0     973.3    NA       0.0000   9999     5640  0     0    
2019/11/17  09:13:00  BASE  0        61   0        M    -0.8  100   -0.8  76    0     973.3    NA       0.0000   9999     5450  0     0    
2019/11/17  09:14:00  BASE  0.15876  27   0.63504  19   -0.7  100   -0.7  73    0     973.3    NA       0.0000   9999     5350  0     0    
2019/11/17  09:15:00  BASE  0.441    22   0.90552  38   -0.7  100   -0.7  72    0     973.2    NA       0.0000   9999     5050  0     0    
2019/11/17  09:16:00  BASE  0.72912  32   0.9702   38   -0.6  100   -0.6  71    0     973.2    NA       0.0000   9999     5120  0     0    
2019/11/17  09:17:00  BASE  0.8232   38   0.9702   38   -0.6  100   -0.6  72    0     973.3    NA       0.0000   9999     5150  0     0    
2019/11/17  09:18:00  BASE  0.77028  38   0.9702   38   -0.6  100   -0.6  73    0     973.3    NA       0.0000   9999     5250  0     0    
2019/11/17  09:19:00  BASE  0.78792  40   0.9702   38   -0.6  100   -0.6  76    0     973.3    NA       0.0000   9999     3280  5320  0    
2019/11/17  09:20:00  BASE  0.5586   39   0.9702   38   -0.7  100   -0.7  79    0     973.2    NA       0.0000   9999     5090  0     0    
2019/11/17  09:21:00  BASE  0.15876  34   0.9702   38   -0.7  100   -0.7  82    0     973.2    NA       0.0000   9999     5090  0     0    
2019/11/17  09:22:00  BASE  0        25   0.9702   38   -0.8  100   -0.8  85    0     973.2    NA       0.0000   9999     4990  0     0    
2019/11/17  09:23:00  BASE  0        18   0.9702   38   -0.8  100   -0.8  88    0     973.2    NA       0.0000   9999     4760  0     0    
2019/11/17  09:24:00  BASE  0        12   0.9702   38   -0.7  100   -0.7  92    0     973.2    NA       0.0000   9999     4590  0     0    
2019/11/17  09:25:00  BASE  0        12   0.9702   38   -0.7  100   -0.7  97    0     973.2    NA       0.0000   9999     4460  0     0    
2019/11/17  09:26:00  BASE  0        26   0.90552  39   -0.6  100   -0.6  101   0     973.2    NA       0.0000   9999     4490  5450  0    
2019/11/17  09:27:00  BASE  0        29   0.90552  39   -0.6  100   -0.6  104   0     973.0    NA       0.0000   9999     4490  0     0    
2019/11/17  09:28:00  BASE  0.02352  11   0.90552  39   -0.5  100   -0.5  104   0     973.0    NA       0.0000   9999     4330  0     0    
2019/11/17  09:29:00  BASE  0.15288  357  0.69384  39   -0.4  100   -0.4  102   0     973.0    NA       0.0000   9999     4230  0     0    
2019/11/17  09:30:00  BASE  0.12936  350  0.66444  360  -0.4  100   -0.4  97    0     973.0    NA       0.0000   9999     4230  0     0    
2019/11/17  09:31:00  BASE  0        342  0.66444  360  -0.3  100   -0.3  89    0     973.0    NA       0.0000   9999     4170  0     0    
2019/11/17  09:32:00  BASE  0        340  0.66444  360  -0.3  100   -0.3  83    0     973.0    NA       0.0000   9999     3220  0     0    
2019/11/17  09:33:00  BASE  0        347  0.66444  360  -0.3  100   -0.3  79    0     973.0    NA       0.0000   9999     4360  0     0    
2019/11/17  09:34:00  BASE  0.35868  10   1.0584   23   -0.2  100   -0.2  75    0     973.0    NA       0.0000   9999     4270  0     0    
2019/11/17  09:35:00  BASE  0.8526   21   1.0584   13   -0.2  100   -0.2  71    0     973.0    NA       0.0000   9999     3310  4040  0    
2019/11/17  09:36:00  BASE  0.93492  9    1.0584   13   -0.2  100   -0.2  70    0     973.0    NA       0.0000   9999     3250  0     0    
2019/11/17  09:37:00  BASE  0.85848  359  1.0584   13   -0.2  100   -0.2  69    0     973.0    NA       0.0000   9999     3310  0     0    
2019/11/17  09:38:00  BASE  0.5292   359  1.0584   13   -0.3  100   -0.3  70    0     973.0    NA       0.0000   9999     3250  3870  0    
2019/11/17  09:39:00  BASE  0.11172  6    1.0584   13   -0.3  100   -0.3  71    0     972.9    NA       0.0000   9999     3380  4040  0    
2019/11/17  09:40:00  BASE  0        8    1.0584   13   -0.3  100   -0.3  73    0     972.9    NA       0.0000   9999     3280  4360  0    
2019/11/17  09:41:00  BASE  0        4    1.0584   13   -0.3  100   -0.3  74    0     972.9    NA       0.0000   9999     3250  4330  0    
2019/11/17  09:42:00  BASE  0        354  1.0584   13   -0.3  100   -0.3  76    0     972.9    NA       0.0000   9999     3280  0     0    
2019/11/17  09:43:00  BASE  0.19404  346  1.0584   13   -0.3  100   -0.3  78    0     972.9    NA       0.0000   9999     3580  0     0    
2019/11/17  09:44:00  BASE  0.58212  340  1.0584   13   -0.2  100   -0.2  79    0     972.9    NA       0.0000   9999     3310  0     0    
2019/11/17  09:45:00  BASE  0.8526   338  1.029    352  -0.2  100   -0.2  81    0     972.9    NA       0.0000   9999     4040  0     0    
2019/11/17  09:46:00  BASE  0.95844  345  1.0878   353  -0.1  100   -0.1  82    0     972.9    NA       0.0000   9999     3410  0     0    
2019/11/17  09:47:00  BASE  0.96432  345  1.0878   353  -0.1  100   -0.1  82    0     972.9    NA       0.0000   9999     4070  0     0    
2019/11/17  09:48:00  BASE  1.00548  333  1.21128  324  -0.1  100   -0.1  83    0     972.9    NA       0.0000   7000     3580  0     0    
2019/11/17  09:49:00  BASE  1.21716  325  1.42296  323  -0.1  100   -0.1  83    0     972.9    NA       0.0000   UP       9999  3480  0    
2019/11/17  09:50:00  BASE  1.28184  322  1.42296  323  -0.1  100   -0.1  84    0     972.9    NA       0.0000   UP       9999  3580  0    
2019/11/17  09:51:00  BASE  0.93492  311  1.42296  323  -0.1  100   -0.1  85    0     972.8    NA       0.0000   UP       9999  3710  0    
2019/11/17  09:52:00  BASE  0.35868  297  1.42296  323  -0.2  100   -0.2  87    0     972.8    NA       0.0000   UP       9999  3710  0    
2019/11/17  09:53:00  BASE  0.0294   290  1.42296  323  -0.2  100   -0.2  89    0     972.8    NA       0.0000   UP       9999  3810  0    
2019/11/17  09:54:00  BASE  0        291  1.42296  323  -0.1  100   -0.1  91    0     972.8    NA       0.0000   UP       9000  3770  4460 
2019/11/17  09:55:00  BASE  0.07644  310  1.42296  323  -0.1  100   -0.1  93    0     972.8    NA       0.0000   UP       9999  3810  23200
2019/11/17  09:56:00  BASE  0.47628  329  1.42296  323  -0.1  100   -0.1  95    0     972.8    NA       0.0000   UP       9000  3740  0    
2019/11/17  09:57:01  BASE  0.86436  326  1.42296  323  -0.0  100   -0.0  96    0     972.8    NA       0.0000   UP       9999  3710  0    
2019/11/17  09:58:00  BASE  0.87024  318  1.42296  323  0.0   100   0.0   98    0     972.8    NA       0.0000   UP       9999  3740  0    
2019/11/17  09:59:00  BASE  0.50568  313  1.35828  323  0.0   100   0.0   99    0     972.8    NA       0.0000   UP       9999  3770  0    
2019/11/17  10:00:00  BASE  0.10584  312  0.9702   321  0.0   100   0.0   99    0     972.8    NA       0.0000   UP       9999  3810  0    
2019/11/17  10:01:00  BASE  0        313  0.9702   321  0.0   100   0.0   100   0     972.8    NA       0.0000   UP       9999  3840  0    
2019/11/17  10:02:00  BASE  0        332  0.9702   321  0.0   100   0.0   100   0     972.8    NA       0.0000   UP       9999  3870  0    
2019/11/17  10:03:00  BASE  0.05292  2    0.9702   321  0.0   100   0.0   102   0     972.9    NA       0.0000   UP       9999  3900  0    
2019/11/17  10:04:00  BASE  0.27636  13   0.9702   321  0.0   100   0.0   103   0     972.9    NA       0.0000   UP       9999  3940  0    
2019/11/17  10:05:01  BASE  0.22344  16   0.9702   321  -0.0  100   -0.0  105   0     972.9    NA       0.0000   UP       9999  3870  0    
2019/11/17  10:06:01  BASE  0        12   0.9702   321  -0.1  100   -0.1  107   0     972.9    NA       0.0000   UP       9999  3770  0    
2019/11/17  10:07:01  BASE  0        1    0.90552  318  -0.1  100   -0.1  109   0     972.9    NA       0.0000   UP       9999  3770  0    
2019/11/17  10:08:01  BASE  0        354  0.75852  8    -0.2  100   -0.2  110   0     972.9    NA       0.0000   UP       9999  3810  0    
2019/11/17  10:09:01  BASE  0        354  0.75852  8    -0.1  100   -0.1  112   0     972.9    NA       0.0000   9999     3740  0     0    
2019/11/17  10:10:01  BASE  0        354  0.75852  8    -0.1  100   -0.1  113   0     972.9    NA       0.0000   9999     3610  0     0    
2019/11/17  10:11:01  BASE  0        30   0.75852  8    -0.1  100   -0.1  114   0     972.9    NA       0.0000   9999     3770  0     0    
2019/11/17  10:12:01  BASE  0        116  0.75852  8    -0.0  100   -0.0  116   0     972.9    NA       0.0000   9999     3740  0     0    
2019/11/17  10:13:01  BASE  0        121  0.75852  8    0.0   100   0.0   119   0     972.9    NA       0.0000   9999     3450  0     0    
2019/11/17  10:14:01  BASE  0        133  0        M    0.1   100   0.1   123   0     972.9    NA       0.0000   9999     3410  20440 0    
2019/11/17  10:15:01  BASE  0        151  0        M    0.1   100   0.1   130   0     972.9    NA       0.0000   9999     3510  0     0    
2019/11/17  10:16:01  BASE  0        150  0        M    0.1   100   0.1   138   0     972.9    NA       0.0000   9999     3770  0     0    
2019/11/17  10:17:01  BASE  0.18816  138  0.72324  134  0.1   100   0.1   146   0     972.8    NA       0.0000   9999     3220  3940  0    
2019/11/17  10:18:01  BASE  0.54684  138  0.75852  136  0.1   100   0.1   149   0     972.8    NA       0.0000   9999     3150  3900  0    
2019/11/17  10:19:01  BASE  0.96432  151  1.63464  165  0.1   100   0.1   147   0     972.8    NA       0.0000   9999     3220  3870  0    
2019/11/17  10:20:01  BASE  1.22892  161  1.63464  165  0.1   100   0.1   143   0     972.8    NA       0.0000   9999     3220  3940  0    
2019/11/17  10:21:01  BASE  0.72912  157  1.63464  165  0.0   100   0.0   138   0     972.8    NA       0.0000   9999     3080  0     0    
2019/11/17  10:22:01  BASE  0.1176   150  1.63464  165  -0.0  100   -0.0  134   0     972.8    NA       0.0000   9999     3080  0     0    
2019/11/17  10:23:01  BASE  0        145  1.63464  165  -0.1  100   -0.1  130   0     972.8    NA       0.0000   9999     3150  0     0    
2019/11/17  10:24:01  BASE  0        146  1.63464  165  -0.1  100   -0.1  127   0     972.8    NA       0.0000   9999     3180  0     0    
2019/11/17  10:25:01  BASE  0        146  1.63464  165  -0.1  100   -0.1  124   0     972.8    NA       0.0000   9999     3180  0     0    
2019/11/17  10:26:01  BASE  0        120  1.63464  165  -0.1  100   -0.1  122   0     972.8    NA       0.0000   9999     3120  0     0    
2019/11/17  10:27:01  BASE  0        80   1.63464  165  -0.1  100   -0.1  120   0     972.9    NA       0.0000   9999     3220  0     0    
2019/11/17  10:28:01  BASE  0        28   1.63464  165  -0.0  100   -0.0  120   0     972.8    NA       0.0000   9999     3250  0     0    
2019/11/17  10:29:01  BASE  0        335  1.48176  150  0.0   100   0.0   119   0     972.8    NA       0.0000   9999     3250  0     0    
2019/11/17  10:30:01  BASE  0        312  0.69384  158  0.1   100   0.1   118   0     972.8    NA       0.0000   9999     3080  0     0    
2019/11/17  10:31:01  BASE  0        308  0        M    0.1   100   0.1   117   0     972.8    NA       0.0000   9999     3080  0     0    
2019/11/17  10:32:01  BASE  0        359  0        M    0.2   100   0.2   116   0     972.8    NA       0.0000   9999     3020  0     0    
2019/11/17  10:33:01  BASE  0        38   0        M    0.2   100   0.2   115   0     972.8    NA       0.0000   9999     3020  0     0    
2019/11/17  10:34:01  BASE  0        30   0        M    0.2   100   0.2   114   0     972.7    NA       0.0000   9999     3120  0     0    
2019/11/17  10:35:01  BASE  0        27   0        M    0.3   100   0.3   113   0     972.7    NA       0.0000   9999     3080  0     0    
2019/11/17  10:36:01  BASE  0        36   0        M    0.3   100   0.3   113   0     972.7    NA       0.0000   9999     3120  0     0    
2019/11/17  10:37:01  BASE  0        97   0        M    0.3   100   0.3   112   0     972.8    NA       0.0000   9999     3120  3870  0    
2019/11/17  10:38:01  BASE  0        146  0        M    0.4   100   0.4   110   0     972.8    NA       0.0000   9999     3250  3870  0    
2019/11/17  10:39:01  BASE  0        153  0        M    0.4   100   0.4   108   0     972.8    NA       0.0000   9999     3310  0     0    
2019/11/17  10:40:01  BASE  0        149  0        M    0.4   100   0.4   106   0     972.8    NA       0.0000   9999     3310  0     0    
2019/11/17  10:41:01  BASE  0        133  0        M    0.4   100   0.4   104   0     972.8    NA       0.0000   9999     3220  0     0    
2019/11/17  10:42:01  BASE  0        89   0        M    0.4   100   0.4   103   0     972.8    NA       0.0000   9999     3280  0     0    
2019/11/17  10:43:01  BASE  0        38   0        M    0.3   100   0.3   102   0     972.8    NA       0.0000   9999     3310  0     0    
2019/11/17  10:44:01  BASE  0.27636  13   0.84672  15   0.4   100   0.4   101   0     972.9    NA       0.0000   9999     3350  0     0    
2019/11/17  10:45:01  BASE  0.50568  16   0.84672  15   0.4   100   0.4   100   0     972.9    NA       0.0000   9999     3380  0     0    
2019/11/17  10:46:01  BASE  0.22932  22   0.84672  15   0.4   100   0.4   100   0     972.9    NA       0.0000   9999     3350  0     0    
2019/11/17  10:47:01  BASE  0        350  0.84672  15   0.4   100   0.4   100   0     972.9    NA       0.0000   9999     3410  0     0    
2019/11/17  10:48:01  BASE  0.0294   267  0.84672  15   0.4   100   0.4   100   0     972.9    NA       0.0000   9999     3410  0     0    
2019/11/17  10:49:01  BASE  0.80556  313  2.56956  330  0.4   100   0.4   100   0     972.9    NA       0.0000   9999     3350  0     0    
2019/11/17  10:50:01  BASE  1.5876   334  2.56956  330  0.4   100   0.4   100   0     972.9    NA       0.0000   9999     3410  0     0    
2019/11/17  10:51:01  BASE  1.13484  330  2.56956  330  0.3   100   0.3   100   0     972.9    NA       0.0000   9999     3410  0     0    
2019/11/17  10:52:01  BASE  0.32928  329  2.56956  330  0.2   100   0.2   99    0     972.9    NA       0.0000   UP       9999  3150  0    
2019/11/17  10:53:01  BASE  0.294    15   2.56956  330  0.1   100   0.1   99    0     972.9    NA       0.0000   UP       9999  3180  0    
2019/11/17  10:54:01  BASE  0.89964  52   2.56956  330  0.0   100   0.0   99    0     972.9    NA       0.0000   9999     3220  0     0    
2019/11/17  10:55:01  BASE  0.9702   60   2.56956  330  0.0   100   0.0   100   0     972.9    NA       0.0000   9999     3220  0     0    
2019/11/17  10:56:01  BASE  0.38808  100  2.56956  330  0.0   100   0.0   102   0     972.9    NA       0.0000   9999     3220  0     0    
2019/11/17  10:57:01  BASE  0.6762   172  2.56956  330  0.0   100   0.0   105   0     972.9    NA       0.0000   UP       9999  0     0    
2019/11/17  10:58:01  BASE  1.22892  198  2.56956  330  0.0   100   0.0   107   0     972.9    NA       0.0000   UP       9999  0     0    
2019/11/17  10:59:01  BASE  0.69384  198  2.1462   331  -0.0  100   -0.0  110   0     972.9    NA       0.0000   UP       8000  0     0    
2019/11/17  11:00:01  BASE  0.10584  205  1.54056  198  -0.0  100   -0.0  114   0     972.9    NA       0.0000   UP       7000  820   0    
2019/11/17  11:01:01  BASE  0.1176   245  1.54056  198  -0.1  100   -0.1  117   0     972.9    NA       0.0000   UP       BR    6000  620  
2019/11/17  11:02:01  BASE  0.65268  298  1.54056  198  -0.1  100   -0.1  121   0     972.9    NA       0.0000   UP       BR    7000  0    
2019/11/17  11:03:01  BASE  1.06428  314  1.54056  198  -0.1  100   -0.1  124   0     972.9    NA       0.0000   UP       BR    6000  390  
2019/11/17  11:04:01  BASE  0.84672  299  1.54056  198  -0.0  100   -0.0  126   0     972.9    NA       0.0000   UP       BR    5000  0    
2019/11/17  11:05:01  BASE  0.37044  277  1.54056  198  0.0   100   0.0   129   0     972.9    NA       0.0000   UP       BR    6000  0    
2019/11/17  11:06:01  BASE  0.05292  263  1.54056  198  0.1   100   0.1   132   0     972.9    NA       0.0000   UP       BR    3900  300  
2019/11/17  11:07:01  BASE  0        258  1.48176  200  0.1   100   0.1   136   0     973.0    NA       0.0000   UP       BR    3000  300  
2019/11/17  11:08:01  BASE  0.03528  268  1.35828  316  0.1   100   0.1   139   0     973.0    NA       0.0000   UP       BR    3400  2850 
2019/11/17  11:09:01  BASE  0.4998   277  1.35828  316  0.0   100   0.0   140   0     973.0    NA       0.0000   UP       BR    5000  3120 
2019/11/17  11:10:01  BASE  0.95844  274  1.35828  316  -0.0  100   -0.0  138   0     972.9    NA       0.0000   UP       BR    8000  2990 
2019/11/17  11:11:01  BASE  1.13484  281  1.42296  286  -0.1  100   -0.1  135   0     973.0    NA       0.0000   UP       BR    9999  2720 
2019/11/17  11:12:01  BASE  1.01724  305  1.42296  286  -0.1  100   -0.1  132   0     973.0    NA       0.0000   UP       BR    9999  2820 
2019/11/17  11:13:01  BASE  0.72912  328  1.42296  286  -0.1  100   -0.1  127   0     973.0    NA       0.0000   UP       BR    9999  2790 
2019/11/17  11:14:01  BASE  0.54684  321  1.42296  286  -0.1  100   -0.1  122   0     973.0    NA       0.0000   UP       BR    9999  2950 
2019/11/17  11:15:01  BASE  0.294    281  1.42296  286  -0.1  100   -0.1  118   0     972.9    NA       0.0000   UP       BR    9999  3020 
2019/11/17  11:16:01  BASE  0.09996  245  1.42296  286  -0.1  100   -0.1  115   0     972.9    NA       0.0000   UP       BR    9999  2950 
2019/11/17  11:17:01  BASE  0        230  1.42296  286  -0.1  100   -0.1  113   0     972.9    NA       0.0000   UP       BR    9999  2890 
2019/11/17  11:18:01  BASE  0        222  1.42296  286  -0.1  100   -0.1  112   0     972.9    NA       0.0000   UP       9999  2950  0    
2019/11/17  11:19:01  BASE  0.18816  25   1.42296  286  -0.1  100   -0.1  112   0     972.9    NA       0.0000   UP       9999  2950  0    
2019/11/17  11:20:01  BASE  0.60564  25   1.42296  286  -0.1  100   -0.1  112   0     972.9    NA       0.0000   9999     3020  0     0    
2019/11/17  11:21:01  BASE  0.66444  14   1.24068  306  -0.0  100   -0.0  112   0     972.9    NA       0.0000   9999     1410  0     0    
2019/11/17  11:22:01  BASE  0.27048  17   0.90552  14   0.1   100   0.1   112   0     973.0    NA       0.0000   9999     850   0     0    
2019/11/17  11:23:01  BASE  0.11172  34   0.90552  14   0.2   100   0.2   113   0     973.0    NA       0.0000   9999     1440  0     0    
2019/11/17  11:24:01  BASE  0.441    46   0.90552  14   0.2   100   0.2   114   0     973.0    NA       0.0000   UP       8000  950   2760 
2019/11/17  11:25:01  BASE  0.4704   58   0.90552  14   0.3   100   0.3   114   0     973.0    NA       0.0000   UP       5000  390   0    
2019/11/17  11:26:01  BASE  0.11172  88   0.90552  14   0.3   100   0.3   115   0     972.9    NA       0.0000   -SN      BR    6000  360  
2019/11/17  11:27:01  BASE  0.37044  111  1.21128  100  0.3   100   0.3   116   0     972.9    NA       0.0000   -SN      BR    7000  3050 
2019/11/17  11:28:01  BASE  0.9996   105  1.45236  93   0.3   100   0.3   116   0     972.9    NA       0.0000   -SN      BR    7000  3120 
2019/11/17  11:29:01  BASE  1.34064  81   1.57584  60   0.3   100   0.3   116   0     973.0    NA       0.0000   -SN      BR    8000  3580 
2019/11/17  11:30:01  BASE  1.51116  50   1.75224  24   0.3   100   0.3   117   0     973.0    NA       0.0000   -SN      BR    9000  3380 
2019/11/17  11:31:01  BASE  1.7052   23   1.96392  8    0.3   100   0.3   117   0     973.0    NA       0.0000   -SN      BR    9000  2460 
2019/11/17  11:32:01  BASE  1.57584  8    1.96392  8    0.3   100   0.3   118   0     973.0    NA       0.0000   -SN      BR    9999  2490 
2019/11/17  11:33:01  BASE  0.90552  11   1.96392  8    0.3   100   0.3   118   0     973.0    NA       0.0000   -SN      BR    9999  2560 
2019/11/17  11:34:01  BASE  0.28812  38   1.96392  8    0.3   100   0.3   118   0     973.0    NA       0.0000   -SN      BR    9999  2530 
2019/11/17  11:35:01  BASE  0.47628  72   1.96392  8    0.3   100   0.3   118   0     973.0    NA       0.0000   -SN      BR    9999  2460 
2019/11/17  11:36:01  BASE  1.03488  101  1.96392  8    0.3   100   0.3   118   0     972.9    NA       0.0000   -SN      BR    9999  2430 
2019/11/17  11:37:01  BASE  1.37004  127  1.96392  8    0.3   100   0.3   117   0     973.0    NA       0.0000   -SN      9999  2920  0    
2019/11/17  11:38:00  BASE  1.71696  154  2.1168   175  0.3   100   0.3   116   0     972.9    NA       0.0000   -SN      9999  2790  0    
2019/11/17  11:39:00  BASE  2.12268  172  2.42256  177  0.3   100   0.3   117   0     972.9    NA       0.0000   -SN      9999  2620  0    
2019/11/17  11:40:00  BASE  2.52252  175  2.99292  169  0.4   100   0.4   117   0     972.9    NA       0.0000   -SN      9999  2330  0    
2019/11/17  11:41:01  BASE  2.77536  171  2.99292  169  0.4   100   0.4   117   0     972.9    NA       0.0000   -SN      9999  2330  0    
2019/11/17  11:42:01  BASE  2.68716  169  2.99292  169  0.3   100   0.3   116   0     972.9    NA       0.0000   -SN      9999  1440  0    
2019/11/17  11:43:01  BASE  2.56956  175  2.99292  169  0.3   100   0.3   113   0     972.9    NA       0.0000   -SN      9999  2660  0    
2019/11/17  11:44:01  BASE  2.62836  195  2.99292  169  0.3   100   0.3   109   0     972.9    NA       0.0000   -SN      9999  1250  0    
2019/11/17  11:45:01  BASE  2.16384  233  2.99292  169  0.3   100   0.3   106   0     972.9    NA       0.0000   -SN      9000  1150  0    
2019/11/17  11:46:01  BASE  1.47     291  2.99292  169  0.2   100   0.2   105   0     973.0    NA       0.0000   -SN      9000  1150  0    
2019/11/17  11:47:00  BASE  1.4406   349  2.99292  169  0.2   100   0.2   103   0     973.0    NA       0.0000   -SN      9000  1080  0    
2019/11/17  11:48:00  BASE  1.53468  29   2.99292  169  0.3   100   0.3   102   0     973.1    NA       0.0000   -SN      9000  1080  0    
2019/11/17  11:49:01  BASE  1.39356  68   2.99292  169  0.3   100   0.3   102   0     973.2    NA       0.0000   -SN      9000  790   1640 
2019/11/17  11:50:01  BASE  1.35828  113  2.93412  198  0.4   100   0.4   101   0     973.1    NA       0.0000   -SN      9999  490   2360 
2019/11/17  11:51:01  BASE  1.45824  139  2.93412  198  0.5   100   0.5   100   0     973.0    NA       0.0000   -SN      BR    8000  300  
2019/11/17  11:52:01  BASE  1.37004  151  2.93412  198  0.5   100   0.5   99    0     973.0    NA       0.0000   -SN      BR    2800  260  
2019/11/17  11:53:01  BASE  1.06428  148  2.93412  198  0.5   100   0.5   98    0     973.1    NA       0.0000   -SN      BR    1200  1210 
2019/11/17  11:54:01  BASE  0.9408   131  2.1462   230  0.6   100   0.6   97    0     973.2    NA       0.0000   -SN      BR    1400  1610 
2019/11/17  11:55:01  BASE  1.01724  114  1.84632  15   0.6   100   0.6   93    0     973.2    NA       0.0000   -SN      BR    2900  1380 
2019/11/17  11:56:01  BASE  1.10544  108  1.84632  15   0.6   100   0.6   90    0     973.2    NA       0.0000   -SN      BR    8000  1120 
2019/11/17  11:57:01  BASE  1.05252  119  1.81692  28   0.6   100   0.6   87    0     973.2    NA       0.0000   -SN      BR    7000  1020 
2019/11/17  11:58:01  BASE  0.84672  153  1.78752  152  0.6   100   0.6   86    0     973.2    NA       0.0000   -SN      BR    8000  430  
2019/11/17  11:59:01  BASE  0.74088  187  1.78752  152  0.6   100   0.6   86    0     973.2    NA       0.0000   -SN      BR    1800  330  
2019/11/17  12:00:01  BASE  1.18776  199  1.9992   203  0.7   100   0.7   87    0     973.2    NA       0.0000   -SN      BR    0800  330  
2019/11/17  12:01:01  BASE  1.88748  203  2.29908  204  0.7   100   0.7   89    0     973.2    NA       0.0000   -SN      BR    0650  300  
2019/11/17  12:02:01  BASE  2.1756   203  2.56956  205  0.7   100   0.7   91    0     973.1    NA       0.0000   -SN      BR    0500  300  
2019/11/17  12:03:01  BASE  1.97568  197  2.56956  205  0.6   100   0.6   94    0     973.2    NA       0.0000   -SN      BR    1100  750  
2019/11/17  12:04:01  BASE  1.59936  186  2.56956  205  0.5   100   0.5   97    0     973.2    NA       0.0000   -SN      BR    2100  330  
2019/11/17  12:05:01  BASE  1.617    168  2.56956  205  0.4   100   0.4   101   0     973.2    NA       0.2540   -SN      BR    1700  950  
2019/11/17  12:06:01  BASE  2.28732  156  3.1458   153  0.3   100   0.3   105   0     973.1    NA       0.0000   -SN      BR    3000  620  
2019/11/17  12:07:01  BASE  2.99292  156  3.29868  154  0.2   100   0.2   109   0     973.1    NA       0.0000   -SN      BR    1100  360  
2019/11/17  12:08:01  BASE  2.71656  151  3.29868  154  0.1   100   0.1   112   0     973.2    NA       0.0000   -SN      BR    1400  260  
2019/11/17  12:09:01  BASE  1.85808  147  3.29868  154  0.1   100   0.1   117   0     973.2    NA       0.0000   -SN      BR    0650  330  
2019/11/17  12:10:01  BASE  2.0286   160  3.44568  180  0.1   100   0.1   123   0     973.1    NA       0.2540   -SN      BR    0700  390  
2019/11/17  12:11:01  BASE  3.11052  173  3.81024  177  0.2   100   0.2   130   0     973.0    NA       0.0000   -SN      BR    0750  330  
2019/11/17  12:12:01  BASE  2.98116  167  3.81024  177  0.2   100   0.2   138   0     973.1    NA       0.0000   -SN      BR    0800  1080 
2019/11/17  12:13:01  BASE  1.86396  146  3.81024  177  0.3   100   0.3   146   0     973.2    NA       0.0000   -SN      BR    0900  1250 
2019/11/17  12:14:01  BASE  0.80556  112  3.81024  177  0.4   100   0.4   155   0     973.2    NA       0.0000   -SN      BR    1000  1120 
2019/11/17  12:15:01  BASE  0.12936  75   3.81024  177  0.5   100   0.5   165   0     973.1    NA       0.0000   -SN      BR    1100  1870 
2019/11/17  12:16:01  BASE  0.0294   249  3.81024  177  0.5   100   0.5   176   0     973.0    NA       0.0000   -RA      BR    1400  2200 
2019/11/17  12:17:01  BASE  0.03528  201  3.81024  177  0.5   100   0.5   185   0     973.2    NA       0.0000   -RA      BR    5000  2360 
2019/11/17  12:18:01  BASE  0.68208  127  3.81024  177  0.6   100   0.6   194   0     973.2    NA       0.0000   -RA      BR    1400  2300 
2019/11/17  12:19:01  BASE  1.31124  111  3.81024  177  0.6   100   0.6   200   0     973.2    NA       0.0000   -RA      BR    9999  2260 
2019/11/17  12:20:01  BASE  1.25244  129  3.81024  177  0.6   100   0.6   204   0     973.1    NA       0.0000   -RA      BR    9999  4300 
2019/11/17  12:21:01  BASE  1.3818   148  3.35748  163  0.6   100   0.6   206   0     973.0    NA       0.0000   -RA      BR    9999  2260 
2019/11/17  12:22:01  BASE  1.46412  143  1.90512  136  0.6   100   0.6   207   0     973.0    NA       0.0000   -RA      BR    9000  2430 
2019/11/17  12:23:01  BASE  1.28184  128  1.63464  145  0.6   100   0.6   209   0     973.0    NA       0.0000   -RA      BR    1900  4300 
2019/11/17  12:24:01  BASE  1.2642   135  1.63464  145  0.6   100   0.6   212   0     973.0    NA       0.0000   -RA      BR    2600  3940 
2019/11/17  12:25:01  BASE  1.4112   151  1.75224  162  0.6   100   0.6   215   0     973.0    NA       0.0000   -RA      BR    9999  4040 
2019/11/17  12:26:01  BASE  1.40532  155  1.75224  162  0.6   100   0.6   220   0     973.0    NA       0.0000   -RA      BR    9999  4330 
2019/11/17  12:27:01  BASE  1.11132  137  1.75224  162  0.6   100   0.6   222   0     973.0    NA       0.0000   -RA      BR    9999  4360 
2019/11/17  12:28:01  BASE  0.91728  95   1.75224  162  0.7   100   0.7   222   0     973.1    NA       0.0000   -RA      BR    9999  4530 
2019/11/17  12:29:01  BASE  1.19952  59   1.75224  162  0.7   100   0.7   222   0     973.1    NA       0.0000   -RA      BR    9999  4560 
2019/11/17  12:30:01  BASE  1.5288   55   1.75224  64   0.8   100   0.8   222   0     973.0    NA       0.0000   -RA      BR    9999  4590 
2019/11/17  12:31:01  BASE  1.60524  71   1.93452  92   0.9   100   0.9   223   0     973.0    NA       0.0000   -RA      BR    9999  4560 
2019/11/17  12:32:01  BASE  1.81104  76   2.24028  68   1.0   100   1.0   226   0     973.0    NA       0.0000   -RA      BR    9999  4590 
2019/11/17  12:33:01  BASE  1.92276  70   2.24028  68   1.1   100   1.1   230   0     973.0    NA       0.0000   9999     2560  4660  0    
2019/11/17  12:34:01  BASE  1.69344  89   2.24028  68   1.1   100   1.1   236   0     973.0    NA       0.0000   9999     4690  0     0    
2019/11/17  12:35:01  BASE  1.76988  129  2.29908  140  1.1   100   1.1   244   0     972.9    NA       0.0000   9999     4690  0     0    
2019/11/17  12:36:01  BASE  1.617    143  2.29908  140  1.1   100   1.1   253   0     972.9    NA       0.0000   9999     4720  0     0    
2019/11/17  12:37:01  BASE  0.9702   120  2.29908  140  1.1   100   1.1   262   0     973.0    NA       0.0000   9999     4660  0     0    
2019/11/17  12:38:01  BASE  0.95844  56   2.29908  140  1.1   100   1.1   270   0     973.0    NA       0.0000   9999     4790  0     0    
2019/11/17  12:39:01  BASE  0.83496  59   2.29908  140  1.1   100   1.1   277   0     973.0    NA       0.0000   9999     4790  0     0    
2019/11/17  12:40:01  BASE  0.47628  121  2.29908  140  1.2   100   1.2   284   0     972.9    NA       0.0000   9999     4860  0     0    
2019/11/17  12:41:01  BASE  0.82908  166  2.29908  140  1.2   100   1.2   292   0     972.9    NA       0.0000   9999     4860  0     0    
2019/11/17  12:42:01  BASE  1.07016  180  2.29908  140  1.2   100   1.2   302   0     972.9    NA       0.0000   9999     4820  0     0    
2019/11/17  12:43:01  BASE  0.49392  199  2.29908  140  1.2   100   1.2   313   0     972.9    NA       0.0000   9999     4890  0     0    
2019/11/17  12:44:01  BASE  0.22344  239  2.29908  140  1.3   100   1.3   324   0     972.9    NA       0.0000   9999     4890  0     0    
2019/11/17  12:45:01  BASE  0.32928  257  1.66404  39   1.3   100   1.3   334   0     972.9    NA       0.0000   9999     4860  0     0    
2019/11/17  12:46:01  BASE  0.16464  242  1.66404  39   1.2   100   1.2   342   0     972.9    NA       0.0000   9999     4860  0     0    
2019/11/17  12:47:01  BASE  0.05292  212  1.66404  39   1.3   100   1.3   347   0     972.9    NA       0.0000   9999     4890  0     0    
2019/11/17  12:48:01  BASE  0        199  1.42296  188  1.3   100   1.3   350   0     972.9    NA       0.0000   9999     4920  0     0    
2019/11/17  12:49:01  BASE  0.12348  200  1.42296  188  1.2   100   1.2   351   0     972.9    NA       0.0000   9999     4920  0     0    
2019/11/17  12:50:01  BASE  0.62328  186  1.42296  188  1.2   100   1.2   352   0     972.9    NA       0.0000   9999     4820  0     0    
2019/11/17  12:51:01  BASE  1.00548  184  1.27008  183  1.2   100   1.2   354   0     972.9    NA       0.0000   9999     4820  0     0    
2019/11/17  12:52:01  BASE  0.77028  188  1.1466   191  1.2   100   1.2   359   0     972.9    NA       0.0000   9999     4760  0     0    
2019/11/17  12:53:01  BASE  0.2646   194  1.1466   191  1.2   100   1.2   362   0     972.9    NA       0.0000   9999     4790  0     0    
2019/11/17  12:54:01  BASE  0        237  1.1466   191  1.2   100   1.2   364   0     972.9    NA       0.0000   9999     4820  0     0    
2019/11/17  12:55:01  BASE  0        269  1.1466   191  1.2   100   1.2   364   0     972.9    NA       0.0000   9999     4860  0     0    
2019/11/17  12:56:01  BASE  0.0294   258  1.1466   191  1.2   100   1.2   364   0     972.9    NA       0.0000   9999     4820  0     0    
2019/11/17  12:57:01  BASE  0.10584  226  1.1466   191  1.3   100   1.3   363   0     972.9    NA       0.0000   9999     4860  0     0    
2019/11/17  12:58:01  BASE  0.55272  195  1.69344  151  1.3   100   1.3   358   0     972.9    NA       0.0000   9999     4860  0     0    
2019/11/17  12:59:01  BASE  1.11132  184  1.75224  204  1.3   100   1.3   348   0     972.8    NA       0.0000   9999     4860  0     0    
2019/11/17  13:00:01  BASE  1.50528  198  1.87572  208  1.2   100   1.2   342   0     972.8    NA       0.0000   9999     4890  0     0    
2019/11/17  13:01:01  BASE  1.78752  196  1.96392  190  1.2   100   1.2   337   0     972.8    NA       0.0000   9999     4820  0     0    
2019/11/17  13:02:01  BASE  2.01096  186  2.35788  180  1.1   100   1.1   331   0     972.8    NA       0.0000   9999     4860  0     0    
2019/11/17  13:03:01  BASE  2.43432  178  3.2046   174  1.1   100   1.1   326   0     972.8    NA       0.0000   9999     4820  0     0    
2019/11/17  13:04:01  BASE  2.88708  168  3.29868  142  1.0   100   1.0   323   0     972.8    NA       0.0000   9999     4790  0     0    
2019/11/17  13:05:01  BASE  2.96352  168  3.29868  142  1.0   100   1.0   319   0     972.7    NA       0.0000   9999     4820  0     0    
2019/11/17  13:06:01  BASE  2.74008  177  3.29868  142  1.0   100   1.0   317   0     972.8    NA       0.0000   9999     4860  0     0    
2019/11/17  13:07:01  BASE  2.68716  180  3.29868  142  1.0   100   1.0   317   0     972.8    NA       0.0000   9999     4860  0     0    
2019/11/17  13:08:01  BASE  2.48724  181  3.29868  142  0.9   100   0.9   320   0     972.8    NA       0.0000   9999     4820  0     0    
2019/11/17  13:09:01  BASE  2.1756   181  3.29868  142  0.8   100   0.8   324   0     972.8    NA       0.0000   9999     4820  0     0    
2019/11/17  13:10:01  BASE  2.06976  175  3.29868  142  0.8   100   0.8   330   0     972.8    NA       0.0000   9999     4860  0     0    
2019/11/17  13:11:01  BASE  1.95216  168  3.29868  142  0.8   100   0.8   335   0     972.8    NA       0.0000   9999     4860  0     0    
2019/11/17  13:12:01  BASE  2.0286   161  3.29868  142  0.8   100   0.8   341   0     972.7    NA       0.0000   9999     4920  0     0    
2019/11/17  13:13:01  BASE  2.56956  160  3.29868  142  0.8   100   0.8   348   0     972.6    NA       0.0000   9999     4860  0     0    
2019/11/17  13:14:01  BASE  3.01644  160  3.26928  162  0.9   100   0.9   354   0     972.6    NA       0.0000   9999     4820  0     0    
2019/11/17  13:15:01  BASE  3.13404  153  3.53976  135  0.9   100   0.9   361   0     972.6    NA       0.0000   9999     4890  0     0    
2019/11/17  13:16:01  BASE  3.31632  154  3.62796  163  0.9   100   0.9   368   0     972.6    NA       0.0000   9999     4860  0     0    
2019/11/17  13:17:01  BASE  2.90472  155  3.62796  163  0.9   100   0.9   374   0     972.6    NA       0.0000   9999     4890  0     0    
2019/11/17  13:18:01  BASE  2.04624  137  3.62796  163  0.9   100   0.9   380   0     972.6    NA       0.0000   9999     4890  0     0    
2019/11/17  13:19:01  BASE  1.64052  116  3.62796  163  1.0   100   1.0   387   0     972.6    NA       0.0000   9999     4920  0     0    
2019/11/17  13:20:01  BASE  1.74048  118  3.62796  163  1.0   100   1.0   394   0     972.7    NA       0.0000   9999     4920  0     0    
2019/11/17  13:21:01  BASE  1.92276  135  3.62796  163  1.1   100   1.1   403   0     972.6    NA       0.0000   9999     4890  0     0    
2019/11/17  13:22:01  BASE  1.79928  144  3.62796  163  1.1   100   1.1   413   0     972.6    NA       0.0000   9999     4920  0     0    
2019/11/17  13:23:01  BASE  1.65816  152  3.62796  163  1.1   100   1.1   421   0     972.6    NA       0.0000   9999     4920  0     0    
2019/11/17  13:24:01  BASE  1.764    157  3.62796  163  1.1   100   1.1   425   0     972.7    NA       0.0000   9999     4920  21060 21590
2019/11/17  13:25:01  BASE  1.79928  155  3.62796  163  1.1   100   1.1   419   0     972.7    NA       0.0000   9999     4950  0     0    
2019/11/17  13:26:01  BASE  1.38768  158  2.99292  152  1.1   100   1.1   406   0     972.7    NA       0.0000   9999     5020  0     0    
2019/11/17  13:27:01  BASE  0.71148  156  2.21088  148  1.1   100   1.1   390   0     972.7    NA       0.0000   9999     4990  0     0    
2019/11/17  13:28:01  BASE  0.2646   136  2.1168   146  1.1   100   1.1   375   0     972.7    NA       0.0000   9999     4950  0     0    
2019/11/17  13:29:01  BASE  0.62328  127  2.1168   146  1.1   100   1.1   363   0     972.7    NA       0.0000   9999     4890  0     0    
2019/11/17  13:30:01  BASE  1.29948  133  2.1168   146  1.0   100   1.0   354   0     972.7    NA       0.0000   9999     4820  0     0    
2019/11/17  13:31:01  BASE  1.3524   141  2.0874   155  1.0   100   1.0   351   0     972.7    NA       0.0000   9999     4820  0     0    
2019/11/17  13:32:01  BASE  1.03488  148  2.0874   155  1.0   100   1.0   362   0     972.7    NA       0.0000   9999     4860  0     0    
2019/11/17  13:33:01  BASE  0.60564  153  2.0874   155  1.0   100   1.0   384   0     972.7    NA       0.0000   9999     4890  0     0    
2019/11/17  13:34:01  BASE  0.18816  160  2.0286   152  1.0   100   1.0   387   0     972.7    NA       0.0000   9999     4890  0     0    
2019/11/17  13:35:01  BASE  0.02352  154  1.63464  130  1.0   100   1.0   383   0     972.7    NA       0.0000   9999     4890  0     0    
2019/11/17  13:36:01  BASE  0.05292  47   1.63464  130  1.0   100   1.0   374   0     972.8    NA       0.0000   9999     4860  23030 0    
2019/11/17  13:37:01  BASE  0.18816  34   1.63464  130  1.0   100   1.0   368   0     972.6    NA       0.0000   9999     6170  0     0    
2019/11/17  13:38:01  BASE  0.14112  37   1.63464  130  1.1   100   1.1   367   0     972.7    NA       0.0000   9999     6140  0     0    
2019/11/17  13:39:01  BASE  0        34   1.63464  130  1.2   100   1.2   381   0     972.7    NA       0.0000   9999     4860  6040  0    
2019/11/17  13:40:01  BASE  0.5292   3    1.66404  339  1.3   100   1.3   381   0     972.7    NA       0.0000   9999     4820  6230  0    
2019/11/17  13:41:01  BASE  1.45824  332  2.42256  320  1.3   100   1.3   387   0     972.7    NA       0.0000   9999     4920  0     0    
2019/11/17  13:42:01  BASE  1.97568  314  2.42256  320  1.4   100   1.4   391   0     972.7    NA       0.0000   9999     4950  0     0    
2019/11/17  13:43:01  BASE  2.08152  296  2.42256  320  1.3   100   1.3   481   0     972.7    NA       0.0000   9999     4820  17160 0    
2019/11/17  13:44:01  BASE  2.09328  303  2.75184  329  1.3   100   1.3   372   0     972.7    NA       0.0000   9999     4860  0     0    
2019/11/17  13:45:01  BASE  2.7636   325  3.81024  345  1.1   100   1.1   352   0     972.7    NA       0.0000   9999     4820  0     0    
2019/11/17  13:46:01  BASE  3.44568  342  3.86904  341  1.1   100   1.1   343   0     972.7    NA       0.0000   9999     4820  0     0    
2019/11/17  13:47:01  BASE  3.61032  342  4.1454   339  1.0   100   1.0   341   0     972.7    NA       0.0000   9999     4820  0     0    
2019/11/17  13:48:01  BASE  3.78084  338  4.1454   339  0.9   100   0.9   340   0     972.7    NA       0.0000   9999     4820  0     0    
2019/11/17  13:49:01  BASE  3.93372  334  4.29828  329  0.8   100   0.8   338   0     972.7    NA       0.0000   9999     4820  0     0    
2019/11/17  13:50:01  BASE  3.98664  333  4.35708  337  0.8   100   0.8   335   0     972.7    NA       0.0000   9999     4920  0     0    
2019/11/17  13:51:01  BASE  4.19244  337  5.1744   336  0.7   100   0.7   329   0     972.7    NA       0.0000   9999     4890  0     0    
2019/11/17  13:52:01  BASE  4.6158   338  5.1744   336  0.7   100   0.7   321   0     972.7    NA       0.0000   9999     4890  0     0    
2019/11/17  13:53:01  BASE  4.45116  335  5.1744   336  0.7   100   0.7   316   0     972.7    NA       0.0000   9999     4890  0     0    
2019/11/17  13:54:01  BASE  3.92784  333  5.1744   336  0.6   100   0.6   313   0     972.7    NA       0.0000   9999     4890  0     0    
2019/11/17  13:55:01  BASE  3.7044   332  5.1744   336  0.6   100   0.6   310   0     972.8    NA       0.0000   9999     4890  0     0    
2019/11/17  13:56:01  BASE  3.58092  332  5.1744   336  0.6   100   0.6   309   0     972.8    NA       0.0000   9999     4890  0     0    
2019/11/17  13:57:01  BASE  3.18696  332  5.1744   336  0.6   100   0.6   308   0     972.8    NA       0.0000   9999     4890  0     0    
2019/11/17  13:58:01  BASE  3.087    330  5.1744   336  0.6   100   0.6   308   0     972.8    NA       0.0000   9999     4890  0     0    
2019/11/17  13:59:01  BASE  3.528    330  5.1744   336  0.6   100   0.6   306   0     972.8    NA       0.0000   9999     4890  0     0    
2019/11/17  14:00:01  BASE  3.97488  332  5.1744   336  0.6   100   0.6   305   0     972.7    NA       0.0000   9999     4920  0     0    
2019/11/17  14:01:01  BASE  4.09248  333  5.10972  336  0.6   100   0.6   306   0     972.6    NA       0.0000   9999     4860  0     0    
2019/11/17  14:02:01  BASE  3.7632   330  4.56876  338  0.6   100   0.6   309   0     972.8    NA       0.0000   9999     4860  0     0    
2019/11/17  14:03:01  BASE  3.40452  324  4.53936  334  0.6   100   0.6   314   0     972.8    NA       0.0000   9999     4860  22570 0    
2019/11/17  14:04:01  BASE  3.35748  322  4.53936  334  0.6   100   0.6   319   0     972.7    NA       0.0000   9999     4820  0     0    
2019/11/17  14:05:01  BASE  3.48684  324  4.53936  334  0.6   100   0.6   325   0     972.7    NA       0.0000   9999     4790  0     0    
2019/11/17  14:06:01  BASE  3.54564  326  4.53936  334  0.6   100   0.6   332   0     972.7    NA       0.0000   9999     4760  23130 0    
2019/11/17  14:07:01  BASE  3.19872  324  4.53936  334  0.6   100   0.6   336   0     972.8    NA       0.0000   9999     4760  0     0    
2019/11/17  14:08:01  BASE  2.8518   320  4.53936  334  0.6   100   0.6   341   0     972.8    NA       0.0000   9999     4760  0     0    
2019/11/17  14:09:01  BASE  2.77536  315  4.53936  334  0.6   100   0.6   348   0     972.8    NA       0.0000   9999     4760  0     0    
2019/11/17  14:10:01  BASE  3.02232  318  4.53936  334  0.6   100   0.6   354   0     972.8    NA       0.0000   9999     4720  0     0    
2019/11/17  14:11:01  BASE  3.29868  323  3.86904  331  0.6   100   0.6   359   0     972.8    NA       0.0000   9999     4760  0     0    
2019/11/17  14:12:01  BASE  3.18696  322  3.69264  326  0.6   100   0.6   365   0     972.8    NA       0.0000   9999     4720  0     0    
2019/11/17  14:13:01  BASE  3.12228  319  3.69264  326  0.6   100   0.6   369   0     972.6    NA       0.0000   9999     4720  0     0    
2019/11/17  14:14:01  BASE  3.15168  319  3.69264  326  0.6   100   0.6   370   0     972.8    NA       0.0000   9999     4690  0     0    
2019/11/17  14:15:01  BASE  3.02232  318  3.69264  326  0.6   100   0.6   369   0     972.8    NA       0.0000   9999     4690  0     0    
2019/11/17  14:16:01  BASE  2.77536  320  3.38688  323  0.6   100   0.6   368   0     972.6    NA       0.0000   9999     4690  0     0    
2019/11/17  14:17:00  BASE  2.74596  326  3.38688  323  0.6   100   0.6   366   0     972.8    NA       0.0000   9999     4720  0     0    
2019/11/17  14:18:01  BASE  2.94588  329  3.38688  323  0.7   100   0.6   360   0     972.7    NA       0.0000   9999     4690  0     0    
2019/11/17  14:19:01  BASE  2.81652  328  3.38688  323  0.7   100   0.7   351   0     972.7    NA       0.0000   9999     4690  0     0    
2019/11/17  14:20:01  BASE  2.4108   321  3.38688  323  0.7   100   0.7   346   0     972.7    NA       0.0000   9999     4720  5250  0    
2019/11/17  14:21:01  BASE  2.14032  313  3.26928  319  0.7   100   0.7   346   0     972.8    NA       0.0000   9999     4760  0     0    
2019/11/17  14:22:01  BASE  1.86396  310  3.26928  319  0.6   100   0.6   351   0     972.8    NA       0.0000   9999     4690  0     0    
2019/11/17  14:23:01  BASE  1.54644  308  3.26928  319  0.7   100   0.7   360   0     972.8    NA       0.0000   9999     4690  0     0    
2019/11/17  14:24:01  BASE  1.44648  305  3.1458   330  0.7   100   0.7   370   0     972.8    NA       0.0000   9999     4660  0     0    
2019/11/17  14:25:01  BASE  1.65228  307  3.1458   330  0.7   100   0.7   380   0     972.7    NA       0.0000   9999     4660  0     0    
2019/11/17  14:26:01  BASE  2.00508  316  3.1458   330  0.8   100   0.8   388   0     972.7    NA       0.0000   9999     4690  0     0    
2019/11/17  14:27:01  BASE  2.3226   325  3.1458   330  0.8   100   0.8   392   0     972.7    NA       0.0000   9999     4690  0     0    
2019/11/17  14:28:01  BASE  2.37552  328  2.93412  324  0.8   100   0.8   396   0     972.7    NA       0.0000   9999     4560  0     0    
2019/11/17  14:29:00  BASE  2.26968  323  2.54016  329  0.7   100   0.7   400   0     972.7    NA       0.0000   9999     4720  0     0    
2019/11/17  14:30:01  BASE  2.09328  313  2.54016  329  0.8   100   0.8   403   0     972.7    NA       0.0000   9999     4890  5510  0    
2019/11/17  14:31:01  BASE  1.82868  303  2.54016  329  0.8   100   0.8   403   0     972.7    NA       0.0000   9999     5020  23330 0    
2019/11/17  14:32:01  BASE  1.72284  298  2.54016  329  0.8   100   0.8   403   0     972.7    NA       0.0000   9999     5180  0     0    
2019/11/17  14:33:01  BASE  1.72872  299  2.54016  329  0.8   100   0.8   404   0     972.7    NA       0.0000   9999     5320  5580  0    
2019/11/17  14:34:01  BASE  1.7934   305  2.54016  329  0.8   100   0.8   405   0     972.7    NA       0.0000   9999     5090  5510  0    
2019/11/17  14:35:01  BASE  1.911    315  2.54016  329  0.8   100   0.8   405   0     972.7    NA       0.0000   9999     4890  5770  0    
2019/11/17  14:36:01  BASE  2.1756   323  2.56956  326  0.8   100   0.8   407   0     972.7    NA       0.0000   9999     6170  0     0    
2019/11/17  14:37:00  BASE  2.58132  326  2.96352  325  0.8   100   0.8   415   0     972.7    NA       0.0000   9999     4630  5410  6300 
2019/11/17  14:38:01  BASE  2.96352  326  3.26928  327  0.8   100   0.8   426   0     972.6    NA       0.0000   9999     4690  6330  0    
2019/11/17  14:39:00  BASE  3.1164   324  3.26928  327  0.8   100   0.8   439   0     972.6    NA       0.0000   9999     6300  0     0    
2019/11/17  14:40:01  BASE  2.86356  324  3.26928  327  0.8   100   0.8   453   0     972.6    NA       0.0000   9999     6270  0     0    
2019/11/17  14:41:00  BASE  2.48136  323  3.26928  327  0.8   100   0.8   460   0     972.5    NA       0.0000   9999     4860  0     0    
2019/11/17  14:42:01  BASE  2.31084  324  3.26928  327  0.8   100   0.8   458   0     972.6    NA       0.0000   9999     4760  20740 0    
2019/11/17  14:43:00  BASE  2.28144  330  3.26928  327  0.8   100   0.8   450   0     972.6    NA       0.0000   9999     4890  0     0    
2019/11/17  14:44:01  BASE  2.352    331  3.26928  327  0.9   100   0.9   440   0     972.6    NA       0.0000   9999     4920  0     0    
2019/11/17  14:45:01  BASE  2.36376  330  3.26928  327  0.9   100   0.9   431   0     972.5    NA       0.0000   9999     4790  0     0    
2019/11/17  14:46:01  BASE  2.14032  323  3.26928  327  1.0   100   1.0   423   0     972.6    NA       0.0000   9999     4860  0     0    
2019/11/17  14:47:00  BASE  2.08152  316  3.26928  327  1.0   100   1.0   420   0     972.6    NA       0.0000   9999     6560  9090  0    
2019/11/17  14:48:01  BASE  2.18148  316  3.2046   322  1.0   100   1.0   420   0     972.6    NA       0.0000   9999     4860  9090  0    
2019/11/17  14:49:00  BASE  2.29908  320  2.81064  327  0.9   100   0.9   420   0     972.6    NA       0.0000   9999     6040  0     0    
2019/11/17  14:50:01  BASE  2.48724  321  2.75184  325  0.9   100   0.9   415   0     972.6    NA       0.0000   9999     4860  5580  0    
2019/11/17  14:51:00  BASE  2.68716  325  2.96352  328  0.9   100   0.9   405   0     972.6    NA       0.0000   9999     4890  0     0    
2019/11/17  14:52:00  BASE  2.83416  328  3.02232  327  0.9   100   0.9   393   0     972.6    NA       0.0000   9999     4860  0     0    
2019/11/17  14:53:01  BASE  2.9694   328  3.29868  324  0.9   100   0.9   384   0     972.5    NA       0.0000   9999     4790  0     0    
2019/11/17  14:54:01  BASE  3.1752   330  3.53976  333  0.9   100   0.9   377   0     972.4    NA       0.0000   9999     4790  0     0    
2019/11/17  14:55:01  BASE  3.2046   330  3.53976  333  0.9   100   0.9   372   0     972.5    NA       0.0000   9999     4890  0     0    
2019/11/17  14:56:01  BASE  3.11052  325  3.53976  333  0.9   100   0.9   368   0     972.6    NA       0.0000   9999     4890  0     0    
2019/11/17  14:57:00  BASE  2.94     322  3.53976  333  1.0   100   1.0   363   0     972.6    NA       0.0000   9999     4990  0     0    
2019/11/17  14:58:00  BASE  2.77536  325  3.53976  333  1.0   100   1.0   361   0     972.6    NA       0.0000   9999     5020  0     0    
2019/11/17  14:59:00  BASE  2.51076  330  3.53976  333  1.0   100   1.0   360   0     972.6    NA       0.0000   9999     5280  0     0    
2019/11/17  15:00:01  BASE  2.25204  330  3.53976  333  1.0   100   1.0   362   0     972.6    NA       0.0000   9999     5020  0     0    
2019/11/17  15:01:00  BASE  2.34024  328  3.53976  333  1.0   100   1.0   364   0     972.6    NA       0.0000   9999     4890  0     0    
2019/11/17  15:02:00  BASE  2.646    328  3.53976  333  1.1   100   1.1   365   0     972.6    NA       0.0000   9999     4920  0     0    
2019/11/17  15:03:00  BASE  3.2928   327  4.08072  321  1.1   100   1.1   363   0     972.6    NA       0.0000   9999     4990  0     0    
2019/11/17  15:04:00  BASE  3.83964  326  4.1454   327  1.1   100   1.1   363   0     972.6    NA       0.0000   9999     5180  0     0    
2019/11/17  15:05:01  BASE  3.92196  326  4.263    324  1.1   100   1.1   363   0     972.6    NA       0.0000   9999     5150  0     0    
2019/11/17  15:06:01  BASE  3.98664  327  4.53936  324  1.1   100   1.1   366   0     972.6    NA       0.0000   9999     4990  0     0    
2019/11/17  15:07:00  BASE  3.93372  327  4.53936  324  1.1   100   1.1   372   0     972.1    NA       0.0000   9999     5020  0     0    
2019/11/17  15:08:00  BASE  3.77496  321  4.53936  324  1.1   100   1.1   381   0     972.5    NA       0.0000   9999     5050  0     0    
2019/11/17  15:09:00  BASE  3.75732  315  4.53936  324  1.1   100   1.1   385   0     972.4    NA       0.0000   9999     4990  0     0    
2019/11/17  15:10:00  BASE  3.90432  317  4.53936  324  1.0   100   1.0   382   0     972.5    NA       0.0000   9999     4990  0     0    
2019/11/17  15:11:01  BASE  4.15128  323  4.72164  326  1.0   100   1.0   376   0     972.6    NA       0.0000   9999     5050  0     0    
2019/11/17  15:12:00  BASE  4.18656  326  4.72164  326  0.9   100   0.9   371   0     972.6    NA       0.0000   9999     5050  0     0    
2019/11/17  15:13:00  BASE  4.06308  326  4.72164  326  0.9   100   0.9   369   0     972.6    NA       0.0000   9999     4990  0     0    
2019/11/17  15:14:00  BASE  3.98664  325  4.72164  326  0.9   100   0.9   372   0     972.5    NA       0.0000   9999     4950  0     0    
2019/11/17  15:15:01  BASE  4.06896  328  4.72164  326  0.9   100   0.9   379   0     972.4    NA       0.0000   9999     4990  5740  0    
2019/11/17  15:16:01  BASE  4.25712  333  4.72164  326  0.9   100   0.9   389   0     972.4    NA       0.0000   9999     4950  0     0    
2019/11/17  15:17:00  BASE  4.26888  337  4.72164  326  0.9   100   0.9   400   0     972.4    NA       0.0000   9999     4950  5710  0    
2019/11/17  15:18:01  BASE  4.3218   339  4.72164  326  0.9   100   0.9   413   0     972.5    NA       0.0000   9999     5540  0     0    
2019/11/17  15:19:00  BASE  4.3218   337  4.72164  326  0.9   100   0.9   427   0     972.5    NA       0.0000   9999     5250  5680  0    
2019/11/17  15:20:00  BASE  4.36296  331  4.72164  326  0.9   100   0.9   444   0     972.5    NA       0.0000   9999     5280  0     0    
2019/11/17  15:21:00  BASE  4.704    328  5.02152  325  0.9   100   0.9   463   0     972.6    NA       0.0000   9999     5480  0     0    
2019/11/17  15:22:01  BASE  4.71576  327  5.02152  325  0.9   100   0.9   476   0     972.6    NA       0.0000   9999     5510  0     0    
2019/11/17  15:23:00  BASE  4.3512   328  5.02152  325  0.9   100   0.9   477   0     972.6    NA       0.0000   9999     5510  0     0    
2019/11/17  15:24:00  BASE  4.0572   329  5.02152  325  0.9   100   0.9   475   0     972.6    NA       0.0000   9999     9060  0     0    
2019/11/17  15:25:01  BASE  3.9396   327  5.02152  325  0.9   100   0.9   479   0     972.6    NA       0.0000   9999     690   5580  0    
2019/11/17  15:26:00  BASE  3.90432  324  5.02152  325  0.9   100   0.9   492   0     972.6    NA       0.0000   9999     720   5410  0    
2019/11/17  15:27:00  BASE  3.29868  326  5.02152  325  0.9   100   0.9   509   0     972.6    NA       0.0000   9999     720   5450  0    
2019/11/17  15:28:00  BASE  3.01644  328  5.02152  325  0.9   100   0.9   545   0     972.6    NA       0.0000   9999     6200  9150  0    
2019/11/17  15:29:00  BASE  3.18108  330  5.02152  325  0.9   100   0.9   540   0     972.6    NA       0.0000   9999     6170  9420  0    
2019/11/17  15:30:00  BASE  3.087    335  5.02152  325  0.9   100   0.9   522   0     972.6    NA       0.0000   9999     790   8960  0    
2019/11/17  15:31:00  BASE  2.88708  338  4.99212  321  0.9   100   0.9   508   0     972.6    NA       0.0000   9999     430   750   0    
2019/11/17  15:32:00  BASE  2.71068  341  4.56876  328  0.9   100   0.9   500   0     972.5    NA       0.0000   9999     5680  0     0    
2019/11/17  15:33:00  BASE  2.87532  341  4.56876  328  0.9   100   0.9   477   0     972.4    NA       0.0000   9999     820   5740  0    
2019/11/17  15:34:01  BASE  2.98704  336  4.41588  327  0.9   100   0.9   468   0     972.4    NA       0.0000   9999     6330  8200  0    
2019/11/17  15:35:00  BASE  3.07524  338  4.08072  332  0.9   100   0.9   502   0     972.4    NA       0.0000   9999     6370  0     0    
2019/11/17  15:36:00  BASE  3.29868  341  4.05132  336  0.9   100   0.9   493   0     972.4    NA       0.0000   9999     6460  9020  0    
2019/11/17  15:37:00  BASE  3.41628  336  4.05132  336  0.9   100   0.9   493   0     972.4    NA       0.0000   9999     9120  0     0    
2019/11/17  15:38:00  BASE  3.381    338  3.93372  330  0.9   100   0.9   492   0     972.4    NA       0.0000   9999     5380  5970  9190 
2019/11/17  15:39:00  BASE  3.51624  340  4.2336   333  0.9   100   0.9   462   0     972.4    NA       0.0000   9999     5450  0     0    
2019/11/17  15:40:00  BASE  3.88668  338  4.41588  331  0.9   100   0.9   453   0     972.4    NA       0.0000   9999     850   5540  6040 
2019/11/17  15:41:00  BASE  3.7926   338  4.41588  331  1.0   100   1.0   444   0     972.4    NA       0.0000   9999     850   6270  0    
2019/11/17  15:42:01  BASE  3.381    336  4.41588  331  1.0   100   1.0   438   0     972.4    NA       0.0000   9999     6300  9090  0    
2019/11/17  15:43:00  BASE  3.1752   328  4.41588  331  1.0   100   1.0   434   0     972.4    NA       0.0000   9999     5710  6100  0    
2019/11/17  15:44:00  BASE  2.66364  322  4.41588  331  1.0   100   1.0   432   0     972.3    NA       0.0000   9999     5710  0     0    
2019/11/17  15:45:00  BASE  2.09916  333  4.41588  331  1.0   100   1.0   435   0     972.4    NA       0.0000   9999     5710  0     0    
2019/11/17  15:46:00  BASE  2.22264  336  4.41588  331  1.0   100   1.0   443   0     972.4    NA       0.0000   9999     5810  6200  0    
2019/11/17  15:47:00  BASE  2.52252  338  4.41588  331  1.0   100   1.0   453   0     972.4    NA       0.0000   9999     5380  0     0    
2019/11/17  15:48:00  BASE  2.63424  340  4.41588  331  1.0   100   1.0   461   0     972.4    NA       0.0000   9999     5410  0     0    
2019/11/17  15:49:00  BASE  2.65776  333  4.41588  331  1.0   100   1.0   472   0     972.4    NA       0.0000   9999     5410  0     0    
2019/11/17  15:50:00  BASE  2.42256  331  3.75144  338  1.1   100   1.1   483   0     972.4    NA       0.0000   9999     5510  0     0    
2019/11/17  15:51:00  BASE  2.46372  336  3.62796  321  1.1   100   1.1   497   0     972.2    NA       0.0000   9999     5710  0     0    
2019/11/17  15:52:00  BASE  2.7342   340  3.62796  321  1.1   100   1.1   514   0     972.4    NA       0.0000   9999     5840  0     0    
2019/11/17  15:53:00  BASE  2.7048   343  3.1458   328  1.1   100   1.1   516   0     972.5    NA       0.0000   9999     5810  0     0    
2019/11/17  15:54:00  BASE  2.78712  345  3.41628  345  1.1   100   1.1   508   0     972.5    NA       0.0000   9999     5770  0     0    
2019/11/17  15:55:00  BASE  2.95764  341  3.44568  339  1.1   100   1.1   496   0     972.4    NA       0.0000   9999     5580  21590 0    
2019/11/17  15:56:00  BASE  2.84592  347  3.44568  339  1.2   100   1.2   491   0     972.5    NA       0.0000   9999     5710  0     0    
2019/11/17  15:57:00  BASE  2.72832  355  3.44568  339  1.2   100   1.2   501   0     972.4    NA       0.0000   9999     5710  23230 0    
2019/11/17  15:58:01  BASE  2.79888  355  3.44568  339  1.2   100   1.2   530   0     972.4    NA       0.0000   9999     5710  23130 0    
2019/11/17  15:59:00  BASE  2.9988   354  3.44568  339  1.3   100   1.3   856   0     972.4    NA       0.0000   9999     5840  0     0    
2019/11/17  16:00:00  BASE  3.09876  349  3.44568  339  1.3   100   1.3   632   0     972.4    NA       0.0000   9999     5810  0     0    
2019/11/17  16:01:00  BASE  2.9106   350  3.44568  339  1.3   100   1.3   572   0     972.4    NA       0.0000   9999     5940  0     0    
2019/11/17  16:02:01  BASE  2.65776  350  3.44568  339  1.3   100   1.3   561   0     972.4    NA       0.0000   9999     5940  0     0    
2019/11/17  16:03:00  BASE  2.45784  345  3.44568  339  1.3   100   1.3   588   0     972.4    NA       0.0000   9999     5940  0     0    
2019/11/17  16:04:01  BASE  2.56368  343  3.44568  339  1.3   100   1.3   591   0     972.4    NA       0.0000   9999     5940  0     0    
2019/11/17  16:05:00  BASE  2.66952  346  3.41628  342  1.3   100   1.3   567   0     972.4    NA       0.0000   9999     6000  0     0    
2019/11/17  16:06:01  BASE  2.45784  350  3.41628  342  1.3   100   1.3   627   0     972.4    NA       0.0000   9999     6140  0     0    
2019/11/17  16:07:00  BASE  2.27556  353  3.41628  342  1.3   100   1.3   652   0     972.4    NA       0.0000   9999     8990  0     0    
2019/11/17  16:08:01  BASE  1.99332  356  3.41628  342  1.4   100   1.4   696   0     972.4    NA       0.0000   9999     6140  0     0    
2019/11/17  16:09:00  BASE  1.64052  1    3.41628  342  1.4   100   1.4   823   0     972.4    NA       0.0000   9999     6100  0     0    
2019/11/17  16:10:01  BASE  1.49352  11   3.1458   333  1.4   100   1.4   857   0     972.4    NA       0.0000   9999     6070  20180 0    
2019/11/17  16:11:01  BASE  1.45824  10   3.1458   333  1.5   100   1.5   924   0     972.3    NA       0.0000   9999     6170  0     0    
2019/11/17  16:12:01  BASE  1.57584  8    3.1458   333  1.5   100   1.5   636   0     972.3    NA       0.0000   9999     6100  0     0    
2019/11/17  16:13:01  BASE  1.68168  3    3.1458   333  1.5   100   1.5   703   0     972.3    NA       0.0000   9999     6100  0     0    
2019/11/17  16:14:01  BASE  1.62876  349  2.81064  355  1.6   100   1.6   830   0     972.2    NA       0.0000   9999     6300  9020  0    
2019/11/17  16:15:01  BASE  1.54056  345  2.54016  345  1.6   100   1.6   607   0     972.3    NA       0.0000   9999     8960  0     0    
2019/11/17  16:16:01  BASE  1.17012  357  2.54016  345  1.6   100   1.6   763   0     972.3    NA       0.0000   9999     9020  0     0    
2019/11/17  16:17:01  BASE  1.0878   12   2.32848  360  1.6   100   1.6   667   0     972.3    NA       0.0000   9999     8990  0     0    
2019/11/17  16:18:01  BASE  1.19952  15   2.21088  353  1.6   100   1.6   517   0     972.3    NA       0.0000   9999     8990  0     0    
2019/11/17  16:19:01  BASE  1.13484  12   2.21088  353  1.6   100   1.6   468   0     972.3    NA       0.0000   9999     8990  0     0    
2019/11/17  16:20:00  BASE  1.323    7    2.21088  353  1.6   100   1.6   465   0     972.3    NA       0.0000   9999     8960  0     0    
2019/11/17  16:21:00  BASE  1.44648  5    2.21088  353  1.6   100   1.6   412   0     972.3    NA       0.0000   9999     8990  0     0    
2019/11/17  16:22:01  BASE  1.55232  9    2.1462   341  1.6   100   1.6   366   0     972.3    NA       0.0000   9999     8990  0     0    
2019/11/17  16:23:01  BASE  1.58172  358  1.9992   337  1.6   100   1.6   330   0     972.3    NA       0.0000   9999     8990  0     0    
2019/11/17  16:24:01  BASE  1.2936   357  1.9992   337  1.6   100   1.6   303   0     972.3    NA       0.0000   9999     8890  0     0    
2019/11/17  16:25:01  BASE  0.882    21   1.9992   337  1.6   100   1.6   289   0     972.3    NA       0.0000   9999     8860  0     0    
2019/11/17  16:26:01  BASE  0.51744  28   1.9992   337  1.6   100   1.6   280   0     972.3    NA       0.0000   9999     8890  0     0    
2019/11/17  16:27:00  BASE  0.50568  30   1.9992   337  1.6   100   1.6   285   0     972.3    NA       0.0000   9999     8920  0     0    
2019/11/17  16:28:01  BASE  0.71736  27   1.9992   337  1.6   100   1.6   290   0     972.3    NA       0.0000   9999     0     0     0    
2019/11/17  16:29:01  BASE  0.75852  18   1.9992   337  1.6   100   1.6   296   0     972.3    NA       0.0000   9999     0     0     0    
2019/11/17  16:30:00  BASE  0.51744  21   1.9992   337  1.7   100   1.7   320   0     972.3    NA       0.0000   9999     0     0     0    
2019/11/17  16:31:00  BASE  0.3528   27   1.9992   337  1.8   100   1.8   345   0     972.3    NA       0.0000   9999     0     0     0    
2019/11/17  16:32:01  BASE  0.36456  24   1.9992   337  1.8   100   1.8   363   0     972.3    NA       0.0000   9999     6920  0     0    
2019/11/17  16:33:00  BASE  0.48216  6    1.51116  313  1.8   100   1.8   391   0     972.3    NA       0.0000   9999     6330  6820  0    
2019/11/17  16:34:01  BASE  0.588    335  1.1466   8    1.8   100   1.8   441   0     972.2    NA       0.0000   9999     6370  0     0    
2019/11/17  16:35:00  BASE  0.82908  315  1.35828  326  1.8   100   1.8   466   0     972.2    NA       0.0000   9999     6230  6820  0    
2019/11/17  16:36:01  BASE  1.07016  272  1.35828  326  1.6   100   1.6   412   0     972.2    NA       0.0000   9999     6070  6820  0    
2019/11/17  16:37:00  BASE  1.07016  226  1.35828  326  1.5   100   1.5   390   0     972.2    NA       0.0000   9999     6920  0     0    
2019/11/17  16:38:01  BASE  0.81144  205  1.35828  326  1.4   100   1.4   379   0     972.2    NA       0.0000   9999     6140  0     0    
2019/11/17  16:39:00  BASE  0.55272  194  1.35828  326  1.3   100   1.3   373   0     972.3    NA       0.0000   9999     790   6400  0    
2019/11/17  16:40:00  BASE  0.58212  200  1.35828  326  1.2   100   1.2   404   0     972.3    NA       0.0000   9999     850   6990  0    
2019/11/17  16:41:01  BASE  0.86436  210  1.35828  326  1.1   100   1.1   407   0     972.3    NA       0.0000   9999     6860  0     0    
2019/11/17  16:42:01  BASE  0.78792  216  1.35828  326  1.1   100   1.1   376   0     972.3    NA       0.0000   9999     6820  0     0    
2019/11/17  16:43:01  BASE  0.24108  205  1.35828  326  1.0   100   1.0   594   0     972.1    NA       0.0000   9999     6920  0     0    
2019/11/17  16:44:01  BASE  0.29988  196  1.35828  326  0.9   100   0.9   557   0     972.2    NA       0.0000   9999     6820  0     0    
2019/11/17  16:45:00  BASE  0.68796  199  1.29948  213  0.9   100   0.9   392   0     972.2    NA       0.0000   9999     6860  0     0    
2019/11/17  16:46:01  BASE  0.45276  203  1.29948  213  0.8   100   0.8   336   0     972.2    NA       0.0000   9999     8730  0     0    
2019/11/17  16:47:01  BASE  0.06468  185  1.29948  213  0.8   100   0.8   363   0     972.2    NA       0.0000   9999     0     0     0    
2019/11/17  16:48:01  BASE  0        158  1.29948  213  0.8   100   0.8   674   0     972.2    NA       0.0000   9999     0     0     0    
2019/11/17  16:49:00  BASE  0        124  1.29948  213  0.8   100   0.8   383   0     972.2    NA       0.0000   9999     8660  0     0    
2019/11/17  16:50:00  BASE  0        35   1.29948  213  0.9   100   0.9   428   0     972.2    NA       0.0000   9999     8690  0     0    
2019/11/17  16:51:01  BASE  0.21756  345  0.9702   227  1.0   100   1.0   458   0     972.2    NA       0.0000   9999     0     0     0    
2019/11/17  16:52:01  BASE  0.4704   327  0.90552  197  1.2   100   1.2   418   0     972.3    NA       0.0000   9999     0     0     0    
2019/11/17  16:53:00  BASE  0.3234   324  0.90552  197  1.2   100   1.2   467   0     972.3    NA       0.0000   9999     0     0     0    
2019/11/17  16:54:01  BASE  0.06468  0    0.90552  197  1.3   100   1.3   389   0     972.3    NA       0.0000   9999     0     0     0    
2019/11/17  16:55:00  BASE  0        89   0.84672  334  1.4   100   1.4   385   0     972.3    NA       0.0000   9999     0     0     0    
2019/11/17  16:56:00  BASE  0        119  0.84672  334  1.4   100   1.4   399   0     972.3    NA       0.0000   9999     0     0     0    
2019/11/17  16:57:00  BASE  0        115  0.84672  334  1.5   100   1.5   419   0     972.3    NA       0.0000   9999     8730  0     0    
2019/11/17  16:58:01  BASE  0        99   0.84672  334  1.5   100   1.5   450   0     972.3    NA       0.0000   9999     8690  0     0    
2019/11/17  16:59:00  BASE  0        51   0.84672  334  1.5   100   1.5   468   0     972.2    NA       0.0000   9999     8760  0     0    
2019/11/17  17:00:00  BASE  0        335  0.84672  334  1.5   100   1.5   507   0     972.2    NA       0.0000   9999     8730  0     0    
2019/11/17  17:01:00  BASE  0        325  0.84672  334  1.5   100   1.5   493   0     972.2    NA       0.0000   9999     8690  0     0    
2019/11/17  17:02:01  BASE  0        346  0.78792  324  1.5   100   1.5   526   0     972.3    NA       0.0000   9999     8600  0     0    
2019/11/17  17:03:00  BASE  0        17   0        M    1.5   100   1.5   602   0     972.3    NA       0.0000   9999     8660  0     0    
2019/11/17  17:04:01  BASE  0.0882   33   0.75852  42   1.6   100   1.6   618   0     972.2    NA       0.0000   9999     8730  0     0    
2019/11/17  17:05:00  BASE  0.35868  34   0.87612  37   1.7   100   1.7   731   0     972.2    NA       0.0000   9999     8690  0     0    
2019/11/17  17:06:01  BASE  0.7644   29   1.18188  23   1.8   100   1.8   993   0     972.2    NA       0.0000   9999     8630  23000 0    
2019/11/17  17:07:00  BASE  0.91728  31   1.18188  23   1.8   100   1.8   916   0     972.2    NA       0.0000   9999     8630  17490 0    
2019/11/17  17:08:00  BASE  0.9702   41   1.27008  51   1.9   100   1.9   635   0     972.2    NA       0.0000   9999     8630  0     0    
2019/11/17  17:09:00  BASE  0.97608  55   1.27008  51   1.9   100   1.9   618   0     972.2    NA       0.0000   9999     8690  0     0    
2019/11/17  17:10:00  BASE  0.8526   60   1.27008  51   2.0   100   2.0   759   0     972.2    NA       0.0000   9999     8630  23200 0    
2019/11/17  17:11:00  BASE  0.48216  65   1.27008  51   2.0   100   2.0   823   0     972.2    NA       0.0000   9999     8730  0     0    
2019/11/17  17:12:00  BASE  0.09996  80   1.27008  51   2.0   100   2.0   647   0     972.0    NA       0.0000   9999     8690  0     0    
2019/11/17  17:13:00  BASE  0.0588   101  1.27008  51   2.0   100   2.0   865   0     972.2    NA       0.0000   9999     8760  0     0    
2019/11/17  17:14:00  BASE  0.27636  143  1.27008  51   1.9   100   1.9   581   0     972.2    NA       0.0000   9999     8660  0     0    
2019/11/17  17:15:01  BASE  0.65856  165  1.27008  51   1.8   100   1.8   700   0     972.2    NA       0.0000   9999     8790  0     0    
2019/11/17  17:16:00  BASE  0.69972  164  1.27008  51   1.6   100   1.6   800   0     972.2    NA       0.0000   9999     8730  0     0    
2019/11/17  17:17:00  BASE  0.294    145  1.27008  51   1.5   100   1.5   1085  0     972.2    NA       0.0000   9999     8730  0     0    
2019/11/17  17:18:00  BASE  0        108  1.1466   49   1.5   100   1.5   999   0     972.2    NA       0.0000   9999     8730  0     0    
2019/11/17  17:19:01  BASE  0        86   1.1466   49   1.5   100   1.5   1026  0     972.2    NA       0.0000   9999     8660  0     0    
2019/11/17  17:20:01  BASE  0.30576  155  1.1172   230  1.6   100   1.6   1085  0     972.2    NA       0.0000   9999     8630  0     0    
2019/11/17  17:21:00  BASE  0.5292   228  1.1172   231  1.7   100   1.7   756   0     972.2    NA       0.0000   9999     8660  0     0    
2019/11/17  17:22:00  BASE  0.22344  191  1.1172   231  1.8   100   1.8   1050  0     972.2    NA       0.0000   9999     8660  21980 0    
2019/11/17  17:23:00  BASE  0.24108  138  1.1172   231  1.8   100   1.8   679   0     972.3    NA       0.0000   9999     8660  0     0    
2019/11/17  17:24:01  BASE  0.81144  151  1.63464  200  1.8   100   1.8   667   0     972.3    NA       0.0000   9999     8630  0     0    
2019/11/17  17:25:00  BASE  1.51704  184  2.0286   194  1.7   100   1.7   678   0     972.3    NA       0.0000   9999     8630  0     0    
2019/11/17  17:26:01  BASE  1.83456  192  2.0286   192  1.6   100   1.6   655   0     972.3    NA       0.0000   9999     8600  0     0    
2019/11/17  17:27:01  BASE  1.5876   187  2.0286   192  1.4   100   1.4   609   0     972.3    NA       0.0000   9999     8600  0     0    
2019/11/17  17:28:01  BASE  1.43472  189  2.0286   192  1.2   100   1.2   605   0     972.3    NA       0.0000   9999     8660  0     0    
2019/11/17  17:29:00  BASE  1.57584  205  2.0286   192  1.1   100   1.1   585   0     972.3    NA       0.0000   9999     8600  0     0    
2019/11/17  17:30:00  BASE  1.44648  204  2.0286   192  1.0   100   1.0   728   0     972.1    NA       0.0000   9999     8560  0     0    
2019/11/17  17:31:00  BASE  1.1466   192  2.0286   192  0.9   100   0.9   613   0     972.3    NA       0.0000   9999     8560  0     0    
2019/11/17  17:32:00  BASE  1.12896  193  2.0286   192  0.8   100   0.8   617   0     972.3    NA       0.0000   9999     8600  0     0    
2019/11/17  17:33:00  BASE  1.25244  198  2.0286   192  0.8   100   0.8   666   0     972.3    NA       0.0000   9999     8530  0     0    
2019/11/17  17:34:00  BASE  1.32888  198  2.0286   192  0.8   100   0.8   667   0     972.3    NA       0.0000   9999     8560  0     0    
2019/11/17  17:35:00  BASE  1.29948  188  2.0286   192  0.8   100   0.8   697   0     972.3    NA       0.0000   9999     8530  0     0    
2019/11/17  17:36:00  BASE  1.11132  175  1.96392  188  0.8   100   0.8   666   0     972.3    NA       0.0000   9999     8500  0     0    
2019/11/17  17:37:00  BASE  0.9408   179  1.87572  220  0.7   100   0.7   660   0     972.3    NA       0.0000   9999     8460  0     0    
2019/11/17  17:38:00  BASE  1.05252  189  1.81692  212  0.7   100   0.7   719   0     972.3    NA       0.0000   9999     8560  0     0    
2019/11/17  17:39:00  BASE  1.27008  197  1.51116  208  0.7   100   0.7   647   0     972.3    NA       0.0000   9999     8560  0     0    
2019/11/17  17:40:00  BASE  1.323    207  1.48176  208  0.7   100   0.7   698   0     972.3    NA       0.0000   9999     8500  0     0    
2019/11/17  17:41:00  BASE  1.25244  214  1.48176  208  0.7   100   0.7   716   0     972.3    NA       0.0000   9999     8530  0     0    
2019/11/17  17:42:00  BASE  1.16424  217  1.48176  208  0.7   100   0.7   658   0     972.3    NA       0.0000   9999     8500  0     0    
2019/11/17  17:43:00  BASE  1.0878   217  1.48176  208  0.7   100   0.7   876   0     972.3    NA       0.0000   9999     8460  0     0    
2019/11/17  17:44:00  BASE  0.92316  211  1.48176  208  0.7   100   0.7   727   0     972.0    NA       0.0000   9999     8460  0     0    
2019/11/17  17:45:00  BASE  0.7644   208  1.48176  208  0.7   100   0.7   889   0     972.3    NA       0.0000   9999     8560  0     0    
2019/11/17  17:46:00  BASE  0.65856  208  1.48176  208  0.7   100   0.7   692   0     972.3    NA       0.0000   9999     8530  0     0    
2019/11/17  17:47:00  BASE  0.77616  204  1.48176  208  0.7   100   0.7   811   0     972.1    NA       0.0000   9999     8500  0     0    
2019/11/17  17:48:00  BASE  1.02312  205  1.48176  208  0.7   100   0.7   643   0     972.3    NA       0.0000   9999     8370  0     0    
2019/11/17  17:49:00  BASE  1.1172   211  1.48176  208  0.7   100   0.7   591   0     972.3    NA       0.0000   9999     8460  0     0    
2019/11/17  17:50:00  BASE  1.0878   213  1.29948  204  0.7   100   0.7   566   0     972.3    NA       0.0000   9999     8600  0     0    
2019/11/17  17:51:00  BASE  1.07016  215  1.27008  213  0.6   100   0.6   722   0     972.3    NA       0.0000   9999     8500  0     0    
2019/11/17  17:52:00  BASE  1.11132  223  1.27008  213  0.6   100   0.6   513   0     972.3    NA       0.0000   9999     8500  0     0    
2019/11/17  17:53:00  BASE  1.03488  231  1.27008  213  0.6   100   0.6   486   0     972.3    NA       0.0000   9999     8660  0     0    
2019/11/17  17:54:00  BASE  0.74088  225  1.27008  213  0.7   100   0.7   490   0     972.3    NA       0.0000   9999     8500  0     0    
2019/11/17  17:55:00  BASE  0.25872  210  1.27008  213  0.7   100   0.7   491   0     972.3    NA       0.0000   9999     8660  0     0    
2019/11/17  17:56:00  BASE  0.05292  207  1.27008  213  0.8   100   0.8   467   0     972.2    NA       0.0000   9999     8630  0     0    
2019/11/17  17:57:00  BASE  0.05292  196  1.27008  213  0.8   100   0.8   452   0     972.2    NA       0.0000   9999     8560  0     0    
2019/11/17  17:58:00  BASE  0        186  1.27008  213  0.8   100   0.8   449   0     972.2    NA       0.0000   9999     16570 0     0    
2019/11/17  17:59:00  BASE  0        267  1.21128  221  0.9   100   0.9   454   0     972.2    NA       0.0000   9999     8460  0     0    
2019/11/17  18:00:00  BASE  0        281  1.21128  221  0.8   100   0.8   463   0     972.2    NA       0.0000   9999     8530  0     0    
2019/11/17  18:01:00  BASE  0.25872  233  1.21128  221  0.9   100   0.9   470   0     972.2    NA       0.0000   9999     8660  0     0    
2019/11/17  18:02:00  BASE  0.80556  216  1.24068  213  0.8   100   0.8   475   0     972.2    NA       0.0000   9999     8530  0     0    
2019/11/17  18:03:00  BASE  1.18776  222  1.54056  225  0.8   100   0.8   479   0     972.2    NA       0.0000   9999     8600  0     0    
2019/11/17  18:04:00  BASE  1.27596  222  1.54056  225  0.8   100   0.8   481   0     972.2    NA       0.0000   9999     8630  0     0    
2019/11/17  18:05:00  BASE  1.24068  220  1.54056  225  0.8   100   0.8   486   0     972.2    NA       0.0000   9999     8430  0     0    
2019/11/17  18:06:00  BASE  1.12896  217  1.54056  225  0.8   100   0.8   496   0     972.2    NA       0.0000   9999     8600  0     0    
2019/11/17  18:07:00  BASE  1.07016  218  1.54056  225  0.8   100   0.8   498   0     972.2    NA       0.0000   9999     8460  0     0    
2019/11/17  18:08:00  BASE  1.0878   217  1.54056  225  0.8   100   0.8   500   0     972.2    NA       0.0000   9999     8400  0     0    
2019/11/17  18:09:00  BASE  0.9702   213  1.54056  225  0.8   100   0.8   506   0     972.2    NA       0.0000   9999     8460  8790  0    
2019/11/17  18:10:00  BASE  0.4998   214  1.54056  225  0.9   100   0.9   504   0     972.2    NA       0.0000   9999     8460  0     0    
2019/11/17  18:11:00  BASE  0.27048  209  1.54056  225  0.9   100   0.9   501   0     972.2    NA       0.0000   9999     8600  0     0    
2019/11/17  18:12:01  BASE  0.18816  196  1.54056  225  1.0   100   1.0   496   0     972.2    NA       0.0000   9999     8460  0     0    
2019/11/17  18:13:00  BASE  0        165  1.42296  225  1.0   100   1.0   490   0     972.2    NA       0.0000   9999     8460  0     0    
2019/11/17  18:14:00  BASE  0        133  1.42296  225  1.0   100   1.0   483   0     972.2    NA       0.0000   9999     8430  0     0    
2019/11/17  18:15:00  BASE  0        130  1.18188  215  1.0   100   1.0   475   0     972.2    NA       0.0000   9999     8500  0     0    
2019/11/17  18:16:00  BASE  0.0294   139  1.18188  215  1.0   100   1.0   468   0     972.2    NA       0.0000   9999     8460  0     0    
2019/11/17  18:17:00  BASE  0.34104  158  1.18188  215  1.0   100   1.0   463   0     972.2    NA       0.0000   9999     8500  0     0    
2019/11/17  18:18:00  BASE  0.69384  180  1.029    220  0.9   100   0.9   459   0     972.1    NA       0.0000   9999     8460  0     0    
2019/11/17  18:19:00  BASE  0.78204  191  0.90552  198  0.8   100   0.8   457   0     971.9    NA       0.0000   9999     8400  0     0    
2019/11/17  18:20:00  BASE  0.84672  198  0.9702   196  0.8   100   0.8   456   0     972.0    NA       0.0000   9999     8300  0     0    
2019/11/17  18:21:00  BASE  0.97608  199  1.21128  190  0.7   100   0.7   455   0     972.2    NA       0.0000   9999     8430  0     0    
2019/11/17  18:22:00  BASE  1.21128  183  1.57584  170  0.7   100   0.7   453   0     972.2    NA       0.0000   9999     8300  0     0    
2019/11/17  18:23:00  BASE  1.4994   166  1.75224  163  0.7   100   0.7   452   0     972.2    NA       0.0000   9999     8330  0     0    
2019/11/17  18:24:00  BASE  1.66992  165  1.81692  160  0.8   100   0.8   451   0     972.2    NA       0.0000   9999     8300  0     0    
2019/11/17  18:25:00  BASE  1.71108  168  1.90512  166  0.8   100   0.8   451   0     972.2    NA       0.0000   9999     8270  0     0    
2019/11/17  18:26:00  BASE  1.74636  173  1.93452  183  0.8   100   0.8   451   0     972.2    NA       0.0000   9999     8300  0     0    
2019/11/17  18:27:00  BASE  1.911    177  2.26968  184  0.8   100   0.8   448   0     972.2    NA       0.0000   9999     8300  0     0    
2019/11/17  18:28:00  BASE  2.07564  178  2.32848  175  0.8   100   0.8   441   0     972.2    NA       0.0000   9999     8430  0     0    
2019/11/17  18:29:00  BASE  2.21088  173  2.38728  178  0.8   100   0.8   436   0     972.2    NA       0.0000   9999     8430  0     0    
2019/11/17  18:30:00  BASE  2.32848  167  2.56956  166  0.7   100   0.7   430   0     972.2    NA       0.0000   9999     260   8500  0    
2019/11/17  18:31:00  BASE  2.39316  166  2.63424  166  0.7   100   0.7   425   0     972.1    NA       0.0000   9999     200   8500  0    
2019/11/17  18:32:00  BASE  2.3814   165  2.63424  166  0.7   100   0.7   425   0     972.1    NA       0.0000   9999     230   8300  0    
2019/11/17  18:33:00  BASE  2.36964  164  2.69304  165  0.7   100   0.7   426   0     972.1    NA       0.0000   9999     230   8500  0    
2019/11/17  18:34:01  BASE  2.37552  164  2.69304  165  0.7   100   0.7   425   0     972.0    NA       0.0000   9999     8560  0     0    
2019/11/17  18:35:00  BASE  2.2932   162  2.69304  165  0.7   100   0.7   425   0     971.9    NA       0.0000   9999     8430  0     0    
2019/11/17  18:36:00  BASE  2.205    160  2.69304  165  0.7   100   0.7   426   0     972.2    NA       0.0000   9999     8400  0     0    
2019/11/17  18:37:00  BASE  2.21088  160  2.69304  165  0.7   100   0.7   427   0     972.2    NA       0.0000   9999     8560  0     0    
2019/11/17  18:38:00  BASE  2.21676  158  2.69304  165  0.7   100   0.7   429   0     972.2    NA       0.0000   9999     8400  0     0    
2019/11/17  18:39:00  BASE  2.19324  155  2.69304  165  0.6   100   0.6   426   0     972.2    NA       0.0000   9999     8370  0     0    
2019/11/17  18:40:00  BASE  2.19912  153  2.69304  165  0.6   100   0.6   424   0     972.2    NA       0.0000   9999     8370  0     0    
2019/11/17  18:41:00  BASE  2.13444  151  2.69304  165  0.6   100   0.6   421   0     972.2    NA       0.0000   9999     8370  0     0    
2019/11/17  18:42:00  BASE  1.9992   149  2.69304  165  0.6   100   0.6   418   0     972.2    NA       0.0000   9999     8430  0     0    
2019/11/17  18:43:00  BASE  1.92864  148  2.54016  158  0.6   100   0.5   414   0     972.2    NA       0.0000   9999     8500  0     0    
2019/11/17  18:44:00  BASE  2.01684  150  2.54016  158  0.5   100   0.5   410   0     972.2    NA       0.0000   9999     8500  0     0    
2019/11/17  18:45:00  BASE  2.12856  151  2.54016  158  0.5   100   0.5   408   0     972.1    NA       0.0000   9999     8370  0     0    
2019/11/17  18:46:00  BASE  2.12268  151  2.54016  158  0.6   100   0.6   406   0     972.2    NA       0.0000   9999     8300  0     0    
2019/11/17  18:47:00  BASE  2.04624  155  2.35788  151  0.6   100   0.6   406   0     972.2    NA       0.0000   9999     8430  0     0    
2019/11/17  18:48:00  BASE  2.15208  156  2.51076  164  0.6   100   0.6   406   0     972.2    NA       0.0000   9999     8400  0     0    
2019/11/17  18:49:00  BASE  2.31084  156  2.51076  164  0.6   100   0.6   408   0     972.2    NA       0.0000   9999     8370  0     0    
2019/11/17  18:50:00  BASE  2.3814   160  2.59896  162  0.6   100   0.6   411   0     972.2    NA       0.0000   9999     8370  0     0    
2019/11/17  18:51:00  BASE  2.47548  165  2.69304  164  0.6   100   0.6   413   0     972.2    NA       0.0000   9999     8300  0     0    
2019/11/17  18:52:00  BASE  2.48724  167  2.69304  164  0.6   100   0.6   415   0     972.2    NA       0.0000   9999     8200  0     0    
2019/11/17  18:53:00  BASE  2.66952  169  3.2046   166  0.6   100   0.6   414   0     972.1    NA       0.0000   9999     8370  0     0    
2019/11/17  18:54:00  BASE  3.0576   170  3.29868  170  0.6   100   0.6   414   0     972.1    NA       0.0000   9999     8430  0     0    
2019/11/17  18:55:00  BASE  3.22812  170  3.35748  172  0.5   100   0.5   408   0     972.1    NA       0.0000   9999     920   0     0    
2019/11/17  18:56:00  BASE  3.18696  171  3.35748  172  0.5   100   0.5   403   0     972.1    NA       0.0000   9999     0     0     0    
2019/11/17  18:57:00  BASE  3.1164   173  3.35748  172  0.4   100   0.4   403   0     972.1    NA       0.0000   9999     0     0     0    
2019/11/17  18:58:00  BASE  3.16932  175  3.44568  168  0.3   100   0.3   399   0     972.1    NA       0.0000   9999     0     0     0    
2019/11/17  18:59:00  BASE  3.3222   173  3.56916  173  0.3   100   0.3   395   0     972.1    NA       0.0000   9999     0     0     0    
2019/11/17  19:00:00  BASE  3.36336  171  3.56916  173  0.2   100   0.2   393   0     972.1    NA       0.0000   9999     0     0     0    
2019/11/17  19:01:00  BASE  3.33984  170  3.56916  173  0.2   100   0.2   390   0     972.0    NA       0.0000   9999     0     0     0    
2019/11/17  19:02:00  BASE  3.45744  166  3.90432  160  0.2   100   0.2   387   0     972.1    NA       0.0000   9999     0     0     0    
2019/11/17  19:03:00  BASE  3.45744  164  3.90432  160  0.2   100   0.2   388   0     972.1    NA       0.0000   9999     0     0     0    
2019/11/17  19:04:00  BASE  3.2928   159  3.90432  160  0.2   100   0.2   384   0     972.1    NA       0.0000   9999     0     0     0    
2019/11/17  19:05:00  BASE  3.1164   161  3.90432  160  0.1   100   0.1   384   0     972.0    NA       0.0000   9999     0     0     0    
2019/11/17  19:06:00  BASE  3.087    167  3.90432  160  0.2   100   0.2   379   0     972.0    NA       0.0000   9999     0     0     0    
2019/11/17  19:07:00  BASE  3.27516  166  3.90432  160  0.2   100   0.2   376   0     972.0    NA       0.0000   9999     0     0     0    
2019/11/17  19:08:00  BASE  3.1458   163  3.90432  160  0.2   100   0.2   365   0     972.0    NA       0.0000   9999     0     0     0    
2019/11/17  19:09:00  BASE  2.96352  162  3.90432  160  0.2   100   0.2   354   0     972.1    NA       0.0000   9999     0     0     0    
2019/11/17  19:10:00  BASE  3.09288  161  3.90432  160  0.2   100   0.2   348   0     972.1    NA       0.0000   9999     0     0     0    
2019/11/17  19:11:00  BASE  2.95764  167  3.90432  160  0.1   100   0.1   345   0     972.1    NA       0.0000   9999     0     0     0    
2019/11/17  19:12:00  BASE  2.7342   166  3.62796  159  0.1   100   0.1   341   0     972.1    NA       0.0000   9999     0     0     0    
2019/11/17  19:13:00  BASE  2.7342   160  3.62796  159  0.1   100   0.1   342   0     972.1    NA       0.0000   9999     18080 0     0    
2019/11/17  19:14:00  BASE  2.57544  160  3.62796  159  0.1   100   0.1   318   0     972.1    NA       0.0000   9999     0     0     0    
2019/11/17  19:15:00  BASE  2.54604  157  3.62796  159  0.1   100   0.1   303   0     972.1    NA       0.0000   9999     22900 0     0    
2019/11/17  19:16:00  BASE  2.66364  155  3.62796  159  0.1   100   0.1   299   0     972.1    NA       0.0000   9999     0     0     0    
2019/11/17  19:17:00  BASE  2.51664  155  3.32808  158  0.1   100   0.1   303   0     972.0    NA       0.0000   9999     0     0     0    
2019/11/17  19:18:00  BASE  2.352    155  3.29868  162  0.1   100   0.1   303   0     972.1    NA       0.0000   9999     0     0     0    
2019/11/17  19:19:00  BASE  2.28732  156  3.29868  162  0.1   100   0.1   308   0     972.1    NA       0.0000   9999     0     0     0    
2019/11/17  19:20:00  BASE  2.21088  154  3.29868  162  0.0   100   0.0   314   0     972.0    NA       0.0000   9999     20830 22470 0    
2019/11/17  19:21:00  BASE  2.01684  152  3.1164   163  0.0   100   0.0   313   0     972.1    NA       0.0000   9999     0     0     0    
2019/11/17  19:22:00  BASE  1.89336  152  3.02232  164  0.0   100   -0.0  308   0     972.1    NA       0.0000   9999     0     0     0    
2019/11/17  19:23:00  BASE  1.95216  154  3.02232  164  0.0   100   0.0   301   0     972.2    NA       0.0000   9999     0     0     0    
2019/11/17  19:24:00  BASE  1.91688  171  3.02232  164  0.0   100   0.0   295   0     972.2    NA       0.0000   9999     0     0     0    
2019/11/17  19:25:00  BASE  1.60524  174  3.02232  164  0.1   100   0.1   292   0     972.2    NA       0.0000   9999     0     0     0    
2019/11/17  19:26:00  BASE  1.51116  166  2.72244  163  0.1   100   0.1   292   0     972.2    NA       0.0000   9999     0     0     0    
2019/11/17  19:27:00  BASE  1.63464  168  2.72244  163  0.1   100   0.1   289   0     972.2    NA       0.0000   9999     0     0     0    
2019/11/17  19:28:00  BASE  1.72284  166  2.72244  163  0.1   100   0.1   286   0     972.2    NA       0.0000   5000     0     0     0    
2019/11/17  19:29:00  BASE  1.85808  167  2.38728  158  0.1   100   0.1   286   0     972.2    NA       0.0000   9999     0     0     0    
2019/11/17  19:30:00  BASE  2.02272  171  2.24028  169  0.1   100   0.1   290   0     972.2    NA       0.0000   9999     0     0     0    
2019/11/17  19:31:00  BASE  1.92864  168  2.24028  169  0.1   100   0.1   292   0     972.2    NA       0.0000   9999     20670 21290 0    
2019/11/17  19:32:00  BASE  1.64052  166  2.24028  169  0.1   100   0.1   288   0     972.2    NA       0.0000   9999     0     0     0    
2019/11/17  19:33:00  BASE  1.84044  166  2.35788  172  0.1   100   0.1   286   0     972.2    NA       0.0000   9999     0     0     0    
2019/11/17  19:34:00  BASE  1.94628  164  2.35788  172  0.1   100   0.1   289   0     972.2    NA       0.0000   9999     0     0     0    
2019/11/17  19:35:00  BASE  1.764    168  2.35788  172  0.1   100   0.1   291   0     972.2    NA       0.0000   9999     0     0     0    
2019/11/17  19:36:00  BASE  1.65228  180  2.35788  172  0.1   100   0.1   298   0     972.1    NA       0.0000   9999     0     0     0    
2019/11/17  19:37:00  BASE  1.37592  190  2.35788  172  0.1   100   0.1   303   0     972.2    NA       0.0000   9999     0     0     0    
2019/11/17  19:38:00  BASE  1.25244  191  2.35788  172  0.1   100   0.1   309   0     972.1    NA       0.0000   9999     0     0     0    
2019/11/17  19:39:00  BASE  1.34064  196  2.35788  172  0.1   100   0.1   314   0     972.1    NA       0.0000   9999     0     0     0    
2019/11/17  19:40:00  BASE  1.37004  193  2.35788  172  0.1   100   0.1   312   0     972.1    NA       0.0000   9999     0     0     0    
2019/11/17  19:41:00  BASE  1.51116  180  2.35788  172  0.1   100   0.1   311   0     972.1    NA       0.0000   9999     0     0     0    
2019/11/17  19:42:00  BASE  1.63464  175  2.35788  172  0.1   100   0.1   307   0     972.1    NA       0.0000   9999     0     0     0    
2019/11/17  19:43:00  BASE  1.65816  177  2.0874   157  0.1   100   0.1   315   0     972.1    NA       0.0000   9999     0     0     0    
2019/11/17  19:44:00  BASE  1.62876  180  1.84632  192  0.1   100   0.1   319   0     972.1    NA       0.0000   9999     0     0     0    
2019/11/17  19:45:00  BASE  1.69932  177  1.93452  168  0.1   100   0.1   325   0     972.1    NA       0.0000   9999     0     0     0    
2019/11/17  19:46:00  BASE  1.74048  175  1.93452  168  0.0   100   0.0   330   0     972.1    NA       0.0000   9999     0     0     0    
2019/11/17  19:47:00  BASE  1.50528  174  1.93452  168  0.0   100   0.0   322   0     972.1    NA       0.0000   9999     0     0     0    
2019/11/17  19:48:00  BASE  1.35828  166  1.93452  168  0.1   100   0.1   321   0     972.0    NA       0.0000   9999     0     0     0    
2019/11/17  19:49:00  BASE  1.22892  163  1.93452  168  0.1   100   0.1   326   0     972.0    NA       0.0000   9999     0     0     0    
2019/11/17  19:50:00  BASE  1.1466   157  1.93452  168  0.1   100   0.1   330   0     972.0    NA       0.0000   9999     0     0     0    
2019/11/17  19:51:00  BASE  1.16424  154  1.93452  168  0.1   100   0.1   326   0     972.0    NA       0.0000   6000     0     0     0    
2019/11/17  19:52:00  BASE  1.04076  149  1.93452  168  0.1   100   0.1   321   0     972.0    NA       0.0000   9999     0     0     0    
2019/11/17  19:53:00  BASE  1.04076  145  1.93452  168  0.1   100   0.1   324   0     972.0    NA       0.0000   9999     0     0     0    
2019/11/17  19:54:00  BASE  1.1466   150  1.93452  168  0.1   100   0.1   337   0     972.0    NA       0.0000   9999     22510 0     0    
2019/11/17  19:55:00  BASE  1.17012  153  1.78752  178  0.1   100   0.1   364   0     972.0    NA       0.0000   9999     0     0     0    
2019/11/17  19:56:01  BASE  1.21128  154  1.57584  174  0.2   100   0.2   378   0     972.0    NA       0.0000   9999     0     0     0    
2019/11/17  19:57:00  BASE  1.07016  150  1.57584  174  0.2   100   0.2   392   0     972.0    NA       0.0000   9999     0     0     0    
2019/11/17  19:58:00  BASE  0.85848  145  1.35828  151  0.2   100   0.2   385   0     972.0    NA       0.0000   9999     0     0     0    
2019/11/17  19:59:00  BASE  1.029    146  1.35828  147  0.2   100   0.2   394   0     972.0    NA       0.0000   9999     0     0     0    
2019/11/17  20:00:00  BASE  1.32888  156  1.63464  158  0.2   100   0.2   400   0     972.0    NA       0.0000   9999     0     0     0    
2019/11/17  20:01:00  BASE  1.38768  164  1.63464  158  0.2   100   0.2   385   0     972.0    NA       0.0000   9999     0     0     0    
2019/11/17  20:02:00  BASE  1.37004  170  1.63464  158  0.2   100   0.2   358   0     972.0    NA       0.0000   9999     0     0     0    
2019/11/17  20:03:00  BASE  1.18776  170  1.63464  158  0.1   100   0.1   333   0     972.0    NA       0.0000   9999     0     0     0    
2019/11/17  20:04:00  BASE  0.99372  165  1.63464  158  0.1   100   0.1   314   0     972.0    NA       0.0000   9999     0     0     0    
2019/11/17  20:05:00  BASE  0.75264  164  1.63464  158  0.1   100   0.1   296   0     972.0    NA       0.0000   9999     0     0     0    
2019/11/17  20:06:00  BASE  0.32928  153  1.63464  158  0.1   100   0.1   287   0     972.0    NA       0.0000   9999     0     0     0    
2019/11/17  20:07:00  BASE  0.08232  136  1.63464  158  0.1   100   0.1   289   0     972.0    NA       0.0000   9999     0     0     0    
2019/11/17  20:08:00  BASE  0        131  1.63464  158  0.1   100   0.1   296   0     972.0    NA       0.0000   9999     0     0     0    
2019/11/17  20:09:00  BASE  0        148  1.63464  158  0.1   100   0.1   303   0     972.0    NA       0.0000   9999     0     0     0    
2019/11/17  20:10:00  BASE  0.24696  158  1.51116  162  0.1   100   0.1   311   0     972.0    NA       0.0000   9999     0     0     0    
2019/11/17  20:11:00  BASE  0.24696  155  1.51116  162  0.1   100   0.1   297   0     972.0    NA       0.0000   9999     0     0     0    
2019/11/17  20:12:00  BASE  0.08232  157  1.21128  169  0.1   100   0.1   290   0     972.0    NA       0.0000   9999     0     0     0    
2019/11/17  20:13:00  BASE  0.22932  161  1.1466   167  0.2   100   0.2   286   0     972.0    NA       0.0000   9999     22380 0     0    
2019/11/17  20:14:00  BASE  0.14112  178  0.81732  161  0.2   100   0.2   282   0     972.0    NA       0.0000   9999     0     0     0    
2019/11/17  20:15:00  BASE  0        191  0.75852  149  0.3   100   0.3   278   0     972.0    NA       0.0000   9999     0     0     0    
2019/11/17  20:16:00  BASE  0        195  0.75852  149  0.2   100   0.2   276   0     972.0    NA       0.0000   9999     160   0     0    
2019/11/17  20:17:00  BASE  0        190  0.75852  149  0.2   100   0.2   276   0     972.0    NA       0.0000   9999     200   0     0    
2019/11/17  20:18:00  BASE  0        174  0.75852  149  0.2   100   0.2   280   0     972.0    NA       0.0000   9999     160   0     0    
2019/11/17  20:19:00  BASE  0        195  0.75852  149  0.2   100   0.2   287   0     972.0    NA       0.0000   9999     160   0     0    
2019/11/17  20:20:00  BASE  0        222  0.72324  159  0.2   100   0.2   298   0     972.0    NA       0.0000   9999     160   0     0    
2019/11/17  20:21:00  BASE  0.16464  225  0.72324  228  0.2   100   0.2   308   0     972.0    NA       0.0000   9999     160   0     0    
2019/11/17  20:22:00  BASE  0.5292   221  0.9702   205  0.2   100   0.2   308   0     972.0    NA       0.0000   9999     160   0     0    
2019/11/17  20:23:00  BASE  0.78792  206  1.029    184  0.2   100   0.2   304   0     971.9    NA       0.0000   9999     160   0     0    
2019/11/17  20:24:00  BASE  0.69972  204  1.029    184  0.2   100   0.2   304   0     972.0    NA       0.0000   9999     160   0     0    
2019/11/17  20:25:00  BASE  0.55272  210  1.029    184  0.1   100   0.1   303   0     972.0    NA       0.0000   9999     160   0     0    
2019/11/17  20:26:00  BASE  0.45864  210  1.029    184  0.1   100   0.1   309   0     972.0    NA       0.0000   9999     160   0     0    
2019/11/17  20:27:00  BASE  0.6174   216  1.029    184  0.1   100   0.1   288   0     972.0    NA       0.0000   9999     160   0     0    
2019/11/17  20:28:00  BASE  0.90552  218  1.029    228  0.1   100   0.1   277   0     972.0    NA       0.0000   9999     160   0     0    
2019/11/17  20:29:00  BASE  0.97608  217  1.21128  216  0.1   100   0.1   277   0     972.0    NA       0.0000   9999     160   0     0    
2019/11/17  20:30:00  BASE  1.01136  214  1.21128  216  0.1   100   0.1   271   0     972.0    NA       0.0000   9999     160   21490 0    
2019/11/17  20:31:00  BASE  0.88788  210  1.21128  216  0.1   100   0.1   272   0     972.0    NA       0.0000   9999     160   0     0    
2019/11/17  20:32:00  BASE  0.65268  214  1.21128  216  0.1   100   0.1   273   0     972.0    NA       0.0000   9999     200   0     0    
2019/11/17  20:33:00  BASE  0.57036  218  1.21128  216  0.1   100   0.1   266   0     972.0    NA       0.0000   9999     200   0     0    
2019/11/17  20:34:00  BASE  0.32928  219  1.21128  216  0.0   100   0.0   267   0     972.0    NA       0.0000   9999     160   0     0    
2019/11/17  20:35:00  BASE  0.07644  223  1.21128  216  0.0   100   0.0   268   0     972.0    NA       0.0000   9999     160   0     0    
2019/11/17  20:36:00  BASE  0.05292  225  1.21128  216  0.0   100   0.0   271   0     972.0    NA       0.0000   9999     160   22080 0    
2019/11/17  20:37:00  BASE  0        227  1.21128  216  0.0   100   0.0   275   0     972.0    NA       0.0000   9999     160   0     0    
2019/11/17  20:38:00  BASE  0        231  1.21128  216  0.0   100   0.0   274   0     972.0    NA       0.0000   9999     160   0     0    
2019/11/17  20:39:00  BASE  0        235  1.1466   212  0.1   100   0.1   274   0     972.0    NA       0.0000   9999     160   0     0    
2019/11/17  20:40:00  BASE  0        237  0.90552  213  0.1   100   0.1   276   0     972.0    NA       0.0000   9999     0     0     0    
2019/11/17  20:41:00  BASE  0        222  0.81732  209  0.1   100   0.1   273   0     972.0    NA       0.0000   9999     160   0     0    
2019/11/17  20:42:00  BASE  0        196  0.75852  209  0.1   100   0.1   275   0     972.0    NA       0.0000   9999     160   0     0    
2019/11/17  20:43:00  BASE  0.05292  213  0.66444  223  0.1   100   0.1   281   0     972.0    NA       0.0000   9999     160   0     0    
2019/11/17  20:44:00  BASE  0.05292  232  0.66444  223  0.1   100   0.1   294   0     972.0    NA       0.0000   9999     160   0     0    
2019/11/17  20:45:00  BASE  0        230  0.63504  244  0.1   100   0.1   305   0     972.0    NA       0.0000   9999     160   0     0    
2019/11/17  20:46:01  BASE  0        231  0.63504  244  0.2   100   0.2   299   0     972.0    NA       0.0000   9999     160   0     0    
2019/11/17  20:47:00  BASE  0        227  0.63504  244  0.2   100   0.2   295   0     972.0    NA       0.0000   9999     160   0     0    
2019/11/17  20:48:01  BASE  0        209  0.63504  244  0.2   100   0.2   298   0     971.9    NA       0.0000   9999     160   0     0    
2019/11/17  20:49:00  BASE  0        181  0.63504  244  0.2   100   0.2   274   0     971.8    NA       0.0000   9999     160   0     0    
2019/11/17  20:50:00  BASE  0        163  0.63504  244  0.2   100   0.2   265   0     971.8    NA       0.0000   9999     160   0     0    
2019/11/17  20:51:00  BASE  0.17052  157  0.72324  154  0.2   100   0.2   239   0     971.8    NA       0.0000   9999     160   0     0    
2019/11/17  20:52:00  BASE  0.41748  155  0.72324  154  0.2   100   0.2   226   0     971.8    NA       0.0000   9999     200   0     0    
2019/11/17  20:53:00  BASE  0.67032  159  0.9996   168  0.2   100   0.2   217   0     971.8    NA       0.0000   9999     200   0     0    
2019/11/17  20:54:00  BASE  0.81732  162  0.9996   168  0.2   100   0.2   211   0     971.8    NA       0.0000   9999     160   0     0    
2019/11/17  20:55:00  BASE  0.88788  161  1.18188  164  0.3   100   0.3   210   0     971.8    NA       0.0000   9999     160   0     0    
2019/11/17  20:56:00  BASE  1.02312  169  1.18188  171  0.3   100   0.3   216   0     971.8    NA       0.0000   9999     160   0     0    
2019/11/17  20:57:00  BASE  1.0584   178  1.18188  171  0.3   100   0.3   218   0     971.5    NA       0.0000   9999     160   0     0    
2019/11/17  20:58:00  BASE  1.08192  187  1.29948  194  0.3   100   0.3   213   0     971.7    NA       0.0000   9999     160   0     0    
2019/11/17  20:59:00  BASE  1.18188  186  1.39356  178  0.2   100   0.2   206   0     971.7    NA       0.0000   9999     160   0     0    
2019/11/17  21:00:00  BASE  1.07604  181  1.39356  178  0.2   100   0.2   202   0     971.7    NA       0.0000   9999     160   0     0    
2019/11/17  21:01:00  BASE  0.91728  178  1.39356  178  0.1   100   0.1   203   0     971.7    NA       0.0000   9999     160   0     0    
2019/11/17  21:02:00  BASE  1.01724  167  1.39356  178  0.1   100   0.1   203   0     971.7    NA       0.0000   9999     160   21420 0    
2019/11/17  21:03:00  BASE  1.0878   162  1.39356  178  0.1   100   0.1   201   0     971.7    NA       0.0000   9999     160   0     0    
2019/11/17  21:04:00  BASE  1.07604  161  1.39356  178  0.1   100   0.1   201   0     971.8    NA       0.0000   9999     160   0     0    
2019/11/17  21:05:00  BASE  0.98196  154  1.39356  178  0.1   100   0.1   203   0     971.8    NA       0.0000   9999     160   0     0    
2019/11/17  21:06:00  BASE  0.87612  145  1.39356  178  0.1   100   0.1   201   0     971.8    NA       0.0000   9999     160   0     0    
2019/11/17  21:07:00  BASE  0.90552  139  1.39356  178  0.1   100   0.1   196   0     971.8    NA       0.0000   9999     160   0     0    
2019/11/17  21:08:00  BASE  0.95256  133  1.39356  178  0.1   100   0.1   192   0     971.8    NA       0.0000   9999     160   0     0    
2019/11/17  21:09:00  BASE  1.21716  138  1.63464  151  0.1   100   0.1   188   0     971.7    NA       0.0000   9999     200   0     0    
2019/11/17  21:10:00  BASE  1.60524  149  1.87572  152  0.1   100   0.1   186   0     971.7    NA       0.0000   9999     160   0     0    
2019/11/17  21:11:00  BASE  1.69344  147  2.058    139  0.1   100   0.1   185   0     971.7    NA       0.0000   9999     160   0     0    
2019/11/17  21:12:00  BASE  1.96392  145  2.45196  144  0.1   100   0.1   186   0     971.7    NA       0.0000   9999     160   0     0    
2019/11/17  21:13:00  BASE  2.24616  150  2.45196  144  0.1   100   0.1   185   0     971.7    NA       0.0000   9999     160   0     0    
2019/11/17  21:14:00  BASE  2.09916  154  2.45196  144  0.1   100   0.1   185   0     971.7    NA       0.0000   9999     0     0     0    
2019/11/17  21:15:00  BASE  1.96392  155  2.45196  144  0.1   100   0.1   183   0     971.7    NA       0.0000   9999     160   0     0    
2019/11/17  21:16:00  BASE  1.86396  159  2.45196  144  0.0   100   0.0   183   0     971.7    NA       0.0000   9999     160   0     0    
2019/11/17  21:17:00  BASE  1.63464  162  2.45196  144  0.0   100   0.0   186   0     971.7    NA       0.0000   9999     160   0     0    
2019/11/17  21:18:00  BASE  1.71696  160  2.45196  144  0.1   100   0.1   190   0     971.7    NA       0.0000   9999     160   0     0    
2019/11/17  21:19:00  BASE  1.90512  157  2.45196  144  0.1   100   0.1   194   0     971.7    NA       0.0000   9999     0     0     0    
2019/11/17  21:20:00  BASE  1.84044  155  2.45196  144  0.0   100   0.0   193   0     971.7    NA       0.0000   8000     0     0     0    
2019/11/17  21:21:00  BASE  2.01096  152  2.45196  158  0.1   100   0.1   194   0     971.7    NA       0.0000   9999     160   0     0    
2019/11/17  21:22:00  BASE  2.22852  151  2.54016  153  0.0   100   0.0   195   0     971.7    NA       0.0000   9000     0     0     0    
2019/11/17  21:23:00  BASE  2.31672  153  2.78124  162  0.0   100   0.0   193   0     971.7    NA       0.0000   8000     0     0     0    
2019/11/17  21:24:00  BASE  2.54604  158  2.96352  168  0.0   100   0.0   189   0     971.7    NA       0.0000   9999     0     0     0    
2019/11/17  21:25:00  BASE  2.81064  164  3.087    168  0.0   100   0.0   184   0     971.6    NA       0.0000   9999     0     0     0    
2019/11/17  21:26:00  BASE  2.8224   165  3.087    165  0.0   100   0.0   180   0     971.6    NA       0.0000   BR       8000  0     0    
2019/11/17  21:27:00  BASE  2.46372  159  3.087    165  0.0   100   0.0   175   0     971.6    NA       0.0000   BR       6000  0     0    
2019/11/17  21:28:00  BASE  2.19324  148  3.087    165  -0.0  100   -0.0  170   0     971.6    NA       0.0000   BR       8000  0     0    
2019/11/17  21:29:00  BASE  2.30496  138  3.087    165  -0.0  100   -0.0  163   0     971.6    NA       0.0000   BR       9999  0     0    
2019/11/17  21:30:00  BASE  2.39904  139  3.087    165  -0.0  100   -0.0  158   0     971.6    NA       0.0000   BR       9999  0     0    
2019/11/17  21:31:00  BASE  2.352    140  3.087    165  -0.1  100   -0.1  156   0     971.6    NA       0.0000   BR       8000  0     0    
2019/11/17  21:32:00  BASE  2.31672  139  3.087    165  -0.1  100   -0.1  155   0     971.6    NA       0.0000   BR       7000  0     0    
2019/11/17  21:33:00  BASE  2.34612  140  3.087    165  -0.1  100   -0.1  154   0     971.6    NA       0.0000   BR       7000  0     0    
2019/11/17  21:34:00  BASE  2.2344   136  3.087    165  -0.1  100   -0.1  152   0     971.6    NA       0.0000   BR       7000  0     0    
2019/11/17  21:35:00  BASE  2.13444  128  3.087    165  -0.1  100   -0.1  147   0     971.6    NA       0.0000   BR       9000  0     0    
2019/11/17  21:36:00  BASE  2.3226   129  2.87532  136  -0.1  100   -0.1  147   0     971.6    NA       0.0000   BR       9000  0     0    
2019/11/17  21:37:00  BASE  2.5872   134  2.90472  138  -0.1  100   -0.1  151   0     971.6    NA       0.0000   BR       9999  0     0    
2019/11/17  21:38:00  BASE  2.75184  135  3.2046   132  -0.1  100   -0.1  153   0     971.6    NA       0.0000   BR       9000  0     0    
2019/11/17  21:39:00  BASE  2.94     132  3.26928  124  -0.1  100   -0.1  152   0     971.6    NA       0.0000   BR       8000  0     0    
2019/11/17  21:40:00  BASE  2.90472  128  3.26928  124  -0.1  100   -0.1  150   0     971.6    NA       0.0000   BR       9999  160   0    
2019/11/17  21:41:00  BASE  2.63424  124  3.26928  124  -0.1  100   -0.1  146   0     971.6    NA       0.0000   BR       9999  160   0    
2019/11/17  21:42:00  BASE  2.38728  120  3.26928  124  -0.1  100   -0.1  144   0     971.6    NA       0.0000   BR       9000  160   0    
2019/11/17  21:43:00  BASE  2.16972  118  3.26928  124  -0.1  100   -0.1  143   0     971.6    NA       0.0000   BR       9999  200   0    
2019/11/17  21:44:00  BASE  2.2932   118  3.26928  124  -0.1  100   -0.1  146   0     971.6    NA       0.0000   BR       9999  200   0    
2019/11/17  21:45:00  BASE  2.28732  118  3.26928  124  -0.1  100   -0.1  149   0     971.6    NA       0.0000   9999     200   0     0    
2019/11/17  21:46:00  BASE  2.21676  120  3.26928  124  -0.1  100   -0.1  151   0     971.6    NA       0.0000   9999     230   0     0    
2019/11/17  21:47:00  BASE  2.62248  121  3.26928  124  -0.1  100   -0.1  156   0     971.5    NA       0.0000   9999     200   1050  0    
2019/11/17  21:48:00  BASE  2.88708  119  3.26928  124  -0.1  100   -0.1  155   0     971.5    NA       0.0000   9999     300   1080  0    
2019/11/17  21:49:00  BASE  2.93412  116  3.2046   116  -0.1  100   -0.1  150   0     971.5    NA       0.0000   9999     390   1050  0    
2019/11/17  21:50:00  BASE  2.92236  116  3.2046   116  -0.1  100   -0.1  150   0     971.5    NA       0.0000   9999     390   0     0    
2019/11/17  21:51:00  BASE  2.7048   115  3.2046   116  -0.1  100   -0.1  147   0     971.5    NA       0.0000   9999     300   1080  0    
2019/11/17  21:52:00  BASE  2.499    113  3.2046   116  -0.1  100   -0.1  142   0     971.5    NA       0.0000   9999     430   0     0    
2019/11/17  21:53:00  BASE  2.4108   108  3.2046   116  -0.0  100   -0.0  141   0     971.5    NA       0.0000   9999     390   0     0    
2019/11/17  21:54:00  BASE  2.39316  103  3.2046   116  -0.0  100   -0.0  142   0     971.5    NA       0.0000   9999     330   1120  0    
2019/11/17  21:55:00  BASE  2.3814   99   3.2046   116  0.0   100   -0.0  139   0     971.5    NA       0.0000   9999     430   0     0    
2019/11/17  21:56:00  BASE  2.32848  100  3.2046   116  0.0   100   0.0   138   0     971.5    NA       0.0000   9999     360   0     0    
2019/11/17  21:57:00  BASE  2.39904  102  3.2046   116  0.1   100   0.1   138   0     971.4    NA       0.0000   9999     360   0     0    
2019/11/17  21:58:00  BASE  2.51076  100  3.2046   116  0.1   100   0.1   138   0     971.4    NA       0.0000   9999     390   0     0    
2019/11/17  21:59:00  BASE  2.55192  97   2.99292  120  0.1   100   0.1   137   0     971.4    NA       0.0000   9999     430   0     0    
2019/11/17  22:00:00  BASE  2.58132  99   2.93412  103  0.1   100   0.1   136   0     971.4    NA       0.0000   9999     460   0     0    
2019/11/17  22:01:00  BASE  2.5284   105  2.93412  103  0.1   100   0.1   134   0     971.4    NA       0.0000   9999     430   0     0    
2019/11/17  22:02:00  BASE  2.499    110  2.93412  103  0.1   100   0.1   133   0     971.4    NA       0.0000   9999     390   0     0    
2019/11/17  22:03:00  BASE  2.646    114  3.2046   115  0.1   100   0.1   132   0     971.4    NA       0.0000   9999     390   0     0    
2019/11/17  22:04:00  BASE  2.5284   116  3.2046   115  0.1   100   0.1   132   0     971.3    NA       0.0000   9999     360   0     0    
2019/11/17  22:05:00  BASE  2.44608  114  3.2046   115  0.1   100   0.1   132   0     971.3    NA       0.0000   9999     390   0     0    
2019/11/17  22:06:00  BASE  2.72244  116  3.2046   124  0.1   100   0.1   131   0     971.2    NA       0.0000   9999     390   0     0    
2019/11/17  22:07:00  BASE  2.66364  121  3.2046   124  0.1   100   0.1   129   0     971.3    NA       0.0000   9999     390   8760  0    
2019/11/17  22:08:00  BASE  2.59896  127  3.2046   124  0.1   100   0.1   127   0     971.2    NA       0.0000   9999     330   0     0    
2019/11/17  22:09:00  BASE  2.62836  129  3.2046   124  0.1   100   0.1   124   0     971.2    NA       0.0000   9999     360   0     0    
2019/11/17  22:10:00  BASE  2.59896  129  3.2046   124  0.1   100   0.1   121   0     971.2    NA       0.0000   9999     360   0     0    
2019/11/17  22:11:00  BASE  2.66364  131  3.2046   124  0.1   100   0.1   120   0     971.2    NA       0.0000   9999     330   0     0    
2019/11/17  22:12:00  BASE  2.646    131  3.2046   124  0.1   100   0.1   118   0     971.3    NA       0.0000   9999     390   0     0    
2019/11/17  22:13:00  BASE  2.62248  130  3.2046   124  0.1   100   0.1   115   0     971.3    NA       0.0000   9999     360   0     0    
2019/11/17  22:14:00  BASE  2.54604  127  3.2046   124  0.1   100   0.1   112   0     971.4    NA       0.0000   9999     390   0     0    
2019/11/17  22:15:00  BASE  2.39316  123  3.2046   124  0.0   100   0.0   110   0     971.4    NA       0.0000   9999     300   0     0    
2019/11/17  22:16:00  BASE  2.39316  122  3.02232  128  0.0   100   0.0   109   0     971.3    NA       0.0000   9999     360   0     0    
2019/11/17  22:17:00  BASE  2.4696   133  3.02232  128  0.0   100   0.0   109   0     971.3    NA       0.0000   9999     360   0     0    
2019/11/17  22:18:00  BASE  2.39316  139  3.02232  128  0.0   100   0.0   111   0     971.2    NA       0.0000   9999     330   0     0    
2019/11/17  22:19:00  BASE  2.18148  141  3.02232  128  0.0   100   0.0   112   0     971.2    NA       0.0000   9999     300   0     0    
2019/11/17  22:20:00  BASE  1.911    142  3.02232  128  0.0   100   0.0   112   0     971.2    NA       0.0000   9999     360   0     0    
2019/11/17  22:21:00  BASE  1.8228   139  3.02232  128  0.0   100   0.0   111   0     971.2    NA       0.0000   9999     330   0     0    
2019/11/17  22:22:00  BASE  1.8816   139  3.02232  128  0.0   100   0.0   110   0     971.2    NA       0.0000   9999     330   0     0    
2019/11/17  22:23:00  BASE  1.55232  142  2.75184  143  0.0   100   0.0   108   0     971.2    NA       0.0000   9999     360   0     0    
2019/11/17  22:24:00  BASE  1.2054   145  2.75184  143  0.0   100   0.0   108   0     971.2    NA       0.0000   9999     260   0     0    
2019/11/17  22:25:00  BASE  1.24068  145  2.75184  143  0.0   100   0.0   109   0     971.2    NA       0.0000   9999     330   0     0    
2019/11/17  22:26:00  BASE  1.2348   145  2.75184  143  0.1   100   0.1   111   0     971.2    NA       0.0000   9999     330   0     0    
2019/11/17  22:27:00  BASE  1.28772  148  2.54016  138  0.1   100   0.1   112   0     971.2    NA       0.0000   9999     300   0     0    
2019/11/17  22:28:00  BASE  1.41708  153  2.29908  140  0.1   100   0.1   113   0     971.2    NA       0.0000   9999     330   0     0    
2019/11/17  22:29:00  BASE  1.45824  155  2.29908  140  0.1   100   0.1   112   0     971.2    NA       0.0000   9999     330   0     0    
2019/11/17  22:30:00  BASE  1.55232  159  2.29908  140  0.0   100   0.0   109   0     971.2    NA       0.0000   9999     260   0     0    
2019/11/17  22:31:00  BASE  1.75812  165  2.1462   135  0.0   100   0.0   106   0     971.2    NA       0.0000   9999     300   0     0    
2019/11/17  22:32:00  BASE  1.72284  167  1.9992   167  0.0   100   0.0   103   0     971.2    NA       0.0000   9999     230   0     0    
2019/11/17  22:33:00  BASE  1.48176  163  1.9992   167  0.0   100   0.0   101   0     971.2    NA       0.0000   9999     230   0     0    
2019/11/17  22:34:00  BASE  1.176    164  1.9992   167  0.0   100   0.0   101   0     971.2    NA       0.0000   9999     260   0     0    
2019/11/17  22:35:00  BASE  0.90552  169  1.9992   167  0.0   100   0.0   102   0     971.2    NA       0.0000   9999     300   0     0    
2019/11/17  22:36:00  BASE  0.69384  169  1.9992   167  -0.0  100   -0.0  101   0     971.3    NA       0.0000   9999     230   0     0    
2019/11/17  22:37:00  BASE  0.28812  165  1.9992   167  0.0   100   0.0   101   0     971.2    NA       0.0000   9999     260   0     0    
2019/11/17  22:38:00  BASE  0.0294   160  1.9992   167  0.0   100   0.0   101   0     971.2    NA       0.0000   9999     260   0     0    
2019/11/17  22:39:00  BASE  0        167  1.9992   167  0.0   100   0.0   101   0     971.2    NA       0.0000   9999     300   0     0    
2019/11/17  22:40:00  BASE  0.05292  181  1.9992   167  0.0   100   0.0   100   0     971.2    NA       0.0000   9999     260   0     0    
2019/11/17  22:41:00  BASE  0.44688  183  1.81692  159  0.0   100   0.0   98    0     971.2    NA       0.0000   9999     230   0     0    
2019/11/17  22:42:00  BASE  0.94668  180  1.57584  158  -0.0  100   -0.0  95    0     971.2    NA       0.0000   9999     230   0     0    
2019/11/17  22:43:00  BASE  1.31712  178  1.96392  175  -0.0  100   -0.0  92    0     971.2    NA       0.0000   9999     230   0     0    
2019/11/17  22:44:00  BASE  1.68756  175  2.21088  175  -0.0  100   -0.0  90    0     971.1    NA       0.0000   9999     230   8730  0    
2019/11/17  22:45:00  BASE  2.03448  174  2.38728  172  -0.1  100   -0.1  90    0     971.1    NA       0.0000   9999     230   0     0    
2019/11/17  22:46:00  BASE  2.22264  174  2.38728  172  -0.1  100   -0.1  89    0     971.1    NA       0.0000   9999     230   8790  0    
2019/11/17  22:47:00  BASE  2.09328  173  2.38728  172  -0.1  100   -0.1  89    0     971.1    NA       0.0000   9999     260   0     0    
2019/11/17  22:48:00  BASE  1.90512  175  2.38728  172  -0.1  100   -0.1  91    0     971.2    NA       0.0000   9999     200   8760  0    
2019/11/17  22:49:00  BASE  1.95216  177  2.38728  172  -0.1  100   -0.1  90    0     971.1    NA       0.0000   9999     200   0     0    
2019/11/17  22:50:00  BASE  1.95216  177  2.38728  172  -0.1  100   -0.1  88    0     971.1    NA       0.0000   9999     200   0     0    
2019/11/17  22:51:00  BASE  1.8522   175  2.38728  172  -0.1  100   -0.1  82    0     971.2    NA       0.0000   9999     160   0     0    
2019/11/17  22:52:00  BASE  1.79928  169  2.38728  172  -0.1  100   -0.1  75    0     971.2    NA       0.0000   9999     160   0     0    
2019/11/17  22:53:00  BASE  1.7934   172  2.38728  172  -0.1  100   -0.1  71    0     971.2    NA       0.0000   9999     160   0     0    
2019/11/17  22:54:00  BASE  1.87572  173  2.38728  172  -0.1  100   -0.1  69    0     971.2    NA       0.0000   9999     160   0     0    
2019/11/17  22:55:00  BASE  1.82868  166  2.29908  168  -0.1  100   -0.1  68    0     971.1    NA       0.0000   9999     160   0     0    
2019/11/17  22:56:00  BASE  1.89924  163  2.29908  168  -0.1  100   -0.1  67    0     971.1    NA       0.0000   9999     160   0     0    
2019/11/17  22:57:00  BASE  1.96392  161  2.29908  168  -0.2  100   -0.2  67    0     971.1    NA       0.0000   9000     160   0     0    
2019/11/17  22:58:00  BASE  1.617    169  2.29908  168  -0.2  100   -0.2  64    0     971.1    NA       0.0000   5000     0     0     0    
2019/11/17  22:59:00  BASE  1.3818   182  2.29908  168  -0.2  100   -0.2  64    0     971.1    NA       0.0000   8000     160   0     0    
2019/11/17  23:00:00  BASE  1.3818   186  2.29908  168  -0.2  100   -0.2  62    0     971.1    NA       0.0000   9999     160   0     0    
2019/11/17  23:01:00  BASE  1.31712  172  2.29908  168  -0.2  100   -0.2  60    0     971.1    NA       0.0000   BR       9000  0     0    
2019/11/17  23:02:00  BASE  1.24068  154  2.29908  168  -0.2  100   -0.2  59    0     971.1    NA       0.0000   BR       5000  0     0    
2019/11/17  23:03:00  BASE  1.12896  159  2.29908  168  -0.2  100   -0.2  56    0     971.1    NA       0.0000   BR       9000  0     0    
2019/11/17  23:04:00  BASE  0.9996   180  2.24028  157  -0.2  100   -0.2  54    0     971.1    NA       0.0000   BR       9999  160   0    
2019/11/17  23:05:00  BASE  1.06428  199  2.24028  157  -0.2  100   -0.2  52    0     971.1    NA       0.0000   BR       9999  0     0    
2019/11/17  23:06:00  BASE  1.2936   192  2.21088  163  -0.2  100   -0.2  50    0     971.1    NA       0.0000   BR       9000  0     0    
2019/11/17  23:07:00  BASE  1.39944  177  1.69344  177  -0.2  100   -0.2  46    0     971.1    NA       0.0000   BR       9999  0     0    
2019/11/17  23:08:00  BASE  1.2642   176  1.69344  177  -0.3  100   -0.3  43    0     971.1    NA       0.0000   BR       9999  0     0    
2019/11/17  23:09:00  BASE  1.22304  180  1.63464  176  -0.3  100   -0.3  40    0     971.1    NA       0.0000   BR       9999  0     0    
2019/11/17  23:10:00  BASE  1.3818   188  1.90512  195  -0.3  100   -0.3  37    0     971.1    NA       0.0000   BR       7000  0     0    
2019/11/17  23:11:00  BASE  1.5582   195  1.90512  200  -0.3  100   -0.3  36    0     971.1    NA       0.0000   BR       3300  0     0    
2019/11/17  23:12:00  BASE  1.4994   204  1.90512  200  -0.4  100   -0.4  33    0     971.1    NA       0.0000   BR       1700  0     0    
2019/11/17  23:13:00  BASE  1.2054   205  1.90512  200  -0.4  100   -0.4  32    0     971.1    NA       0.0000   BR       2200  0     0    
2019/11/17  23:14:00  BASE  1.29948  186  1.90512  200  -0.4  100   -0.4  30    0     971.0    NA       0.0000   BR       1900  0     0    
2019/11/17  23:15:00  BASE  1.69932  176  2.0286   182  -0.4  100   -0.4  29    0     971.0    NA       0.0000   BR       1400  0     0    
2019/11/17  23:16:00  BASE  1.77576  181  2.0286   182  -0.4  100   -0.4  29    0     971.0    NA       0.0000   BR       0800  0     0    
2019/11/17  23:17:00  BASE  1.45236  184  2.0286   182  -0.4  100   -0.4  28    0     971.0    NA       0.0000   BR       0700  0     0    
2019/11/17  23:18:00  BASE  1.08192  186  2.0286   182  -0.4  100   -0.4  28    0     971.0    NA       0.0000   BR       0650  0     0    
2019/11/17  23:19:00  BASE  0.87024  188  2.0286   182  -0.4  100   -0.4  28    0     971.1    NA       0.0000   BR       0800  0     0    
2019/11/17  23:20:00  BASE  0.441    198  2.0286   182  -0.4  100   -0.4  28    0     971.1    NA       0.0000   BR       0800  0     0    
2019/11/17  23:21:00  BASE  0.0294   214  2.0286   182  -0.4  100   -0.4  28    0     971.1    NA       0.0000   BR       0900  0     0    
2019/11/17  23:22:00  BASE  0.28812  219  2.0286   182  -0.4  100   -0.4  27    0     971.1    NA       0.0000   BR       1000  0     0    
2019/11/17  23:23:00  BASE  0.31752  223  2.0286   182  -0.4  100   -0.4  26    0     971.0    NA       0.0000   BR       0800  0     0    
2019/11/17  23:24:00  BASE  0.37044  238  2.0286   182  -0.4  100   -0.4  26    0     971.0    NA       0.0000   FZFG     0800  0     0    
2019/11/17  23:25:00  BASE  0.74088  247  1.81692  178  -0.4  100   -0.4  27    0     971.0    NA       0.0000   FZFG     0800  0     0    
2019/11/17  23:26:00  BASE  0.95256  243  1.35828  180  -0.4  100   -0.4  27    0     971.0    NA       0.0000   FZFG     0700  0     0    
2019/11/17  23:27:00  BASE  1.1172   227  1.35828  212  -0.4  100   -0.4  27    0     971.0    NA       0.0000   FZFG     0700  0     0    
2019/11/17  23:28:00  BASE  1.00548  210  1.35828  212  -0.4  100   -0.4  26    0     971.1    NA       0.0000   FZFG     0600  0     0    
2019/11/17  23:29:00  BASE  0.9996   209  1.35828  212  -0.4  100   -0.4  26    0     971.1    NA       0.0000   FZFG     0600  0     0    
2019/11/17  23:30:00  BASE  1.14072  208  1.35828  212  -0.5  100   -0.5  26    0     971.1    NA       0.0000   FZFG     0650  0     0    
2019/11/17  23:31:00  BASE  1.08192  204  1.35828  212  -0.5  100   -0.5  26    0     971.1    NA       0.0000   FZFG     0600  0     0    
2019/11/17  23:32:00  BASE  1.06428  211  1.35828  212  -0.5  100   -0.5  27    0     971.1    NA       0.0000   FZFG     0600  0     0    
2019/11/17  23:33:00  BASE  1.1466   223  1.35828  212  -0.5  100   -0.5  28    0     971.0    NA       0.0000   FZFG     0550  0     0    
2019/11/17  23:34:00  BASE  1.19364  231  1.35828  212  -0.5  100   -0.5  29    0     971.0    NA       0.0000   FZFG     0550  0     0    
2019/11/17  23:35:00  BASE  1.13484  233  1.35828  212  -0.5  100   -0.5  29    0     971.0    NA       0.0000   FZFG     0550  0     0    
2019/11/17  23:36:00  BASE  0.99372  231  1.35828  212  -0.5  100   -0.5  29    0     971.0    NA       0.0000   FZFG     0550  0     0    
2019/11/17  23:37:00  BASE  0.84672  237  1.32888  234  -0.6  100   -0.6  29    0     971.0    NA       0.0000   FZFG     0550  0     0    
2019/11/17  23:38:00  BASE  0.45864  250  1.32888  234  -0.6  100   -0.6  28    0     971.0    NA       0.0000   FZFG     0550  0     0    
2019/11/17  23:39:00  BASE  0.08232  258  1.32888  234  -0.6  100   -0.6  29    0     971.0    NA       0.0000   FZFG     0600  0     0    
2019/11/17  23:40:00  BASE  0        257  1.32888  234  -0.6  100   -0.6  29    0     971.0    NA       0.0000   FZFG     0600  0     0    
2019/11/17  23:41:00  BASE  0.11172  263  1.32888  234  -0.6  100   -0.6  29    0     971.0    NA       0.0000   FZFG     0650  0     0    
2019/11/17  23:42:00  BASE  0.40572  284  1.32888  234  -0.6  100   -0.6  29    0     971.0    NA       0.0000   FZFG     0650  0     0    
2019/11/17  23:43:00  BASE  0.71736  291  1.32888  234  -0.6  100   -0.6  29    0     971.0    NA       0.0000   FZFG     0800  0     0    
2019/11/17  23:44:00  BASE  1.01136  285  1.35828  275  -0.5  100   -0.5  29    0     971.0    NA       0.0000   FZFG     0800  0     0    
2019/11/17  23:45:00  BASE  1.47588  299  1.9992   316  -0.5  100   -0.5  29    0     971.0    NA       0.0000   FZFG     0800  0     0    
2019/11/17  23:46:00  BASE  1.72872  310  1.9992   316  -0.5  100   -0.5  28    0     971.0    NA       0.0000   FZFG     0600  0     0    
2019/11/17  23:47:00  BASE  1.617    307  1.9992   316  -0.5  100   -0.5  29    0     971.0    NA       0.0000   FZFG     0550  0     0    
2019/11/17  23:48:00  BASE  1.56996  310  1.9992   313  -0.5  100   -0.5  30    0     970.9    NA       0.0000   FZFG     0700  0     0    
2019/11/17  23:49:00  BASE  1.78164  318  2.21088  323  -0.5  100   -0.5  31    0     970.9    NA       0.0000   FZFG     0650  0     0    
2019/11/17  23:50:00  BASE  2.01684  328  2.29908  323  -0.5  100   -0.5  32    0     970.9    NA       0.0000   FZFG     0700  0     0    
2019/11/17  23:51:00  BASE  1.98156  320  2.29908  315  -0.5  100   -0.5  31    0     970.9    NA       0.0000   FZFG     0650  0     0    
2019/11/17  23:52:00  BASE  2.04624  305  2.42256  307  -0.5  100   -0.5  31    0     970.9    NA       0.0000   FZFG     0700  0     0    
2019/11/17  23:53:00  BASE  2.3226   303  2.69304  301  -0.5  100   -0.5  31    0     970.9    NA       0.0000   FZFG     0550  0     0    
2019/11/17  23:54:00  BASE  2.24616  306  2.69304  301  -0.5  100   -0.5  28    0     970.9    NA       0.0000   FZFG     0500  0     0    
2019/11/17  23:55:00  BASE  1.98744  308  2.69304  301  -0.5  100   -0.5  26    0     970.9    NA       0.0000   FZFG     0450  0     0    
2019/11/17  23:56:00  BASE  1.93452  305  2.69304  301  -0.5  100   -0.5  25    0     970.9    NA       0.0000   FZFG     0500  0     0    
2019/11/17  23:57:00  BASE  2.06388  301  2.69304  301  -0.5  100   -0.5  26    0     970.9    NA       0.0000   FZFG     0450  0     0    
2019/11/17  23:58:00  BASE  2.07564  305  2.69304  301  -0.5  100   -0.5  25    0     970.9    NA       0.0000   FZFG     0500  0     0    
2019/11/17  23:59:00  BASE  2.04036  315  2.69304  301  -0.5  100   -0.5  25    0     970.9    NA       0.0000   FZFG     0600  0     0